[[{"header":{"parameterUnit":"m.s-1","parameterCategory":1,"la1":30.6,"la2":28.766,"lo1":-90.7593,"lo2":-88.6598,"dy":0.0162,"dx":0.0183,"nx":116,"ny":114,"refTime":"2024-07-03T12:00:00:Z","depth":0,"parameterNumber":2,"parameterNumberName":"U-component_of_WINDS"},"data":[0.0,0.0,0.0,0.0,0.0,0.0,0.0,0.0,0.0,0.0,0.0,0.0,0.0,0.0,0.0,0.0,0.0,0.0,0.0,0.0,0.0,0.0,0.0,0.0,0.0,0.0,0.0,0.0,0.0,0.0,0.0,0.0,0.0,0.0,0.0,0.0,0.0,0.0,0.0,0.0,0.0,0.0,0.0,0.0,0.0,0.0,0.0,0.0,0.0,0.0,0.0,0.0,0.0,0.0,0.0,0.0,0.0,0.0,0.0,0.0,0.0,0.0,0.0,0.0,0.0,0.0,0.0,0.0,0.0,0.0,0.0,0.0,0.0,0.0,0.0,0.0,0.0,0.0,0.0,0.0,0.0,0.0,0.0,0.0,0.0,0.0,0.0,0.0,0.0,0.0,0.0,0.0,0.0,0.0,0.0,0.0,0.0,0.0,0.0,0.0,0.0,0.0,0.0,0.0,0.0,0.0,0.0,0.0,0.0,0.0,0.0,0.0,0.0,0.0,0.0,0.0,0.0,0.0,0.0,0.0,0.0,0.0,0.0,0.0,0.0,0.0,0.0,0.0,0.0,0.0,0.0,0.0,0.0,0.0,0.0,0.0,0.0,0.0,0.0,0.0,0.0,0.0,0.0,0.0,0.0,0.0,0.0,0.0,0.0,0.0,0.0,0.0,0.0,0.0,0.0,0.0,0.0,0.0,0.0,0.0,0.0,0.0,0.0,0.0,0.0,0.0,0.0,0.0,0.0,0.0,0.0,0.0,0.0,0.0,0.0,0.0,0.0,0.0,0.0,0.0,0.0,0.0,0.0,0.0,0.0,0.0,0.0,0.0,0.0,0.0,0.0,0.0,0.0,0.0,0.0,0.0,0.0,0.0,0.0,0.0,0.0,0.0,0.0,0.0,0.0,0.0,0.0,0.0,0.0,0.0,0.0,0.0,0.0,0.0,0.0,0.0,0.0,0.0,0.0,0.0,0.0,0.0,0.0,0.0,0.0,0.0,0.0,0.0,0.0,0.0,0.0,0.0,0.0,0.0,0.0,0.0,0.0,0.0,0.0,0.0,0.0,0.0,0.0,0.0,0.0,0.0,0.0,0.0,0.0,0.0,0.0,0.0,0.0,0.0,0.0,0.0,0.0,0.0,0.0,0.0,0.0,0.0,0.0,0.0,0.0,0.0,0.0,0.0,0.0,0.0,0.0,0.0,0.0,0.0,0.0,0.0,0.0,0.0,0.0,0.0,0.0,0.0,0.0,0.0,0.0,0.0,0.0,0.0,0.0,0.0,0.0,0.0,0.0,0.0,0.0,0.0,0.0,0.0,0.0,0.0,0.0,0.0,0.0,0.0,0.0,0.0,0.0,0.0,0.0,0.0,0.0,0.0,0.0,0.0,0.0,0.0,0.0,0.0,0.0,0.0,0.0,0.0,0.0,0.0,0.0,0.0,0.0,0.0,0.0,0.0,0.0,0.0,0.0,0.0,0.0,0.0,0.0,0.0,0.0,0.0,0.0,0.0,0.0,0.0,0.0,0.0,0.0,0.0,0.0,0.0,0.0,0.0,0.0,0.0,0.0,0.0,0.0,0.0,0.0,0.0,0.0,0.0,0.0,0.0,0.0,0.0,0.0,0.0,0.0,0.0,0.0,0.0,0.0,0.0,0.0,0.0,0.0,0.0,0.0,0.0,0.0,0.0,0.0,0.0,0.0,0.0,0.0,0.0,0.0,0.0,0.0,0.0,0.0,0.0,0.0,0.0,0.0,0.0,0.0,0.0,0.0,0.0,0.0,0.0,0.0,0.0,0.0,0.0,0.0,0.0,0.0,0.0,0.0,0.0,0.0,0.0,0.0,0.0,0.0,0.0,0.0,0.0,0.0,0.0,0.0,0.0,0.0,0.0,0.0,0.0,0.0,0.0,0.0,0.0,0.0,0.0,0.0,0.0,0.0,0.0,0.0,0.0,0.0,0.0,0.0,0.0,0.0,0.0,0.0,0.0,0.0,0.0,0.0,0.0,0.0,0.0,0.0,0.0,0.0,0.0,0.0,0.0,0.0,0.0,0.0,0.0,0.0,0.0,0.0,0.0,0.0,0.0,0.0,0.0,0.0,0.0,0.0,0.0,0.0,0.0,0.0,0.0,0.0,0.0,0.0,0.0,0.0,0.0,0.0,0.0,0.0,0.0,0.0,0.0,0.0,0.0,0.0,0.0,0.0,0.0,0.0,0.0,0.0,0.0,0.0,0.0,0.0,0.0,0.0,0.0,0.0,0.0,0.0,0.0,0.0,0.0,0.0,0.0,0.0,0.0,0.0,0.0,0.0,0.0,0.0,0.0,0.0,0.0,0.0,0.0,0.0,0.0,0.0,0.0,0.0,0.0,0.0,0.0,0.0,0.0,0.0,0.0,0.0,0.0,0.0,0.0,0.0,0.0,0.0,0.0,0.0,0.0,0.0,0.0,0.0,0.0,0.0,0.0,0.0,0.0,0.0,0.0,0.0,0.0,0.0,0.0,0.0,0.0,0.0,0.0,0.0,0.0,0.0,0.0,0.0,0.0,0.0,0.0,0.0,0.0,0.0,0.0,0.0,0.0,0.0,0.0,0.0,0.0,0.0,0.0,0.0,0.0,0.0,0.0,0.0,0.0,0.0,0.0,0.0,0.0,0.0,0.0,0.0,0.0,0.0,0.0,0.0,0.0,0.0,0.0,0.0,0.0,0.0,0.0,0.0,0.0,0.0,0.0,0.0,0.0,0.0,0.0,0.0,0.0,0.0,0.0,0.0,0.0,0.0,0.0,0.0,0.0,0.0,0.0,0.0,0.0,0.0,0.0,0.0,0.0,0.0,0.0,0.0,0.0,0.0,0.0,0.0,0.0,0.0,0.0,0.0,0.0,0.0,0.0,0.0,0.0,0.0,0.0,0.0,0.0,0.0,0.0,0.0,0.0,0.0,0.0,0.0,0.0,0.0,0.0,0.0,0.0,0.0,0.0,0.0,0.0,0.0,0.0,0.0,0.0,0.0,0.0,0.0,0.0,0.0,0.0,0.0,0.0,0.0,0.0,0.0,0.0,0.0,0.0,0.0,0.0,0.0,0.0,0.0,0.0,0.0,0.0,0.0,0.0,0.0,0.0,0.0,0.0,0.0,0.0,0.0,0.0,0.0,0.0,0.0,0.0,0.0,0.0,0.0,0.0,0.0,0.0,0.0,0.0,0.0,0.0,0.0,0.0,0.0,0.0,0.0,0.0,0.0,0.0,0.0,0.0,0.0,0.0,0.0,0.0,0.0,0.0,0.0,0.0,0.0,0.0,0.0,0.0,0.0,0.0,0.0,0.0,0.0,0.0,0.0,0.0,0.0,0.0,0.0,0.0,0.0,0.0,0.0,0.0,0.0,0.0,0.0,0.0,0.0,0.0,0.0,0.0,0.0,0.0,0.0,0.0,0.0,0.0,0.0,0.0,0.0,0.0,0.0,0.0,0.0,0.0,0.0,0.0,0.0,0.0,0.0,0.0,0.0,0.0,0.0,0.0,0.0,0.0,0.0,0.0,0.0,0.0,0.0,0.0,0.0,0.0,0.0,0.0,0.0,0.0,0.0,0.0,0.0,0.0,0.0,0.0,0.0,0.0,0.0,0.0,0.0,0.0,0.0,0.0,0.0,0.0,0.0,0.0,0.0,0.0,0.0,0.0,0.0,0.0,0.0,0.0,0.0,0.0,0.0,0.0,0.0,0.0,0.0,0.0,0.0,0.0,0.0,0.0,0.0,0.0,0.0,0.0,0.0,0.0,0.0,0.0,0.0,0.0,0.0,0.0,0.0,0.0,0.0,0.0,0.0,0.0,0.0,0.0,0.0,0.0,0.0,0.0,0.0,0.0,0.0,0.0,0.0,0.0,0.0,0.0,0.0,0.0,0.0,0.0,0.0,0.0,0.0,0.0,0.0,0.0,0.0,0.0,0.0,0.0,0.0,0.0,0.0,0.0,0.0,0.0,0.0,0.0,0.0,0.0,0.0,0.0,0.0,0.0,0.0,0.0,0.0,0.0,0.0,0.0,0.0,0.0,0.0,0.0,0.0,0.0,0.0,0.0,0.0,0.0,0.0,0.0,0.0,0.0,0.0,0.0,0.0,0.0,0.0,0.0,0.0,0.0,0.0,0.0,0.0,0.0,0.0,0.0,0.0,0.0,0.0,0.0,0.0,0.0,0.0,0.0,0.0,0.0,0.0,0.0,0.0,0.0,0.0,0.0,0.0,0.0,0.0,0.0,0.0,0.0,0.0,0.0,0.0,0.0,0.0,0.0,0.0,0.0,0.0,0.0,0.0,0.0,0.0,0.0,0.0,0.0,0.0,0.0,0.0,0.0,0.0,0.0,0.0,0.0,0.0,0.0,0.0,0.0,0.0,0.0,0.0,0.0,0.0,0.0,0.0,0.0,0.0,0.0,0.0,0.0,0.0,0.0,0.0,0.0,0.0,0.0,0.0,0.0,0.0,0.0,0.0,0.0,0.0,0.0,0.0,0.0,0.0,0.0,0.0,0.0,0.0,0.0,0.0,0.0,0.0,0.0,0.0,0.0,0.0,0.0,0.0,0.0,0.0,0.0,0.0,0.0,0.0,0.0,0.0,0.0,0.0,0.0,0.0,0.0,0.0,0.0,0.0,0.0,0.0,0.0,0.0,0.0,0.0,0.0,0.0,0.0,0.0,0.0,0.0,0.0,0.0,0.0,0.0,0.0,0.0,0.0,0.0,0.0,0.0,0.0,0.0,0.0,0.0,0.0,0.0,0.0,0.0,0.0,0.0,0.0,0.0,0.0,0.0,0.0,0.0,0.0,0.0,0.0,0.0,0.0,0.0,0.0,0.0,0.0,0.0,0.0,0.0,0.0,0.0,0.0,0.0,0.0,0.0,0.0,0.0,0.0,0.0,0.0,0.0,0.0,0.0,0.0,0.0,0.0,0.0,0.0,0.0,0.0,0.0,0.0,0.0,0.0,0.0,0.0,0.0,0.0,0.0,0.0,0.0,0.0,0.0,0.0,0.0,0.0,0.0,0.0,0.0,0.0,0.0,0.0,0.0,0.0,0.0,0.0,0.0,0.0,0.0,0.0,0.0,0.0,0.0,0.0,0.0,0.0,0.0,0.0,0.0,0.0,0.0,0.0,0.0,0.0,0.0,0.0,0.0,0.0,0.0,0.0,0.0,0.0,0.0,0.0,0.0,0.0,0.0,0.0,0.0,0.0,0.0,0.0,0.0,0.0,0.0,0.0,0.0,0.0,0.0,0.0,0.0,0.0,0.0,0.0,0.0,0.0,0.0,0.0,0.0,0.0,0.0,0.0,0.0,0.0,0.0,0.0,0.0,0.0,0.0,0.0,0.0,0.0,0.0,0.0,0.0,0.0,0.0,0.0,0.0,0.0,0.0,0.0,0.0,0.0,0.0,0.0,0.0,0.0,0.0,0.0,0.0,0.0,0.0,0.0,0.0,0.0,0.0,0.0,0.0,0.0,0.0,0.0,0.0,0.0,0.0,0.0,0.0,0.0,0.0,0.0,0.0,0.0,0.0,0.0,0.0,0.0,0.0,0.0,0.0,0.0,0.0,0.0,0.0,0.0,0.0,0.0,0.0,0.0,0.0,0.0,0.0,0.0,0.0,0.0,0.0,0.0,0.0,0.0,0.0,0.0,0.0,0.0,0.0,0.0,0.0,0.0,0.0,0.0,0.0,0.0,0.0,0.0,0.0,0.0,0.0,0.0,0.0,0.0,0.0,0.0,0.0,0.0,0.0,0.0,0.0,0.0,0.0,0.0,0.0,0.0,0.0,0.0,0.0,0.0,0.0,0.0,0.0,0.0,0.0,0.0,0.0,0.0,0.0,0.0,0.0,0.0,0.0,0.0,0.0,0.0,0.0,0.0,0.0,0.0,0.0,0.0,0.0,0.0,0.0,0.0,0.0,0.0,0.0,0.0,0.0,0.0,0.0,0.0,0.0,0.0,0.0,0.0,0.0,0.0,0.0,0.0,0.0,0.0,0.0,0.0,0.0,0.0,0.0,0.0,0.0,0.0,0.0,0.0,0.0,0.0,0.0,0.0,0.0,0.0,0.0,0.0,0.0,0.0,-0.2652,-0.124,0.0,0.0,0.0,0.0,0.0,0.0,0.0,0.0,0.0,0.0,0.0,0.0,0.0,0.0,0.0,0.0,0.0,0.0,0.0,0.0,0.0,0.0,0.0,-0.2173,-0.2204,-0.1877,-0.1688,-0.1476,-0.1233,0.0,0.0,0.0,0.0,0.0,-0.1411,-0.1693,-0.2106,-0.2669,-0.3491,-0.4408,-0.5324,-0.5463,-0.583,-0.6493,0.0,0.0,0.0,0.0,0.0,0.0,0.0,0.0,0.0,0.0,0.0,0.0,0.0,0.0,0.0,0.0,0.0,0.0,0.0,0.0,0.0,0.0,0.0,0.0,0.0,0.0,0.0,0.0,0.0,0.0,0.0,0.0,0.0,0.0,0.0,0.0,0.0,0.0,0.0,0.0,0.0,0.0,0.0,0.0,0.0,0.0,0.0,0.0,0.0,0.0,0.0,0.0,0.0,0.0,0.0,0.0,0.0,0.0,0.0,0.0,0.0,0.0,0.0,0.0,0.0,0.0,0.0,0.0,0.0,0.0,-0.237,-0.1627,0.0,0.0,0.0,0.0,0.0,0.0,0.0,0.0,0.0,0.0,0.0,0.0,0.0,0.0,0.0,0.0,0.0,0.0,0.0,0.0,0.0,-0.2381,-0.2874,-0.3115,-0.3212,-0.3189,-0.2771,-0.2468,-0.2419,-0.2115,0.0,0.0,0.0,-0.2506,-0.2786,-0.3158,-0.3582,-0.3993,-0.4957,-0.6249,-0.7803,-0.9603,-1.0416,-1.0399,-1.1936,0.0,0.0,0.0,0.0,0.0,0.0,0.0,0.0,0.0,0.0,0.0,0.0,0.0,0.0,0.0,0.0,0.0,0.0,0.0,0.0,0.0,0.0,0.0,0.0,0.0,0.0,0.0,0.0,0.0,0.0,0.0,0.0,0.0,0.0,0.0,0.0,0.0,0.0,0.0,0.0,0.0,0.0,0.0,0.0,0.0,0.0,0.0,0.0,0.0,0.0,0.0,0.0,0.0,0.0,0.0,0.0,0.0,0.0,0.0,0.0,0.0,0.0,0.0,-1.2065,-0.9993,-0.8149,-0.5135,-0.3378,-0.2621,-0.2077,-0.2056,-0.2391,-0.2609,0.0,0.0,0.0,0.0,0.0,0.0,0.0,0.0,0.0,0.0,0.0,0.0,0.0,0.0,0.0,0.0,0.0,0.0,0.0,-0.2674,-0.3034,-0.3459,-0.3872,-0.4255,-0.4178,-0.3864,-0.3283,-0.3507,0.0,0.0,-0.3288,-0.342,-0.3972,-0.4246,-0.4753,-0.5508,-0.6405,-0.7783,-0.9574,-1.1123,-1.3215,-1.5672,-1.5758,-1.6473,-1.7644,0.0,0.0,0.0,0.0,0.0,0.0,0.0,0.0,0.0,0.0,0.0,0.0,0.0,0.0,0.0,0.0,0.0,0.0,0.0,0.0,0.0,0.0,0.0,0.0,0.0,0.0,0.0,0.0,0.0,0.0,0.0,0.0,0.0,0.0,0.0,0.0,0.0,0.0,0.0,0.0,0.0,-0.4326,-0.4748,0.0,0.0,0.0,0.0,0.0,0.0,0.0,0.0,0.0,0.0,0.0,0.0,0.0,-1.9991,-1.9775,-1.6924,-1.4692,-1.3111,-1.0643,-0.8454,-0.647,-0.4589,-0.3414,-0.2834,-0.2298,0.0,-0.2725,-0.3899,0.0,0.0,0.0,0.0,0.0,0.0,0.0,0.0,0.0,0.0,0.0,0.0,0.0,0.0,0.0,0.0,0.0,0.0,0.0,0.0,0.0,-0.3245,-0.3801,-0.4074,-0.3588,-0.357,-0.426,0.0,-0.3618,-0.4286,-0.4279,-0.4364,-0.4642,-0.4789,-0.5246,-0.5963,-0.6593,-0.7794,-0.9556,-1.1356,-1.3678,-1.638,-1.7782,-1.9127,-2.0254,-1.9544,0.0,0.0,0.0,0.0,0.0,0.0,0.0,0.0,0.0,0.0,0.0,0.0,0.0,0.0,0.0,0.0,0.0,0.0,0.0,0.0,0.0,0.0,0.0,0.0,0.0,0.0,0.0,0.0,0.0,0.0,0.0,0.0,0.0,0.0,0.0,0.0,0.0,0.0,0.0,-0.3244,-0.3869,-0.4119,-0.5001,-0.5923,0.0,0.0,0.0,0.0,0.0,0.0,0.0,0.0,0.0,-1.9493,-1.8943,-1.8575,-1.8469,-1.6281,-1.4298,-1.2538,-1.0103,-0.793,-0.5909,-0.4166,-0.3108,-0.2647,-0.2551,-0.2998,-0.3887,-0.4623,-0.5497,-0.6381,0.0,0.0,0.0,0.0,-0.5795,-0.403,0.0,0.0,0.0,0.0,0.0,0.0,0.0,0.0,0.0,0.0,0.0,0.0,-0.1732,-0.2345,-0.285,-0.3169,-0.2517,0.0,0.0,0.0,-0.3089,-0.3809,-0.44,-0.4721,-0.4692,-0.474,-0.4999,-0.5547,-0.6142,-0.7314,-0.8988,-1.1035,-1.3347,-1.5918,-1.8286,-2.0275,-2.1799,-2.0815,-1.9583,0.0,0.0,0.0,0.0,0.0,0.0,0.0,0.0,0.0,0.0,0.0,0.0,0.0,0.0,0.0,0.0,0.0,0.0,0.0,0.0,0.0,0.0,0.0,0.0,0.0,0.0,0.0,0.0,0.0,0.0,0.0,0.0,0.0,0.0,0.0,0.0,0.0,0.0,-0.2761,-0.3322,-0.3637,-0.4808,-0.5785,0.0,0.0,0.0,0.0,0.0,0.0,-1.583,-1.6362,-1.7077,-1.8111,-1.7613,-1.7242,-1.7144,-1.5542,-1.3766,-1.1861,-0.9615,-0.7498,-0.5538,-0.3942,-0.3062,-0.2733,-0.286,-0.3658,-0.485,-0.5263,-0.6174,-0.7416,-0.8003,-0.8405,-0.8571,-0.8857,-0.7543,-0.5609,0.0,0.0,0.0,0.0,0.0,0.0,0.0,0.0,0.0,0.0,0.0,-0.0157,-0.0554,0.0,-0.0671,-0.1444,-0.1354,-0.1101,0.0,0.0,-0.2321,-0.1498,-0.308,-0.3928,-0.3856,-0.3812,-0.3877,-0.4112,-0.5225,-0.66,-0.8297,-1.0255,-1.2657,-1.5386,-1.6854,-1.9194,-2.1989,-2.1849,-2.0907,-1.9251,0.0,0.0,0.0,0.0,0.0,0.0,0.0,0.0,0.0,0.0,0.0,0.0,0.0,0.0,0.0,0.0,0.0,0.0,0.0,0.0,0.0,0.0,0.0,0.0,0.0,0.0,0.0,0.0,0.0,0.0,0.0,0.0,0.0,0.0,0.0,0.0,0.0,0.0,0.0,-0.4014,-0.4685,0.0,0.0,0.0,0.0,-0.9469,-1.113,-1.2706,-1.4066,-1.4683,-1.563,-1.695,-1.6638,-1.6369,-1.6151,-1.4381,-1.256,-1.077,-0.8746,-0.6782,-0.4902,-0.4051,-0.3548,-0.3273,-0.3193,-0.3961,-0.5247,-0.5944,-0.7042,-0.8391,-0.9182,-0.9528,-0.9598,-0.9968,-0.9074,-0.7532,0.0,0.0,0.0,0.0596,0.0719,0.0727,0.0475,0.0524,0.0489,0.0277,0.0769,0.129,0.0,0.1651,0.1636,0.1746,0.2006,0.1912,0.1405,0.0,-0.0027,0.0348,-0.1503,-0.2173,-0.1362,-0.1243,-0.1457,-0.2001,-0.3286,-0.4893,-0.6831,-0.8869,-1.0887,-1.2871,-1.4805,-1.6386,-1.7716,-1.9164,-1.9343,-1.8364,-1.5346,-1.2708,0.0,0.0,0.0,0.0,0.0,0.0,0.0,0.0,0.0,0.0,0.0,0.0,0.0,0.0,0.0,0.0,0.0,0.0,0.0,0.0,0.0,0.0,0.0,0.0,0.0,0.0,0.0,0.0,0.0,0.0,0.0,0.0,0.0,0.0,0.0,0.0,0.0,-0.2216,-0.3087,0.0,-0.4711,-0.587,-0.7154,-0.8658,-1.0091,-1.1403,-1.2535,-1.3564,-1.43,-1.4642,-1.4777,-1.4822,-1.4696,-1.3271,-1.1893,-1.049,-0.8533,-0.673,-0.5119,-0.4033,-0.3454,-0.3297,-0.3341,-0.41,-0.5395,-0.6496,-0.7958,-0.9663,-1.1143,-1.1661,-1.1603,-1.2253,-1.1186,-0.9152,0.126,0.1718,0.0,0.1897,0.1809,0.1604,0.114,0.1187,0.1246,0.1209,0.2015,0.2916,0.3844,0.3876,0.4115,0.4794,0.4944,0.4843,0.4478,0.0,0.2007,0.2253,0.0251,-0.0363,0.0781,0.1051,0.0759,-0.0128,-0.1573,-0.3311,0.0,-0.7548,-0.9259,-1.0566,-1.2575,-1.3699,-1.4167,-1.5643,-1.6642,-1.7023,-1.4286,-1.1831,-0.9596,0.0,0.0,0.0,0.0,0.0,0.0,0.0,0.0,0.0,0.0,0.0,0.0,0.0,0.0,0.0,0.0,0.0,0.0,0.0,0.0,0.0,0.0,0.0,0.0,0.0,0.0,0.0,0.0,0.0,0.0,0.0,0.0,0.0,0.0,-0.0113,-0.0556,-0.0796,-0.1689,-0.2558,-0.3243,-0.4558,-0.5945,-0.7433,-0.8702,-0.9935,-1.1216,-1.2089,-1.2685,-1.3024,-1.3277,-1.3326,-1.3199,-1.2051,-1.0923,-0.9793,-0.8004,-0.642,-0.5012,-0.3934,-0.3333,-0.3111,-0.3244,-0.4035,-0.525,-0.6515,-0.8274,-1.0322,-1.2204,-1.3185,-1.369,-1.3983,-1.3012,-1.1278,0.2942,0.3583,0.3827,0.3013,0.2939,0.2641,0.1625,0.1828,0.2131,0.2246,0.3515,0.479,0.5792,0.621,0.6736,0.7561,0.7307,0.7521,0.8478,0.5229,0.3532,0.4134,0.2159,0.1501,0.2501,0.2954,0.262,0.0,0.0,0.0,0.0,0.0,0.0,0.0,0.0,0.0,0.0,-1.1622,-1.3065,-1.5176,-1.3165,-1.1085,-0.8991,0.0,0.0,0.0,0.0,0.0,0.0,0.0,0.0,0.0,0.0,0.0,0.0,0.0,0.0,0.0,0.0,0.0,0.0,0.0,0.0,0.0,0.0,0.0,0.0,0.0,0.0,0.0,0.0,0.0,0.0,0.0,0.0,0.0,0.0972,0.0976,0.0794,0.0042,-0.0608,-0.1291,-0.1886,-0.3524,-0.4913,-0.5795,-0.6895,-0.8333,-1.0107,-1.0221,-1.0843,-1.2177,-1.2176,-1.2028,-1.1789,-1.0748,-0.9727,-0.8594,-0.7183,-0.578,-0.4509,-0.3876,-0.3252,-0.2711,-0.301,-0.368,-0.4671,-0.5963,-0.7996,-1.0446,-1.2193,-1.4033,-1.5614,-1.4931,-1.4515,-1.3685,0.5072,0.5497,0.5571,0.4821,0.4612,0.4242,0.3289,0.3425,0.3764,0.3996,0.5399,0.6802,0.7846,0.8681,0.9473,1.0324,0.9873,0.9505,0.9368,0.6416,0.4169,0.3082,0.3603,0.4332,0.5221,0.5266,0.0,0.0,0.0,0.0,0.0,0.0,0.0,0.0,0.0,0.0,0.0,0.0,0.0,0.0,-1.0996,-1.0463,-0.9188,0.0,0.0,0.0,0.0,0.0,0.0,0.0,0.0,0.0,0.0,0.0,0.0,0.0,0.0,0.0,0.0,0.0,0.0,0.0,0.0,0.0,0.0,0.0,0.0,0.0,0.0,0.0,0.0,0.0,0.0,0.0,0.2939,0.283,0.199,0.192,0.1797,0.1446,0.0797,-0.0044,-0.1119,-0.2229,-0.3474,-0.4711,-0.5783,-0.6821,-0.7834,-0.8784,-0.9573,-1.0236,-1.0497,-1.0775,-1.1085,-1.0074,-0.9252,-0.8643,-0.7065,-0.5784,-0.4725,-0.3537,-0.2797,-0.2507,-0.2422,-0.2872,-0.3692,-0.4725,-0.6603,-0.9131,-1.2003,-1.4195,-1.581,-1.5941,-1.4554,-1.2314,0.6447,0.6864,0.6845,0.5939,0.5923,0.5653,0.4472,0.4743,0.5145,0.5468,0.68,0.8217,0.9484,1.0383,1.1253,1.2174,1.1089,1.0396,1.0498,0.7283,0.4546,0.2693,0.0,0.5371,0.0,0.0,0.0,0.0,0.0,0.0,0.0,0.0,0.0,0.0,0.0,0.0,0.0,0.0,0.0,0.0,0.0,0.0,-0.7909,-0.84,-0.6544,-0.3568,-0.2892,-0.1753,-0.0376,0.1018,0.0,0.0,0.0,0.0,0.0,0.0,0.0,0.0,0.0,0.0,0.0,0.0,0.0,0.0,0.0,0.0,0.0,0.0,0.0,0.0,0.0,0.0,0.0,0.0,0.383,0.3936,0.3514,0.3113,0.2768,0.2453,0.1787,0.0937,-0.0134,-0.1115,-0.2178,-0.3359,-0.4396,-0.5408,-0.6371,-0.7452,-0.8406,-0.9167,-0.9415,-0.969,-1.0127,-0.9332,-0.858,-0.7939,-0.6567,-0.5433,-0.4467,-0.335,-0.2525,-0.1944,-0.1762,-0.1927,-0.2392,-0.3197,-0.4913,-0.739,0.0,0.0,0.0,0.0,-1.5476,-1.314,0.7328,0.7772,0.7732,0.672,0.699,0.6866,0.5449,0.5799,0.6387,0.6833,0.0,0.9422,1.095,1.1728,1.2515,1.3378,1.151,1.0443,0.0,0.7414,0.0,0.2846,0.412,0.5344,0.0,0.0,0.0,0.0,0.0,0.0,0.0,0.0,0.0,0.0,0.0,0.0,0.0,0.0,0.0,0.0,0.0,0.0,-0.5732,-0.5621,-0.4409,-0.2826,-0.3216,-0.2732,-0.1669,-0.0052,0.0,0.0,0.0,0.0,0.0,0.0,0.0,0.0,0.0,0.0,0.0,0.0,0.0,0.0,0.0,0.0,0.0,0.0,0.0,0.0,0.0,0.0,0.0,0.0,0.4729,0.5132,0.5262,0.4561,0.3825,0.3252,0.2544,0.1786,0.0895,-0.0134,-0.1072,-0.1912,-0.2871,-0.3987,-0.5254,-0.6085,0.0,0.0,0.0,-0.8692,-0.8982,-0.852,-0.7791,-0.6817,-0.5875,-0.4942,-0.3926,-0.3133,-0.2257,-0.1397,-0.1138,-0.1096,-0.1163,-0.1701,-0.3297,-0.578,-0.9642,-1.2876,-1.5513,-1.7116,-1.6651,-1.5092,0.8192,0.8392,0.8367,0.8063,0.8098,0.7807,0.6771,0.6903,0.754,0.8626,1.006,1.1513,1.2815,1.3769,1.4345,1.4516,1.2496,0.9964,0.0,0.0,0.3802,0.3869,0.0,0.0,0.0,0.0,0.0,0.0,0.0,0.0,0.0,0.0,0.0,0.0,0.0,0.0,0.0,0.0,0.0,0.0,0.0,0.0,-0.3771,-0.1,-0.0825,-0.1931,-0.1393,-0.1803,-0.2553,-0.2209,-0.1157,-0.0169,-0.1201,0.0,0.0,0.0,0.0,0.0,0.0,0.0,0.0,0.0,0.0,0.0,0.0,0.0,0.0,0.0,0.0,0.0,0.0,0.0,0.0,0.5585,0.5909,0.6116,0.6409,0.6192,0.5551,0.4439,0.3382,0.2408,0.165,0.076,-0.0134,-0.1072,-0.164,-0.2443,-0.3682,-0.4363,-0.5329,-0.675,-0.7039,-0.7408,-0.7819,-0.7653,-0.718,-0.6346,-0.5431,0.0,-0.3796,-0.2951,-0.2114,-0.1359,-0.0985,-0.0736,-0.0652,-0.1094,-0.3197,-0.6477,-1.0145,-1.2711,-1.4587,-1.6459,-1.6543,-1.5607,0.8464,0.8611,0.8516,0.8259,0.8352,0.8225,0.7365,0.7559,0.8271,0.965,1.0744,1.1997,1.3631,1.4332,1.4579,1.4314,1.1975,0.0,0.0,0.4357,0.4045,0.4135,0.0,0.0,0.0,0.0,0.0,0.0,0.0,0.0,0.0,0.0,0.0,0.0,0.0,0.0,0.0,0.0,0.0,0.0,0.0,0.0,0.0139,0.2347,0.1265,-0.1292,-0.0152,0.0,-0.0376,-0.0627,-0.0797,-0.0959,-0.1338,-0.1781,-0.2655,0.0,0.0,0.0,0.0,0.0,0.0,0.0,0.0,0.0,0.0,0.0,0.0,0.0,0.0,0.08,0.19,0.0,0.4991,0.6078,0.6758,0.7256,0.7612,0.7412,0.6735,0.526,0.4164,0.3199,0.2492,0.1444,0.0563,-0.0173,-0.0997,-0.1855,-0.2811,-0.3691,-0.4711,-0.5861,-0.6381,-0.6773,-0.7044,-0.7054,-0.6613,-0.5681,-0.495,-0.4154,-0.3365,-0.2716,-0.2005,-0.1172,-0.0799,-0.0494,-0.0402,-0.1464,-0.3377,-0.5917,-0.8541,-1.1373,-1.4214,-1.5924,-1.687,-1.7305,0.8173,0.8293,0.8152,0.8063,0.8268,0.8156,0.7392,0.7734,0.861,1.0072,1.0821,1.1904,1.3677,1.4093,1.385,0.0,0.0,0.0,0.0,0.0,0.0,0.0,0.0,0.0,0.0,0.0,0.0,0.0,0.0,0.0,0.0,0.0,0.0,0.0,0.0,0.0,0.0,0.0,0.0,0.0,0.0,0.0,0.451,0.5151,0.284,-0.0626,0.0736,0.1896,0.2709,0.2154,0.0688,-0.0801,-0.0024,-0.0422,-0.1573,-0.3566,-0.4279,0.0,0.0,0.0,0.0,0.0,0.0,0.0,0.0,-0.2905,-0.204,-0.0825,0.0143,0.1094,0.2178,0.4108,0.5837,0.6592,0.747,0.8229,0.8707,0.8399,0.7662,0.6392,0.5148,0.4109,0.3369,0.2244,0.1268,0.0586,-0.0441,-0.1399,-0.2226,-0.3268,-0.4256,-0.5113,-0.5826,-0.624,-0.6298,-0.6416,-0.6019,-0.5084,-0.455,-0.3897,-0.3099,-0.2707,-0.2062,-0.12,-0.0846,-0.0651,-0.0727,-0.2327,-0.3921,-0.5531,-0.7121,-1.0127,-1.3727,-1.5276,-1.707,-1.8729,0.6982,0.6911,0.7058,0.8085,0.8011,0.7511,0.6658,0.7219,0.8237,0.9595,1.0713,1.1757,1.2827,1.3142,1.2211,0.0,0.0,0.0,0.0,0.0,0.0,0.0,0.0,0.0,0.0,0.0,0.0,0.0,0.0,0.0,0.0,0.0,0.0,0.0,0.0,0.0,0.0,0.0,0.0,0.0,0.0,0.0,0.8059,0.7757,0.4595,0.0435,0.1239,0.3157,0.5161,0.4269,0.3198,0.222,0.2319,0.1742,0.1129,0.1612,0.1489,0.2951,1.1,0.4109,-0.5117,-0.4068,-0.3757,-0.3315,0.0,-0.1935,-0.1817,-0.0087,0.0859,0.1871,0.3416,0.5263,0.6907,0.8007,0.8282,0.869,0.9688,0.9083,0.8553,0.8609,0.6752,0.5148,0.4504,0.345,0.2266,0.1046,0.0481,-0.0383,-0.1725,-0.2309,-0.2985,-0.3879,-0.4676,-0.5126,-0.5163,-0.5497,-0.5316,-0.4648,-0.4371,-0.3964,-0.3539,-0.3263,-0.2687,-0.1932,-0.1498,-0.157,-0.2058,-0.3441,-0.5102,-0.683,-0.8444,-1.039,-1.2519,-1.4277,-1.6308,-1.8346,0.5245,0.5703,0.6057,0.6536,0.6669,0.6572,0.6112,0.6596,0.7533,0.8921,0.973,1.0672,1.1971,1.1478,1.0379,0.8705,0.7706,0.6557,0.5,0.4492,0.0,0.0,0.0,0.0,0.0,0.0,0.0,0.0,0.0,0.0,0.0,0.0,0.0,0.0,0.0,0.0,0.0,0.0,0.0,0.0,0.0,0.0,0.9492,0.8823,0.7236,0.5167,0.3969,0.3933,0.0,0.0,0.4938,0.4509,0.3845,0.3634,0.3912,0.5222,0.6743,0.7328,0.4372,-0.057,-0.4824,-0.4567,-0.3085,-0.1593,-0.1359,-0.0527,0.0437,0.1313,0.2455,0.3725,0.5143,0.6708,0.7974,0.8545,0.8844,0.9152,0.9478,0.9408,0.8995,0.8127,0.7338,0.6504,0.5567,0.414,0.2818,0.1727,0.0884,-0.0146,-0.1391,-0.2021,-0.2717,-0.356,-0.444,-0.4852,-0.4768,-0.5068,-0.5017,-0.4607,-0.4041,-0.3777,-0.3775,-0.3396,-0.3078,-0.2753,-0.2802,-0.3133,-0.3779,-0.5114,-0.6667,-0.8306,-0.9707,-1.1372,-1.3221,-1.49,-1.692,-1.9132,0.3571,0.4544,0.5172,0.525,0.5582,0.5763,0.5535,0.5957,0.6758,0.8069,0.8697,0.9477,1.0628,0.9743,0.8727,0.7883,0.6941,0.6005,0.5075,0.4711,0.4402,0.0,0.0,0.0,0.0,0.0,0.0,0.0,0.0,0.0,0.0,0.0,0.0,0.0,0.0,0.0,0.0,0.0,0.0,0.0,0.0,0.0,1.1015,1.0171,0.929,0.8112,0.5473,0.4335,0.0,0.0,0.5546,0.5837,0.5042,0.5469,0.6578,0.7881,0.7774,0.5519,-0.2314,-0.4475,-0.4527,-0.4626,-0.2373,-0.0024,0.0406,0.1489,0.2562,0.3176,0.455,0.596,0.7143,0.8493,0.9383,0.9297,0.9376,0.9477,0.9483,0.9347,0.8737,0.7295,0.7072,0.6579,0.5391,0.4212,0.3142,0.2255,0.1116,0.0,-0.1142,-0.1871,-0.2596,-0.3429,-0.4184,-0.4638,-0.4796,-0.4882,-0.4904,-0.4834,-0.4271,-0.4118,-0.4346,-0.3991,-0.3772,-0.3719,-0.4184,-0.4823,-0.5587,-0.6871,-0.8385,-1.0052,-1.1439,-1.3035,-1.4768,-1.6667,-1.8278,-1.9858,0.2113,0.342,0.4378,0.4835,0.5236,0.5328,0.4812,0.5348,0.6104,0.6928,0.7785,0.8389,0.8563,0.8091,0.7432,0.6617,0.616,0.5696,0.5118,0.4887,0.464,0.0,0.0,0.0,0.0,0.0,0.0,0.0,0.0,0.0,0.0,0.0,0.0,0.0,0.0,0.0,0.0,0.0,0.0,0.0,0.0,0.0,1.3408,1.2366,1.0181,0.7267,0.4606,0.0,0.0,0.0,0.4606,0.5889,0.5941,0.7279,0.0,0.9482,0.2566,-0.5012,-0.3851,-0.4007,-0.4354,-0.371,-0.1764,0.0923,0.4474,0.4287,0.3823,0.5443,0.7055,0.8463,0.9334,1.0595,1.1269,1.0559,0.9874,0.9599,1.008,0.8882,0.7644,0.6817,0.5752,0.4593,0.3316,0.3361,0.3184,0.2435,0.1336,0.0213,-0.0843,-0.1676,-0.2465,-0.3273,-0.3582,-0.4223,-0.528,-0.4976,-0.5017,-0.5479,-0.5385,-0.5392,-0.543,-0.5228,-0.5066,-0.4976,-0.5566,-0.6465,-0.7617,-0.8759,-1.0278,-1.2114,-1.4023,-1.5525,-1.6952,-1.9714,-2.0357,-2.0154,0.1042,0.3206,0.4976,0.5299,0.5592,0.5729,0.5628,0.5939,0.641,0.6917,0.7669,0.0,0.0,0.0,0.0,0.0,0.5641,0.5308,0.4864,0.5029,0.5039,0.0,0.0,0.0,0.0,0.0,0.0,0.0,0.0,0.0,0.0,0.0,0.0,0.0,0.0,0.0,0.0,0.0,0.0,0.0,0.0,0.0,1.4937,1.3054,1.0905,0.8528,0.0,0.0,0.0,0.0,0.4426,0.5065,0.588,0.0,0.0,0.3378,-0.0444,-0.3096,-0.1961,-0.3042,-0.4086,-0.2349,0.0531,0.3529,0.5834,0.6509,0.7012,0.8236,0.9796,1.1235,1.2149,1.2413,1.2114,1.078,0.9716,0.888,0.8296,0.732,0.607,0.4488,0.3731,0.2769,0.1328,0.1685,0.2001,0.1951,0.1207,0.0071,-0.1536,-0.1795,-0.2562,-0.3987,-0.4245,-0.483,-0.5819,-0.5759,-0.6079,-0.6759,-0.6883,-0.677,-0.6514,-0.6964,-0.7172,-0.7185,-0.7945,-0.9086,-1.046,-1.1395,-1.3121,-1.5293,-1.634,-1.7662,-1.9241,-2.1557,-2.2553,-2.3024,0.0766,0.3437,0.5613,0.6194,0.6453,0.0,0.0,0.0,0.0,0.0,0.0,0.0,0.0,0.0,0.0,0.0,0.0,0.4978,0.4696,0.5132,0.5317,0.0,0.0,0.0,0.0,0.0,0.0,0.0,0.0,0.0,0.0,0.0,0.0,0.0,0.0,0.0,0.0,0.0,0.0,0.0,0.0,0.0,1.521,1.2404,0.9787,0.0,0.0,0.0,0.0,0.3086,0.3208,0.3417,0.4464,0.5031,0.0,0.038,-0.0911,-0.1045,-0.1474,-0.235,-0.2198,0.1716,0.5526,0.8258,0.7975,0.9356,1.0765,1.1007,1.2503,1.3818,1.4014,1.3653,1.2663,1.0592,0.922,0.8046,0.693,0.5693,0.414,0.2121,0.1048,-0.0125,-0.1596,-0.142,-0.0647,0.0721,0.0,-0.0999,-0.2234,-0.2489,-0.3237,-0.4651,-0.5178,-0.5918,-0.6878,-0.7169,-0.7665,-0.8355,-0.8503,-0.839,-0.8126,-0.8736,-0.9223,-0.9625,-1.039,-1.1628,-1.3163,-1.3923,-1.5568,-1.7675,-1.8549,-1.9948,-2.1744,-2.3456,-2.4838,-2.6003,0.1248,0.4101,0.6279,0.0,0.0,0.0,0.0,0.0,0.0,0.0,0.0,0.0,0.0,0.0,0.0,0.0,0.0,0.0,0.4561,0.0,0.0,0.0,0.579,0.6158,0.6213,0.6548,0.7796,0.0,0.0,0.0,0.0,0.0,0.0,0.0,0.0,0.0,0.0,0.0,0.0,0.0,0.0,0.0,1.4249,1.052,0.0,0.0,0.0,0.0,0.0,0.1037,0.1036,0.1174,0.1895,0.1649,0.1024,0.0675,0.0808,0.0519,-0.2231,-0.1739,0.1127,0.7871,1.2321,1.4199,1.0866,1.2603,1.4642,1.3668,1.5038,1.6096,1.5024,1.4287,1.2882,1.0071,0.8437,0.7147,0.6031,0.4075,0.1977,-0.0166,-0.2142,-0.3855,-0.5163,-0.5627,-0.4532,-0.1388,-0.2228,-0.2895,-0.293,-0.3639,-0.4417,-0.5256,-0.6307,-0.735,-0.8381,-0.9098,-0.9684,-1.0182,-1.0198,-1.0184,-1.02,-1.0487,-1.1201,-1.2254,-1.2786,-1.3967,-1.5588,-1.6325,-1.7648,-1.9303,-2.0602,-2.2374,-2.4276,-2.5398,-2.704,-2.8731,0.0,0.0,0.0,0.0,0.0,0.0,0.0,0.0,0.0,0.0,0.0,0.0,0.0,0.0,0.0,0.0,0.0,0.0,0.3805,0.0,0.0,0.0,0.0,0.0,0.6559,0.6958,0.0,0.0,0.0,0.0,0.0,0.0,0.0,0.0,0.0,0.0,0.0,0.0,0.0,0.0,0.0,0.0,1.2061,0.0,0.0,0.0,0.0,0.0,0.0,-0.0116,-0.0286,-0.05,0.0527,0.0993,0.1143,0.1266,0.1283,0.1091,0.0419,0.1334,0.3739,0.889,1.0408,1.1038,1.2548,1.3357,1.4174,1.5498,1.6187,1.6572,1.6621,1.4433,1.2005,1.0055,0.8041,0.6088,0.4312,0.2359,0.0326,-0.1767,-0.381,-0.5481,-0.6511,-0.7283,-0.7171,-0.5824,-0.4558,-0.4068,-0.4567,-0.4594,-0.5169,-0.6414,-0.7211,-0.8245,-0.9545,-1.0738,-1.1325,-1.138,-1.1359,-1.1394,-1.1463,-1.1929,-1.275,-1.3852,-1.4327,-1.5602,-1.7409,-1.8338,-1.9809,-2.1572,-2.2601,-2.3733,-2.4974,-2.6553,-2.7485,-2.8152,0.0,0.0,0.0,0.0,0.0,0.0,0.0,0.0,0.0,0.0,0.0,0.0,0.0,0.0,0.0,0.0,0.0,0.0,0.0,0.0,0.0,0.0,0.0,0.0,0.0,0.0,0.0,0.0,0.0,0.0,0.0,0.0,0.0,0.0,0.0,0.0,0.0,0.0,0.0,0.0,0.0,0.0,0.0,0.0,0.0,0.0,0.0,0.0,0.0,-0.0943,-0.0982,-0.0997,-0.0163,0.0698,0.1451,0.176,0.1769,0.1683,0.167,0.2675,0.4725,0.8886,1.0183,1.1008,1.3104,1.4201,1.5047,1.6079,1.6738,1.6953,1.6419,1.4144,1.1682,0.9675,0.7772,0.5843,0.3854,0.2055,-0.0038,-0.2681,-0.4627,-0.6366,-0.7956,-0.86,-0.8761,-0.8343,-0.685,-0.6072,-0.633,-0.6234,-0.6571,-0.7487,-0.8651,-1.0016,-1.1621,-1.2371,-1.2729,-1.268,-1.2681,-1.2736,-1.2858,-1.3646,-1.4577,-1.5578,-1.6349,-1.7731,-1.9444,-2.0079,-2.1416,-2.3103,-2.3659,-2.461,-2.5808,-2.6836,-2.7465,-2.8038,0.0,0.0,0.0,0.0,0.0,0.0,0.0,0.0,0.0,0.5764,0.5932,0.5848,0.5558,0.456,0.0,0.0,0.0,0.0,0.0,0.0,0.0,0.0,0.0,0.0,0.0,0.0,0.0,0.0,0.0,0.0,0.0,0.0,0.0,0.0,0.0,0.0,0.0,0.0,0.0,0.0,0.0,0.0,0.0,0.0,0.0,0.0,0.0,0.0,0.0,0.0,-0.0918,-0.0691,-0.0291,0.0747,0.1858,0.2205,0.2362,0.2365,0.2291,0.3222,0.5046,0.8513,1.0732,1.2347,1.3338,1.4992,1.625,1.6062,1.6855,1.7102,1.5453,1.3641,1.1622,0.9275,0.773,0.6106,0.4086,0.2421,0.0186,-0.3103,-0.4975,-0.6902,-0.9186,-0.9568,-0.9662,-0.9594,-0.8876,-0.831,-0.7958,-0.7982,-0.8231,-0.8715,-1.0301,-1.2028,-1.3797,-1.3799,-1.3827,-1.3899,-1.3894,-1.4015,-1.4288,-1.5295,-1.6318,-1.7312,-1.83,-1.9696,-2.1292,-2.1533,-2.2578,-2.407,-2.4232,-2.5197,-2.6494,-2.6657,-2.7196,-2.7981,0.0,0.0,0.0,0.0,0.0,0.0,0.0,0.0,0.0,0.0,0.0,0.0,0.0,0.0,0.0,0.0,0.0,0.0,0.0,0.0,0.0,0.0,0.0,0.0,0.0,0.3825,0.423,0.0,0.0,0.0,0.0,0.0,0.0,0.0,0.0,0.0,0.0,0.0,0.0,0.0,0.0,0.0,0.0,0.0,0.0,0.0,0.0,0.0,0.0,0.0,0.0525,0.0383,0.0614,0.1445,0.2408,0.2711,0.3101,0.3475,0.3677,0.474,0.6447,0.9118,1.0387,1.1771,1.4816,1.539,1.552,1.6449,1.6602,1.633,1.5569,1.347,1.1302,0.9648,0.83,0.6592,0.4141,0.2131,-0.0161,-0.3078,-0.5555,-0.7683,-0.9323,-0.9849,-1.0099,-1.0078,-0.9886,-0.9462,-0.8749,-0.8606,-0.9318,-1.0985,-1.1654,-1.2789,-1.4426,-1.4324,-1.4307,-1.4391,-1.4382,-1.4802,-1.5578,-1.5945,-1.704,-1.8659,-1.8858,-1.9954,-2.1682,-2.2481,-2.3419,-2.4395,-2.5077,-2.5526,-2.5865,-2.6592,-2.6935,-2.7148,0.0,0.0,0.0,0.0,0.0,0.0,0.0,0.0,0.0,0.0,-0.1848,-0.0466,0.0,0.0,0.0,0.0,0.0,0.0,0.0,0.0,0.0,0.0,0.0,0.0,0.2674,0.304,0.2946,0.2382,0.0,0.0,0.2019,0.3237,0.4289,0.5112,0.0,0.0,0.0,0.0,0.0,0.0,0.0,0.0,0.0,0.0,0.0,0.0,0.0,0.0,0.0,0.0,0.2842,0.331,0.2584,0.2947,0.3761,0.3964,0.46,0.5238,0.5418,0.6766,0.8545,1.0294,1.1114,1.2134,1.4601,1.4486,1.4031,1.4635,1.5495,1.5879,1.4992,1.363,1.2272,1.118,1.0055,0.8498,0.6114,0.4165,0.1696,-0.1782,-0.4475,-0.6827,-0.8783,-0.971,-1.0168,-1.0058,-1.0055,-0.9874,-0.9487,-0.9411,-1.0217,-1.2053,-1.2309,-1.3204,-1.4846,-1.4769,-1.4743,-1.4803,-1.4847,-1.5337,-1.6234,-1.6811,-1.7823,-1.9133,-1.9549,-2.072,-2.2361,-2.2841,-2.38,-2.5014,-2.5449,-2.559,-2.5655,-2.6069,-2.6193,-2.6295,0.0,0.0,0.0,0.0,0.0,0.0,0.0,-0.0724,-0.2663,-0.5013,-0.5021,-0.3964,-0.177,-0.1271,0.0,0.0,0.0,0.0,0.0,0.0,0.0,0.0,0.0,0.0,0.1739,0.0,0.0,0.0546,0.0868,0.0,0.0,0.0,0.0,0.0,0.1357,0.1134,0.0844,0.0,0.0,0.0,0.0,-0.134,0.0,0.0,0.0,0.0,0.0,0.0,0.0,0.0,0.4928,0.6252,0.5043,0.4877,0.5137,0.5214,0.5861,0.6623,0.7196,0.8502,1.0015,1.1223,1.1906,1.2678,1.4229,1.3627,1.2754,1.2811,1.4297,1.5301,1.4389,1.3808,1.3281,1.26,1.1559,1.0116,0.8067,0.6054,0.3364,-0.0441,-0.3365,-0.5937,-0.8157,-0.9461,-1.0089,-0.9892,-1.007,-1.0149,-1.0012,-1.0179,-1.099,-1.2541,-1.2777,-1.3597,-1.5119,-1.5061,-1.5067,-1.5114,-1.5199,-1.5774,-1.6796,-1.7538,-1.8426,-1.9463,-2.0091,-2.1305,-2.2857,-2.2931,-2.3969,-2.5508,-2.557,-2.5605,-2.5615,-2.5625,-2.5615,-2.5712,0.0,0.0,0.0,0.0,0.0,0.0,0.0,-0.2373,-0.4143,-0.5778,-0.6804,-0.6817,-0.5377,-0.3493,0.0,0.0,0.0,0.0,0.0,0.0,0.0,0.0,0.0,0.0,0.0,0.0,0.0,0.0064,-0.0317,0.0,0.0,0.0,0.0,0.0,0.0,-0.0939,-0.2276,-0.3497,0.0,0.0,0.0,0.0,0.0,0.0,0.0,0.0,0.0,0.4418,0.4016,0.4637,0.6073,0.7643,0.7618,0.7008,0.6187,0.5817,0.5962,0.6693,0.8852,0.9309,0.9563,1.1193,1.2031,1.2946,1.4728,1.3783,1.2538,1.262,1.3457,1.422,1.4286,1.3816,1.3296,1.2905,1.1547,1.0049,0.8616,0.5868,0.2961,0.0142,-0.3414,-0.6244,-0.7814,-0.9202,-0.996,-0.9816,-1.0445,-1.0578,-1.003,-1.0748,-1.1625,-1.2577,-1.3306,-1.4176,-1.5181,-1.5173,-1.517,-1.519,-1.5257,-1.6127,-1.7676,-1.7717,-1.8625,-2.0198,-2.0217,-2.117,-2.2711,-2.2784,-2.3876,-2.5502,-2.5564,-2.5638,-2.5683,-2.5681,-2.5698,-2.5699,0.0,0.0,0.0,0.0,0.0,0.0,0.0,-0.291,-0.4686,-0.7013,-0.7225,-0.7352,-0.7874,-0.6511,-0.4841,0.0,0.0,0.0,0.0,0.0,0.0,0.0,0.0,0.0,0.0,0.0,-0.0469,-0.0897,-0.101,0.0,0.0,0.0,0.0,0.0,0.0,-0.2648,-0.4091,-0.5957,0.0,0.0,0.0,0.0,0.0,0.0,0.0,0.0,0.0,0.0,0.3569,0.5415,0.6604,0.7296,0.7438,0.7848,0.8354,0.841,0.8274,0.8423,0.9894,1.0584,1.1221,1.2603,1.35,1.4265,1.5027,1.4949,1.4705,1.4665,1.461,1.4454,1.3971,1.3443,1.2943,1.2501,1.1535,1.0139,0.8009,0.5656,0.3008,-0.0035,-0.3711,-0.6352,-0.7207,-0.8836,-0.9848,-0.9906,-1.0075,-1.0326,-1.0649,-1.1373,-1.2164,-1.3001,-1.341,-1.4047,-1.4945,-1.5001,-1.5266,-1.5741,-1.5811,-1.6702,-1.8278,-1.8294,-1.8915,-2.0002,-1.9974,-2.0916,-2.2448,-2.2526,-2.3659,-2.5335,-2.5434,-2.5546,-2.5637,-2.5691,-2.5697,-2.5697,0.0,0.0,0.0,0.0,0.0,0.0,-0.2097,-0.3394,-0.5043,-0.7207,-0.7318,-0.7657,-0.8851,-0.8455,-0.7372,-0.557,0.0,0.0,0.0,0.0,0.0,0.0,0.0,0.0,0.0,0.0,-0.1385,-0.1789,-0.1769,-0.1582,0.0,0.0,-0.0337,-0.1222,0.0,0.0,0.0,0.0,0.0,0.0,0.0,0.0,0.0,0.0,0.0,0.0,0.0,0.0,0.0,0.0,0.0,0.6467,0.6619,0.0,0.0,1.1009,1.1323,1.161,1.2171,1.3236,1.409,1.3759,1.4859,1.5948,1.5691,1.5913,1.6041,1.5461,1.4808,1.4011,1.295,1.2274,1.1838,0.0,1.062,0.9189,0.7482,0.4935,0.2124,-0.097,-0.4633,-0.7065,-0.7462,-0.8757,-0.9618,-0.9731,-0.9924,-1.0354,-1.1059,-1.1862,-1.256,-1.3105,-1.3495,-1.3988,-1.4596,-1.4933,-1.5271,-1.5593,-1.6158,-1.7018,-1.8136,-1.8399,-1.8941,-1.9691,-1.9705,-2.0672,-2.2233,-2.2306,-2.3441,-2.5122,-2.5264,-2.5386,-2.5512,-2.5585,-2.5632,-2.5704,0.0,0.0,0.0,0.0,0.0,0.0,0.0,-0.4057,-0.5345,-0.6037,-0.727,-0.8063,-0.8027,-0.8781,-0.9192,-0.897,0.0,0.0,0.0,0.0,0.0,0.0,0.0,0.0,0.0,0.0,0.0,0.0,-0.2683,-0.274,-0.2648,-0.1654,-0.149,-0.2112,0.0,0.0,0.0,0.0,0.0,0.0,0.0,0.0,0.0,0.0,0.0,0.0,0.0,0.0,0.0,0.0,0.0,0.0,0.0,0.8296,1.1569,0.0,1.4926,1.6381,1.6186,1.7558,1.8124,1.4349,1.5808,1.7876,1.6827,1.6394,1.5741,1.4147,1.3254,1.2339,1.1058,1.0069,0.972,1.0584,0.8485,0.6873,0.7251,0.3565,-0.0145,-0.2755,-0.6328,-0.8649,-0.8851,-0.9149,-0.9251,-0.9107,-1.0211,-1.0949,-1.1098,-1.2187,-1.2755,-1.2716,-1.3672,-1.4174,-1.4119,-1.5098,-1.5197,-1.4448,-1.611,-1.6947,-1.7046,-1.7773,-1.8573,-1.9411,-1.9481,-2.0455,-2.2006,-2.2149,-2.328,-2.4929,-2.505,-2.5197,-2.5318,-2.5381,-2.549,-2.5721,0.0,0.0,0.0,0.0,0.0,0.0,0.0,-0.3981,-0.5006,-0.6635,-0.7258,-0.7982,-0.9108,-0.9882,-1.0278,-1.0158,0.0,0.0,0.0,0.0,0.0,0.0,0.0,0.0,0.0,0.0,0.0,0.0,0.0,0.0,-0.2966,-0.2331,-0.215,-0.2402,-0.3064,-0.3973,0.0,0.0,0.0,0.0,0.0,0.0,-0.7431,0.0,0.0,0.0,0.0,0.0,0.0,0.0,0.0,0.0,0.0,0.0,0.0,1.0376,1.4317,1.7723,1.7029,1.7983,1.8469,1.529,1.7606,1.9957,1.7277,1.6843,1.6374,1.4011,1.2912,1.1835,1.0096,0.8559,0.7073,0.5616,0.4238,0.2677,0.0734,-0.108,-0.2919,-0.4858,-0.6765,-0.8133,-0.8705,-0.8624,-0.8682,-0.9,-0.9513,-1.0157,-1.0915,-1.1444,-1.203,-1.2739,-1.3252,-1.3499,-1.3494,-1.4453,-1.5076,-1.5437,-1.6595,-1.7498,-1.8122,-1.8896,-1.9417,-1.9723,-2.0336,-2.1261,-2.2355,-2.2591,-2.3775,-2.5402,-2.4993,-2.5659,-2.6801,-2.6333,-2.6605,-2.7288,0.0,0.0,0.0,0.0,0.0,0.0,0.0,-0.4489,-0.5539,-0.6975,-0.758,-0.8357,-0.961,-1.0398,-1.0801,-1.0729,0.0,0.0,0.0,0.0,0.0,0.0,0.0,0.0,0.0,0.0,0.0,0.0,0.0,0.0,0.0,0.0,0.0,-0.2827,-0.3293,-0.3592,0.0,0.0,0.0,0.0,0.0,0.0,-0.6454,0.0,0.0,0.0,0.0,0.0,0.0,0.0,0.0,0.0,0.0,0.0,0.0,0.0,1.1566,1.5077,1.7085,1.6659,1.5755,1.6127,1.7757,1.8665,1.6403,1.5991,1.5371,1.276,1.1419,1.0085,0.7983,0.6426,0.4844,0.3014,0.152,-0.0051,-0.1914,-0.3695,-0.5529,-0.7493,-0.8144,-0.8638,-0.9167,-0.8651,-0.8458,-0.8901,-0.9259,-0.976,-1.0489,-1.0814,-1.1291,-1.2025,-1.2533,-1.3053,-1.3612,-1.4381,-1.5041,-1.5607,-1.6887,-1.7648,-1.7969,-1.9079,-1.9594,-1.965,-2.0611,-2.1536,0.0,-2.2982,-2.4114,-2.5505,-2.5476,-2.6264,-2.7371,-2.7,-2.7308,-2.7942,0.0,0.0,0.0,0.0,0.0,0.0,0.0,0.0,0.0,0.0,-0.8143,-0.9078,-0.9687,-1.0458,-1.0897,0.0,0.0,0.0,0.0,0.0,0.0,0.0,0.0,0.0,0.0,0.0,0.0,0.0,-0.5494,-0.5412,-0.5154,0.0,0.0,0.0,-0.3249,0.0,0.0,0.0,0.0,0.0,-0.3535,-0.3587,0.0,0.0,0.0,0.0,0.0,0.0,0.0,0.0,0.0,0.0,0.0,0.0,0.0,0.0,0.0,0.0,0.0,1.3732,1.0849,1.6278,1.6251,1.4776,1.4349,1.4027,0.0,1.0656,0.9108,0.7463,0.5065,0.3838,0.2908,0.2009,-0.0197,-0.182,-0.188,-0.4904,-0.7987,-1.0359,-1.0161,-0.9871,-1.0013,-0.9029,-0.8515,-0.8754,-0.9315,-0.971,-0.9854,-1.0272,-1.0621,-1.0851,-1.1615,-1.2706,-1.4154,-1.4658,-1.4983,-1.5152,-1.6892,-1.7439,-1.6965,-1.8528,-1.9304,-1.948,-2.0547,-2.1476,-2.2331,-2.3343,-2.4353,-2.5363,-2.6289,-2.6916,-2.7281,-2.7494,-2.7698,-2.8018,0.0,0.0,0.0,0.0,0.0,0.0,0.0,0.0,0.0,0.0,0.0,-0.9389,-1.0134,-1.0831,0.0,0.0,0.0,0.0,0.0,0.0,0.0,0.0,0.0,0.0,0.0,0.0,0.0,-0.6584,-0.6164,-0.5907,-0.5773,-0.5177,0.0,0.0,0.0,0.0,0.0,0.0,0.0,0.0,-0.0753,-0.1237,0.0,0.0,0.0,0.0,-0.3431,-0.3163,0.0,0.0,0.0,0.0,0.0,0.0,0.0,0.0,0.619,0.8606,1.0011,0.0,0.8743,1.1481,1.2523,1.2679,0.0,1.2031,1.1649,0.9275,0.7828,0.6136,0.3333,0.1958,0.0254,-0.2829,-0.4702,-0.6211,-0.7465,-0.9007,-1.0273,-1.0974,-1.0461,-0.9826,-0.9319,-0.8774,-0.8466,-0.8426,-0.8887,-0.9244,-0.9434,-0.9698,-1.0295,-1.1296,-1.1309,-1.1757,-1.2775,-1.3646,-1.4481,-1.5254,-1.6458,-1.7363,-1.7972,-1.8967,-1.9813,-2.0584,-2.1661,-2.2323,-2.2743,-2.3837,-2.4915,-2.5914,-2.6209,-2.7401,-2.8877,-2.8366,-2.8768,-2.9674,0.0,0.0,0.0,0.0,0.0,0.0,0.0,0.0,0.0,0.0,0.0,0.0,0.0,0.0,0.0,0.0,0.0,0.0,0.0,0.0,0.0,0.0,0.0,0.0,0.0,0.0,0.0,0.0,0.0,-0.6394,0.0,0.0,0.0,0.0,0.0,0.0,0.0,0.0,0.0,0.0,0.0295,0.0,0.0,0.0,0.0,0.0,-0.2589,-0.2562,0.0,-0.1974,-0.1272,-0.0479,0.0,0.0,0.0,0.0,0.6223,0.8392,0.779,0.7254,0.7491,1.0157,1.065,1.0449,1.0212,0.9896,0.9018,0.6838,0.5723,0.4362,0.1833,0.0577,-0.1161,-0.4475,-0.6316,-0.8019,-1.0014,-1.0703,-1.0937,-1.0802,-1.0219,-0.9678,-0.9268,-0.8849,-0.8605,-0.8659,-0.8905,-0.9168,-0.943,-0.961,-1.0147,-1.1131,-1.1131,-1.1788,-1.3151,-1.3677,-1.446,-1.553,-1.6604,-1.7438,-1.8071,-1.9344,-2.02,-2.0726,-2.1821,-2.2463,-2.2824,-2.4252,-2.5268,-2.6063,-2.6953,-2.8324,-2.9811,-2.9569,-3.0186,-3.1187,0.0,0.0,0.0,0.0,0.0,0.0,0.0,0.0,0.0,0.0,0.0,0.0,0.0,0.0,0.0,0.0,0.0,0.0,0.0,0.0,0.0,0.0,0.0,0.0,0.0,0.0,0.0,0.0,0.0,0.0,0.0,0.0,0.0,0.0,0.0,0.0,0.0,0.0,0.0,0.1147,0.0496,0.0,0.0,0.0,0.0,0.0,0.0,0.0,0.0,-0.1707,-0.1148,-0.083,-0.0799,0.0,0.0,0.0,0.0,0.0,0.6496,0.5692,0.612,0.9821,0.9376,0.8116,0.8446,0.0,0.5942,0.4114,0.3376,0.2401,0.0321,-0.0729,-0.2159,-0.4806,-0.6843,-0.8902,-1.1192,-1.1429,-1.1194,-1.0765,-1.0282,-0.9911,-0.981,-0.9292,-0.9024,-0.9243,-0.9223,-0.9351,-0.9627,-0.9836,-1.0251,-1.0911,-1.1226,-1.2266,-1.4063,-1.4044,-1.4645,-1.5874,-1.6901,-1.7564,-1.799,-1.9546,-2.0351,-2.054,-2.1587,-2.2293,-2.287,-2.4497,-2.5462,-2.6116,-2.799,-2.9325,-3.0262,-3.0754,-3.1503,-3.2317,0.0,0.0,0.0,0.0,0.0,0.0,0.0,0.0,0.0,0.0,0.0,0.0,0.0,0.0,0.0,0.0,0.0,0.0,0.0,0.0,0.0,0.0,0.0,0.0,0.0,0.0,0.0,0.0,0.0,0.0,-0.7511,-0.6694,-0.5026,0.0,0.0,0.0,0.0,0.0,0.1093,0.0716,0.0842,0.0,0.0,0.0,0.0,0.0,0.0,0.0,0.0,-0.2469,-0.1931,-0.1415,-0.1644,0.0,0.0,0.0,0.0,0.0,0.1633,0.1308,0.2732,0.6747,0.6813,0.5726,0.5194,0.4316,0.3337,0.228,0.1744,0.0724,-0.1685,-0.2672,-0.391,-0.6376,-0.8804,-1.1096,-1.3107,-1.3128,-1.2852,-1.2614,-1.226,-1.1818,-1.1264,-1.0505,-1.0032,-0.9961,-0.9834,-0.9782,-0.9775,-1.026,-1.0828,-1.1372,-1.1724,-1.2399,-1.3441,-1.3632,-1.455,-1.6147,-1.6607,-1.7577,-1.8978,-1.9436,-2.0099,-2.0942,-2.1442,-2.2291,-2.3379,-2.4551,-2.5638,-2.6755,-2.8566,-2.961,-3.0241,-3.1182,-3.1803,-3.2257,0.0,0.0,0.0,0.0,0.0,0.0,0.0,0.0,0.0,0.0,0.0,0.0,0.0,0.0,0.0,0.0,0.0,0.0,0.0,0.0,0.0,0.0,0.0,0.0,0.0,0.0,0.0,0.0,0.0,-0.9468,-0.9177,-0.8014,-0.6531,-0.4775,0.0,0.0,0.0,0.0,-0.0712,-0.066,0.0,0.0,0.0,0.0,0.0,0.0,0.0,0.0,0.0,0.0,-0.1781,-0.1484,-0.1393,0.0,0.0,0.0,0.0,0.0,0.1503,0.1007,0.1139,0.3062,0.2566,0.1927,0.3122,0.1807,0.0243,-0.0128,-0.0385,-0.1127,-0.292,-0.38,-0.5162,-0.7949,-1.0187,-1.2084,-1.3441,-1.3257,-1.2954,-1.2894,-1.2303,-1.1737,-1.1265,-1.0564,-1.0279,-1.0552,-1.0232,-1.0225,-1.0731,-1.1011,-1.1429,-1.2036,-1.2693,-1.3266,-1.3788,-1.46,-1.5384,-1.6114,-1.7205,-1.817,-1.9004,-2.0162,-2.0949,-2.1483,-2.2394,-2.3202,-2.3975,-2.5129,-2.6243,-2.7384,-2.8877,-3.0225,-3.1433,-3.2667,-3.3243,-3.3534,0.0,0.0,0.0,0.0,0.0,0.0,0.0,0.0,0.0,0.0,0.0,0.0,0.0,0.0,0.0,0.0,0.0,0.0,0.0,0.0,0.0,0.0,0.0,0.0,0.0,0.0,0.0,-1.068,-1.0754,-1.0633,-1.0372,-0.916,-0.8156,0.0,0.0,0.0,0.0,0.0,-0.3313,-0.2663,0.0,0.0,0.0,0.0,0.0,0.0,0.0,0.0,0.0,0.0,0.0,0.0,0.0,0.0,0.0,-0.0451,-0.021,-0.01,0.0684,-0.0034,-0.1004,-0.1015,-0.1521,-0.1451,0.0667,-0.0725,-0.2499,-0.2631,-0.2694,-0.3079,-0.4364,-0.5407,-0.6969,-0.9848,-1.1532,-1.2797,-1.374,-1.3475,-1.3103,-1.2955,-1.2289,-1.1736,-1.1371,-1.0813,-1.0682,-1.1255,-1.0852,-1.0929,-1.1718,-1.183,-1.222,-1.2878,-1.3653,-1.4232,-1.4591,-1.5922,-1.6617,-1.6621,-1.8071,-1.8986,-1.9486,-2.108,-2.1902,-2.2093,-2.3256,-2.4066,-2.4654,-2.587,-2.6983,-2.8099,-2.9483,-3.1119,-3.283,-3.3883,-3.4386,-3.462,0.0,0.0,0.0,0.0,0.0,0.0,0.0,0.0,0.0,0.0,0.0,0.0,0.0,0.0,0.0,0.0,0.0,0.0,0.0,0.0,0.0,0.0,0.0,0.0,0.0,-0.9783,-0.9906,-1.0067,-1.0237,-1.0366,-1.0388,-0.979,-0.9426,-0.9276,0.0,0.0,0.0,0.0,-0.6529,-0.5387,-0.4978,0.0,0.0,0.0,0.0,0.0,0.0,0.0,0.0,0.0,0.0,0.0,0.0,0.0,-0.2302,-0.2143,-0.2321,-0.2839,-0.4105,-0.4802,-0.5236,-0.5467,-0.435,-0.3166,-0.316,-0.3659,-0.4332,-0.5088,-0.4981,-0.5231,-0.6684,-0.8316,-1.0135,-1.2309,-1.3031,-1.3736,-1.49,-1.4777,-1.4274,-1.3434,-1.3299,-1.3022,-1.2437,-1.2005,-1.187,-1.2103,-1.2053,-1.2098,-1.2237,-1.2789,-1.337,-1.4067,-1.4443,-1.498,-1.5665,-1.7276,-1.8152,-1.8432,-1.891,-1.9897,-2.1312,-2.1973,-2.2419,-2.2738,-2.3418,-2.4365,-2.5494,-2.6629,-2.7736,-2.8917,-3.0856,-3.2536,-3.388,-3.413,-3.434,-3.463,0.0,0.0,0.0,0.0,0.0,0.0,0.0,0.0,0.0,0.0,0.0,0.0,0.0,0.0,0.0,0.0,0.0,0.0,0.0,0.0,0.0,0.0,0.0,-1.033,-1.057,-1.0319,-1.0591,-1.1427,-1.2341,-1.2984,-1.3371,-1.2873,0.0,0.0,0.0,0.0,0.0,0.0,0.0,-0.7782,-0.7336,-0.6892,0.0,0.0,0.0,0.0,0.0,0.0,0.0,0.0,-0.379,-0.349,-0.4157,-0.4211,-0.3882,-0.3189,-0.3717,-0.4508,-0.4416,-0.6066,-0.7842,-0.7868,-0.8395,-0.8267,-0.5833,-0.6319,-0.7394,-0.7777,-0.7092,-0.6815,-0.8129,-0.9816,-1.1279,-1.22,-1.3289,-1.4299,-1.5107,-1.492,-1.4602,-1.4261,-1.3634,-1.316,-1.3069,-1.2384,-1.2423,-1.3552,-1.3318,-1.3555,-1.4546,-1.4761,-1.502,-1.5303,-1.5858,-1.6302,-1.6668,-1.8159,-1.9221,-1.9888,-2.0076,-2.0659,-2.1535,-2.2467,-2.3141,-2.3533,-2.4639,-2.5775,-2.6858,-2.762,-2.8826,-3.039,-3.2158,-3.3295,-3.402,-3.471,-3.4977,-3.5187,0.0,0.0,0.0,0.0,0.0,0.0,0.0,0.0,0.0,0.0,0.0,0.0,0.0,0.0,0.0,0.0,0.0,0.0,0.0,0.0,0.0,0.0,0.0,-1.1412,-1.1453,-1.0832,-1.1127,-1.2421,-1.3761,-1.4605,-1.497,0.0,0.0,0.0,0.0,0.0,0.0,0.0,0.0,0.0,-0.962,-0.9218,0.0,0.0,0.0,0.0,0.0,0.0,0.0,0.0,-0.4808,-0.4491,-0.5037,-0.5172,-0.5044,-0.4433,-0.4972,-0.563,-0.4918,-0.7011,-0.9349,-0.9217,-1.1016,-1.207,-0.9251,-0.9269,-0.9881,-0.9865,-0.9105,-0.8779,-0.9871,-1.1217,-1.2293,-1.2751,-1.398,-1.495,-1.5232,-1.5097,-1.4845,-1.4565,-1.3753,-1.3442,-1.385,-1.321,-1.3395,-1.4852,-1.4703,-1.5044,-1.6131,-1.6244,-1.6327,-1.6482,-1.7259,-1.7751,-1.8023,-1.9456,-2.0513,-2.1238,-2.1784,-2.2186,-2.2592,-2.3416,-2.4273,-2.5144,-2.604,-2.7061,-2.8125,-2.8819,-3.0173,-3.1845,-3.3051,-3.3835,-3.4418,-3.5121,-3.5569,-3.5936,0.0,0.0,0.0,0.0,0.0,0.0,0.0,0.0,0.0,0.0,0.0,0.0,0.0,0.0,0.0,0.0,0.0,0.0,0.0,0.0,0.0,0.0,0.0,-1.2584,-1.2245,-1.1123,-1.1274,-1.2702,-1.3956,-1.4567,-1.4517,-1.4669,0.0,0.0,0.0,0.0,0.0,0.0,0.0,0.0,-1.1851,-1.1561,-1.12,0.0,0.0,0.0,0.0,0.0,0.0,0.0,-0.6072,-0.5805,-0.6195,0.0,0.0,-0.6001,-0.6176,-0.6238,-0.63,-0.8045,-0.9796,-0.9663,-1.1781,-1.3861,-1.3653,-1.2568,-1.1521,-1.118,-1.1007,-1.1195,-1.2041,-1.271,-1.3436,-1.4442,-1.5356,-1.5815,-1.5472,-1.5472,-1.518,-1.4217,-1.3833,-1.4013,-1.4929,-1.4732,-1.4941,-1.5946,-1.6275,-1.6466,-1.6614,-1.6872,-1.7227,-1.7622,-1.8544,-1.9267,-1.981,-2.128,-2.2132,-2.2416,-2.3969,-2.4746,-2.479,-2.4895,-2.5959,-2.7705,-2.7486,-2.8084,-2.9189,-3.0262,-3.1651,-3.3147,-3.3491,-3.4257,-3.522,-3.5354,-3.5925,-3.6747,0.0,0.0,0.0,0.0,0.0,0.0,0.0,0.0,0.0,0.0,0.0,0.0,0.0,0.0,0.0,0.0,0.0,0.0,0.0,0.0,0.0,0.0,0.0,0.0,0.0,0.0,-1.4473,-1.2484,-1.366,-1.459,0.0,0.0,0.0,-1.6055,0.0,0.0,0.0,0.0,0.0,0.0,-1.2975,-1.2923,-1.2704,0.0,0.0,0.0,0.0,0.0,0.0,0.0,0.0,0.0,-0.8406,0.0,-0.8424,-0.7488,-0.7976,-0.8698,-0.8197,-0.9905,-1.1875,-1.2019,-1.3276,-1.4453,-1.4441,-1.3411,-1.2261,-1.159,-1.1869,-1.2359,-1.276,-1.4025,-1.5066,-1.5196,-1.631,-1.6902,-1.6096,-1.6406,-1.6445,-1.5535,-1.5569,-1.5801,-1.6242,-1.5949,-1.6181,-1.718,-1.7448,-1.7835,-1.8506,-1.8788,-1.9154,-1.9706,-2.0072,-2.0525,-2.1064,-2.2066,-2.2888,-2.361,-2.4829,-2.5342,-2.5299,-2.6255,-2.7155,-2.8079,-2.8265,-2.9008,-3.0209,-3.1498,-3.2459,-3.3201,-3.4091,-3.4761,-3.5412,-3.6583,-3.7165,-3.7498,0.0,0.0,0.0,0.0,0.0,0.0,0.0,0.0,0.0,0.0,0.0,0.0,0.0,0.0,0.0,0.0,0.0,0.0,0.0,0.0,0.0,0.0,0.0,0.0,0.0,-1.6887,-1.6108,0.0,0.0,0.0,0.0,0.0,0.0,-1.636,0.0,-1.5724,0.0,0.0,0.0,0.0,-1.3377,-1.3533,-1.3794,0.0,0.0,0.0,0.0,0.0,0.0,0.0,0.0,0.0,-1.025,0.0,-1.0422,-0.943,-0.9333,-0.9463,-0.894,-1.0207,-1.1732,-1.2061,-1.3631,-1.5218,-1.5652,-1.4381,-1.3052,-1.2925,-1.3034,-1.3453,-1.441,-1.5529,-1.6395,-1.6631,-1.7618,-1.8026,-1.706,-1.7331,-1.7388,-1.6738,-1.6674,-1.693,-1.7578,-1.7204,-1.7362,-1.8419,-1.8826,-1.9317,-1.999,-2.0444,-2.085,-2.122,-2.1652,-2.201,-2.2279,-2.3432,-2.4354,-2.4953,-2.6719,-2.7596,-2.7794,-2.8087,-2.9008,-3.0392,-3.0722,-3.1298,-3.2061,-3.302,-3.3628,-3.4056,-3.4945,-3.564,-3.6307,-3.7341,-3.7941,-3.8245,0.0,0.0,-2.0864,-2.2905,0.0,0.0,0.0,0.0,0.0,0.0,0.0,-2.1799,0.0,0.0,0.0,-1.8922,0.0,0.0,0.0,0.0,0.0,0.0,0.0,0.0,0.0,0.0,0.0,0.0,0.0,0.0,0.0,0.0,-1.6154,-1.5762,0.0,-1.4491,0.0,0.0,0.0,0.0,-1.3395,-1.3692,-1.4482,-1.3141,0.0,0.0,0.0,0.0,0.0,0.0,0.0,0.0,-1.1881,-1.1796,-1.176,-1.1349,-1.0361,-0.9343,-0.9118,-0.9758,-1.0591,-1.1035,-1.36,-1.6256,-1.7228,-1.5714,-1.4284,-1.4981,-1.4558,-1.4663,-1.6581,-1.7196,-1.768,-1.8403,-1.9126,-1.923,-1.8297,-1.8247,-1.8206,-1.7863,-1.7432,-1.7661,-1.8852,-1.844,-1.8499,-1.9485,-2.0184,-2.0693,-2.102,-2.1758,-2.2232,-2.2363,-2.3219,-2.367,-2.3599,-2.5271,-2.6284,-2.6655,-2.9198,-3.0888,-3.1666,-3.046,-3.1325,-3.3782,-3.4083,-3.4259,-3.4324,-3.4594,-3.4942,-3.5354,-3.5864,-3.668,-3.7555,-3.7812,-3.8339,-3.891,0.0,0.0,-2.2141,-2.3498,0.0,0.0,0.0,0.0,-2.7122,-2.5839,-2.4563,-2.3254,-2.1838,-2.0711,0.0,-1.9918,-1.963,0.0,0.0,0.0,0.0,0.0,0.0,0.0,0.0,0.0,0.0,0.0,0.0,0.0,0.0,0.0,0.0,-1.6534,0.0,-1.5453,0.0,0.0,0.0,-1.4512,-1.4367,-1.4527,-1.4756,-1.3969,-1.3835,0.0,0.0,0.0,0.0,0.0,0.0,0.0,-1.3942,-1.34,-1.2661,-1.1128,-1.1122,-1.1533,-1.1166,-1.224,-1.366,-1.4375,-1.647,-1.8555,-1.9248,-1.8992,-1.825,-1.6968,-1.687,-1.7245,-1.7995,-1.9065,-1.9821,-1.9681,-2.0256,-2.0432,-1.9547,-1.9729,-1.97,-1.8961,-1.908,-1.9316,-1.95,-1.9468,-1.9546,-1.9869,-2.0198,-2.0681,-2.1419,-2.1768,-2.2456,-2.351,-2.4541,-2.5272,-2.5719,-2.7032,-2.8431,-2.9922,-3.0845,-3.2869,-3.5679,-3.3795,-3.3694,-3.5019,-3.5139,-3.5139,-3.507,-3.4859,-3.496,-3.5343,-3.6399,-3.7125,-3.7669,-3.8383,-3.882,-3.9061,0.0,0.0,0.0,0.0,0.0,0.0,0.0,0.0,-2.7731,-2.6431,-2.4822,-2.3259,-2.1891,-2.0977,0.0,0.0,-2.027,-2.0197,0.0,0.0,0.0,0.0,0.0,0.0,0.0,0.0,0.0,0.0,0.0,0.0,0.0,0.0,0.0,-1.7652,0.0,-1.5708,0.0,0.0,-1.4428,-1.471,-1.4336,-1.45,-1.4927,-1.4283,-1.4598,-1.5291,-1.4874,0.0,0.0,0.0,0.0,0.0,0.0,0.0,-1.3978,-1.281,-1.2998,-1.3469,-1.2906,-1.3717,-1.527,-1.7492,-1.902,-2.0435,-2.2028,-2.2022,-2.1522,-2.0953,-1.9964,-1.9441,-2.0267,-2.1339,-2.2076,-2.2108,-2.274,-2.3033,-2.2428,-2.2421,-2.2229,-2.1601,-2.1559,-2.1518,-2.1337,-2.1265,-2.1281,-2.1327,-2.1729,-2.2202,-2.2671,-2.3128,-2.3766,-2.4595,-2.5561,-2.6324,-2.6896,-2.8782,-3.0353,-3.1573,-3.3471,-3.5823,-3.8463,-3.7202,-3.68,-3.7095,-3.7071,-3.678,-3.6298,-3.626,-3.6224,-3.6274,-3.7172,-3.7744,-3.815,-3.9139,-3.9571,-3.9758,0.0,0.0,0.0,0.0,0.0,0.0,0.0,0.0,0.0,-2.6575,-2.4493,-2.2773,-2.1905,-2.1023,-2.051,0.0,0.0,0.0,-2.0337,0.0,0.0,0.0,0.0,0.0,0.0,0.0,0.0,0.0,0.0,0.0,0.0,0.0,0.0,-1.8872,0.0,0.0,0.0,0.0,-1.4743,-1.5326,-1.445,-1.4694,-1.5513,-1.4798,-1.5521,-1.6914,-1.6911,-1.7479,-1.8203,-1.8144,0.0,0.0,0.0,0.0,-1.5103,-1.4743,-1.4874,-1.4985,-1.4348,-1.4835,-1.6394,-1.9885,-2.0995,-2.1933,-2.4583,-2.4715,-2.4491,-2.5279,-2.3388,-2.1948,-2.3139,-2.4033,-2.4727,-2.5208,-2.5842,-2.6201,-2.5985,-2.5544,-2.5129,-2.4898,-2.4298,-2.384,-2.359,-2.3263,-2.3017,-2.2996,-2.3406,-2.3705,-2.3869,-2.4515,-2.5073,-2.5416,-2.6493,-2.7245,-2.7712,-3.0404,-3.2192,-3.3016,-3.6559,-3.9013,-4.0435,-4.0178,-3.9717,-3.9147,-3.9007,-3.8484,-3.7747,-3.775,-3.7638,-3.7491,-3.806,-3.8467,-3.8834,-4.0,-4.0603,-4.0921,0.0,0.0,0.0,0.0,0.0,0.0,0.0,0.0,0.0,0.0,-2.3745,-2.2779,-2.1894,-2.107,-2.0564,-2.0514,-2.0483,-2.0471,0.0,0.0,0.0,0.0,0.0,0.0,0.0,0.0,0.0,0.0,0.0,0.0,0.0,0.0,0.0,-2.0012,0.0,0.0,0.0,0.0,-1.7321,-1.7349,-1.6464,-1.6682,-1.7424,-1.6592,-1.691,-1.7828,-1.7826,-1.8395,-1.9121,-1.9055,-1.8398,0.0,0.0,0.0,-1.4979,-1.4831,-1.5207,-1.5617,-1.5293,-1.6251,-1.7927,-2.0354,-2.1581,-2.2863,-2.5389,-2.6666,-2.7447,-2.7988,-2.6727,-2.5808,-2.6672,-2.7477,-2.8217,-2.8812,-2.8911,-2.9021,-2.9375,-2.8384,-2.7692,-2.7882,-2.6774,-2.5841,-2.5464,-2.4616,-2.4005,-2.3787,-2.3291,-2.3254,-2.3793,-2.4244,-2.4825,-2.5551,-2.7425,-2.8592,-2.8972,-3.1847,-3.425,-3.6137,-3.9815,-4.1523,-4.1505,-4.1751,-4.1191,-4.0019,-3.9725,-3.9416,-3.9059,-3.8035,-3.7753,-3.7998,-3.8743,-3.9236,-3.969,-4.0886,-4.1827,-4.2593,0.0,0.0,0.0,0.0,0.0,0.0,0.0,0.0,0.0,0.0,0.0,-2.0603,-1.9763,-1.9782,-1.9864,-1.9838,-2.0243,0.0,0.0,0.0,0.0,0.0,0.0,0.0,0.0,0.0,0.0,0.0,0.0,0.0,0.0,-1.9785,-2.0139,0.0,0.0,0.0,0.0,0.0,-1.7855,-1.7828,-1.7477,-1.7574,-1.7869,-1.7526,-1.7911,-1.8684,-1.8706,-1.9258,-1.9952,-1.984,-1.911,-1.826,-1.8378,0.0,0.0,0.0,-1.6484,-1.7185,-1.7372,-1.8118,-1.9451,-2.1868,-2.2518,-2.3645,-2.7791,-2.9001,-2.9739,-3.1449,-3.1431,-3.0853,-3.0018,-3.0565,-3.139,-3.2064,-3.248,-3.2692,-3.2671,-3.1843,-3.1102,-3.0773,-2.9642,-2.851,-2.7412,-2.627,-2.5252,-2.4519,-2.3884,-2.3652,-2.3866,-2.432,-2.4926,-2.5519,-2.7624,-2.9312,-3.0415,-3.3255,-3.617,-3.9203,-4.1115,-4.205,-4.2129,-4.1914,-4.1367,-4.0624,-4.0289,-3.9782,-3.9098,-3.8716,-3.8599,-3.8731,-3.9381,-3.9948,-4.0555,-4.2202,-4.3095,-4.3652,0.0,0.0,0.0,0.0,0.0,0.0,0.0,0.0,0.0,0.0,0.0,-1.8317,-1.7732,0.0,0.0,0.0,-2.0057,0.0,0.0,0.0,0.0,0.0,0.0,0.0,0.0,0.0,0.0,0.0,0.0,0.0,-2.0626,-2.0651,-2.1273,0.0,-2.1279,-2.0934,0.0,0.0,-1.9082,-1.8886,-1.8706,-1.8618,-1.8588,-1.8629,-1.901,-1.9585,-2.0096,-2.0367,-2.0522,-2.0779,-1.9875,-1.8697,-1.9234,-1.8521,0.0,0.0,0.0,-1.849,-1.8886,-1.9339,-2.0217,-2.2486,-2.2974,-2.4252,-2.9347,-3.0716,-3.1644,-3.4195,-3.5192,-3.522,-3.3924,-3.3903,-3.4351,-3.5132,-3.5697,-3.5971,-3.5827,-3.4974,-3.4128,-3.344,-3.2101,-3.0634,-2.9013,-2.7456,-2.6062,-2.4893,-2.4194,-2.3683,-2.3353,-2.4189,-2.487,-2.5285,-2.7676,-2.9816,-3.1524,-3.4939,-3.8118,-4.106,-4.1792,-4.2229,-4.24,-4.1735,-4.1202,-4.0832,-4.0549,-3.9948,-3.9191,-3.9265,-3.9336,-3.9498,-4.0068,-4.0818,-4.1727,-4.348,-4.4471,-4.5119,0.0,0.0,0.0,0.0,0.0,0.0,0.0,0.0,0.0,0.0,0.0,-1.6737,-1.6776,-1.8281,-1.9293,-1.9305,-2.0088,0.0,0.0,0.0,0.0,0.0,0.0,0.0,0.0,0.0,0.0,0.0,0.0,0.0,-2.1526,-2.1608,-2.2539,-2.4093,-2.2395,-2.2104,-2.2867,0.0,-2.2291,-2.1537,-2.0703,-2.0408,-2.0443,-2.0387,-2.0398,-2.0644,-2.2305,-2.1824,-2.0624,-2.2006,-2.0746,-1.889,-2.0566,-1.9899,-1.862,0.0,0.0,0.0,-1.9005,-1.9153,-1.9661,-2.1162,-2.2536,-2.4628,-2.8733,-3.1219,-3.3262,-3.5388,-3.6748,-3.7871,-3.8891,-3.7844,-3.7103,-3.8025,-3.8112,-3.822,-3.871,-3.731,-3.6086,-3.5666,-3.3624,-3.1616,-2.9955,-2.7713,-2.5854,-2.4723,-2.3568,-2.2648,-2.1946,-2.344,-2.4453,-2.4718,-2.7811,-3.0264,-3.1946,-3.7138,-4.0171,-4.0909,-4.2104,-4.2501,-4.2198,-4.1534,-4.0943,-4.04,-4.0204,-4.0104,-4.0019,-3.9486,-3.9635,-4.0193,-4.0887,-4.203,-4.341,-4.4515,-4.6012,-4.7516,0.0,0.0,0.0,0.0,0.0,0.0,0.0,0.0,0.0,0.0,0.0,0.0,0.0,-1.7415,-1.8462,-1.8473,-1.9731,0.0,0.0,0.0,0.0,0.0,0.0,0.0,0.0,0.0,0.0,0.0,0.0,-2.1157,-2.1739,-2.2324,-2.2881,-2.3397,-2.3387,-2.3575,-2.3864,-2.3251,-2.2854,-2.2609,-2.2283,-2.2187,-2.2203,-2.2187,-2.1816,-2.1426,-2.2036,-2.1414,-2.0411,-2.132,-2.0823,-1.9973,-2.0861,-2.0677,-2.0138,-2.0112,-1.9981,-1.987,-2.0086,-2.0225,-2.0805,-2.2812,-2.4664,-2.7056,-3.1212,-3.3557,-3.54,-3.7347,-3.7736,-3.8067,-3.9286,-3.9077,-3.8863,-3.9237,-3.8746,-3.8109,-3.7494,-3.5816,-3.4284,-3.3298,-3.1522,-2.9649,-2.757,-2.5544,-2.3761,-2.2299,-2.1583,-2.1302,-2.143,-2.305,-2.4689,-2.6277,-2.8739,-3.1565,-3.4852,-3.8847,-4.0795,-4.0739,-4.1859,-4.2175,-4.1788,-4.118,-4.0937,-4.1018,-4.0189,-3.9833,-3.985,-3.9948,-4.0417,-4.113,-4.2445,-4.3447,-4.4362,-4.6041,-4.7083,-4.7726,0.0,0.0,0.0,-1.3849,0.0,-1.1885,-1.0772,-1.084,0.0,0.0,0.0,0.0,0.0,0.0,-1.8644,-1.9214,0.0,0.0,0.0,0.0,0.0,0.0,0.0,0.0,0.0,0.0,0.0,0.0,0.0,0.0,0.0,-2.3521,-2.4011,-2.4183,-2.5098,-2.5063,-2.4287,-2.3955,-2.3698,-2.3505,-2.3522,-2.3356,-2.3105,-2.3414,-2.2979,-2.2227,-2.2462,-2.1623,-2.0554,-2.1429,-2.1105,-2.0531,-2.1547,-2.1665,-2.141,-2.1383,-2.1257,-2.1181,-2.1457,-2.1797,-2.2664,-2.5023,-2.6693,-2.8819,-3.2827,-3.48,-3.6207,-3.7666,-3.7831,-3.7984,-3.8833,-3.9068,-3.9261,-3.9705,-3.85,-3.704,-3.5676,-3.3617,-3.158,-2.9758,-2.8169,-2.6329,-2.4236,-2.2591,-2.106,-1.9767,-1.9634,-1.9875,-2.0444,-2.2571,-2.5368,-2.8853,-3.0991,-3.3643,-3.6951,-3.9538,-4.0698,-4.0456,-4.1221,-4.1505,-4.1363,-4.0776,-4.0627,-4.0883,-4.032,-4.0232,-4.0574,-4.0408,-4.1125,-4.2423,-4.3435,-4.4463,-4.559,-4.6965,-4.7714,-4.8099,-1.9396,-1.7167,-1.5369,-1.5265,-1.3161,-1.1501,-1.1468,-1.0781,-1.0581,-1.1497,0.0,0.0,0.0,0.0,0.0,0.0,0.0,0.0,0.0,0.0,0.0,0.0,0.0,0.0,0.0,0.0,0.0,0.0,0.0,0.0,0.0,0.0,-2.5991,-2.6669,-2.748,-2.6495,-2.425,-2.5097,-2.5013,-2.4374,-2.4411,-2.3896,-2.3202,-2.4089,-2.3829,-2.309,-2.3721,-2.2603,-2.1053,-2.2386,-2.1643,-2.0514,-2.2723,-2.2904,-2.2357,-2.2951,-2.3012,-2.2876,0.0,0.0,0.0,-2.7448,-2.8444,-2.9773,-3.3207,-3.4726,-3.5546,-3.6113,-3.6972,-3.7676,-3.7834,-3.787,-3.8202,-3.9291,-3.7331,-3.513,-3.3498,-3.0894,-2.8106,-2.5338,-2.3537,-2.182,-2.0042,-1.8829,-1.7852,-1.7171,-1.7864,-1.8533,-1.9147,-2.2217,-2.6569,-3.2281,-3.4577,-3.6409,-3.7895,-3.9235,-3.9947,-4.0071,-4.0265,-4.056,-4.0943,-4.0336,-4.0037,-4.0002,-4.0534,-4.1362,-4.2202,-4.0883,-4.1764,-4.3941,-4.3714,-4.5015,-4.6981,-4.7261,-4.7959,-4.8787,-2.0315,-1.9002,-1.7636,-1.6297,-1.4967,-1.3869,-1.3237,-1.2459,-1.2465,0.0,0.0,0.0,0.0,0.0,0.0,0.0,0.0,0.0,0.0,0.0,0.0,0.0,0.0,0.0,0.0,0.0,0.0,0.0,0.0,0.0,0.0,0.0,0.0,-2.7439,-2.705,-2.6817,-2.6672,-2.64,-2.6215,-2.6046,-2.5429,-2.5454,-2.5769,-2.5307,-2.4185,-2.2843,-2.2738,-2.1391,-1.988,-2.1219,-2.1258,-2.1182,-2.3634,-2.3866,-2.3293,-2.3749,-2.3901,-2.3885,-2.3793,0.0,0.0,0.0,0.0,0.0,-3.3577,-3.4548,-3.5113,-3.4672,-3.414,-3.3916,-3.45,-3.4507,-3.4419,-3.4347,-3.3545,-3.1708,-2.8331,-2.4902,-2.171,-1.8843,-1.7231,-1.5974,-1.5093,-1.496,-1.5185,-1.5653,-1.7227,-1.8913,-2.0578,-2.6333,-3.0987,-3.4035,-3.6538,-3.7934,-3.8131,-3.9285,-3.9641,-3.9078,-3.923,-3.9475,-3.9825,-3.9374,-3.9951,-4.1288,-4.0933,-4.1627,-4.2888,-4.1869,-4.2029,-4.31,-4.436,-4.5279,-4.6192,-4.7794,-4.8512,-4.8678,-2.1672,-2.0759,-1.9638,-1.8164,-1.7186,-1.6184,-1.4992,-1.4424,-1.4475,0.0,0.0,0.0,0.0,0.0,0.0,0.0,0.0,0.0,0.0,0.0,0.0,0.0,-2.5378,0.0,0.0,0.0,0.0,0.0,0.0,0.0,0.0,0.0,0.0,0.0,-2.7612,-2.7662,-2.8008,-2.6892,-2.6545,-2.6679,-2.6168,-2.6033,-2.611,-2.5858,-2.4832,-2.3379,-2.2318,-2.1309,-2.0567,-2.127,-2.2161,-2.3211,-2.4736,-2.4927,-2.4629,-2.4766,-2.5094,-2.5385,-2.5188,-2.6742,-2.8653,-2.965,0.0,0.0,-3.3012,-3.3445,-3.3555,-3.2462,-3.1979,-3.1843,-3.2147,-3.2119,-3.1734,-3.093,-2.9918,-2.7894,-2.4093,-2.0031,-1.625,-1.301,-1.1466,-1.0667,-1.0712,-1.1774,-1.3068,-1.4443,-1.7016,-2.0339,-2.4495,-2.9768,-3.3713,-3.6099,-3.7523,-3.8232,-3.8222,-3.8238,-3.8132,-3.7993,-3.7877,-3.8119,-3.8676,-3.8688,-3.9276,-4.0213,-4.0592,-4.1285,-4.2169,-4.1971,-4.2402,-4.3321,-4.4629,-4.5551,-4.6298,-4.8053,-4.8679,-4.8732,0.0,-2.2242,-2.1293,-2.0394,-1.9457,-1.8307,-1.6801,-1.6474,-1.6432,0.0,0.0,0.0,0.0,0.0,0.0,0.0,0.0,0.0,0.0,0.0,0.0,-2.2911,-2.5114,-2.6294,0.0,0.0,0.0,0.0,0.0,0.0,0.0,0.0,0.0,0.0,-2.8537,-2.8502,-2.835,-2.6938,-2.6467,-2.6687,-2.6603,-2.6196,-2.5711,-2.6197,-2.5701,-2.4479,-2.2587,-2.206,-2.2232,-2.2224,-2.3904,-2.5959,-2.615,-2.6297,-2.6297,-2.5967,-2.6561,-2.7272,-2.6856,-2.8251,-3.0077,-3.1092,-3.1558,0.0,-3.1855,-3.1806,-3.1339,-2.9953,-3.0192,-3.0563,-3.0305,-3.0161,-2.9704,-2.8546,-2.6672,-2.4178,-2.0813,-1.6334,-1.202,-0.8423,-0.6764,-0.6279,-0.72,-0.9377,-1.1601,-1.3909,-1.7764,-2.2857,-2.9466,-3.2523,-3.5308,-3.8045,-3.781,-3.7756,-3.8014,-3.6498,-3.6038,-3.6552,-3.6266,-3.6573,-3.7427,-3.8137,-3.8301,-3.8256,-3.9914,-4.0675,-4.0889,-4.1545,-4.2645,-4.3941,-4.4707,-4.5667,-4.6827,-4.805,-4.8642,-4.8822,-2.3732,-2.2872,-2.2072,-2.1809,-2.0508,-1.9363,-1.8908,-1.792,-1.7406,-1.8049,0.0,0.0,0.0,0.0,0.0,0.0,0.0,0.0,0.0,0.0,-2.3595,-2.4645,-2.6384,-2.7281,-2.7214,-2.8421,0.0,0.0,0.0,0.0,0.0,0.0,0.0,0.0,-2.7824,-2.7528,-2.7544,-2.727,-2.7199,-2.7196,-2.6548,-2.742,-2.896,-2.7506,-2.6609,-2.591,-2.4404,-2.3271,-2.2702,-2.3969,-2.5719,-2.7529,-2.8413,-2.8683,-2.852,-2.7834,-2.8596,-2.9331,-2.7871,-2.9384,-3.1312,-3.1003,-3.1634,0.0,-3.0761,-3.0281,-2.9719,-2.8479,-2.8039,-2.7779,-2.739,-2.7375,-2.7161,-2.6274,-2.4926,-2.2722,-1.9176,-1.4828,-1.0839,-0.7746,-0.5229,-0.4387,-0.598,-0.8746,-1.1974,-1.5593,-2.1944,-2.7449,-3.1675,-3.4376,-3.6598,-3.8293,-3.8015,-3.7313,-3.6216,-3.5262,-3.4455,-3.3813,-3.4569,-3.5148,-3.5666,-3.687,-3.8015,-3.9106,-4.013,-4.0729,-4.1011,-4.1612,-4.2298,-4.3082,-4.4449,-4.5323,-4.5984,-4.7868,-4.866,-4.8857,-2.4288,-2.3814,-2.33,-2.2839,-2.2036,-2.1306,-2.0863,-2.0258,-2.0006,0.0,0.0,0.0,-2.2049,-2.2283,-2.238,0.0,0.0,0.0,0.0,-2.3623,-2.4254,-2.4649,-2.6572,-2.7774,-2.8032,-2.9005,0.0,0.0,0.0,0.0,0.0,0.0,0.0,0.0,-2.7363,-2.7044,-2.7163,-2.632,-2.6709,-2.7924,-2.8001,-2.8525,-2.9231,-2.8877,-2.8165,-2.7227,-2.5954,-2.525,-2.504,-2.5952,-2.737,-2.886,-2.916,-2.9485,-2.9674,-2.9254,-2.9757,-3.0201,-2.9313,-3.0505,-3.1683,-3.0585,-3.1012,0.0,0.0,-2.8997,-2.8368,-2.7225,-2.6785,-2.6387,-2.5677,-2.5681,-2.5693,-2.5368,-2.4306,-2.257,-1.9943,-1.4769,-1.0105,-0.7096,-0.4968,-0.4585,-0.6942,-1.0187,-1.4326,-1.9588,-2.523,-2.9832,-3.2881,-3.5649,-3.7747,-3.9058,-3.7852,-3.6453,-3.4926,-3.3309,-3.2432,-3.23,-3.2764,-3.3533,-3.4647,-3.5766,-3.6987,-3.8245,-3.922,-3.9947,-4.0594,-4.1128,-4.1911,-4.2961,-4.448,-4.5254,-4.5785,-4.785,-4.875,-4.8925,-2.4586,-2.4489,-2.4219,-2.3553,-2.3245,-2.2913,-2.2277,-2.2208,-2.2267,0.0,0.0,-2.2588,-2.2753,-2.2803,-2.2562,-2.1914,0.0,0.0,-2.306,-2.4591,-2.5234,-2.4553,-2.6703,-2.8074,-2.8361,-2.9251,0.0,0.0,0.0,0.0,0.0,0.0,-2.9352,-2.7603,-2.6919,-2.6597,-2.6484,-2.5239,-2.6182,-2.8568,-2.9823,-2.9753,-2.8989,-3.0185,-2.9954,-2.8838,-2.7701,-2.7563,-2.7928,-2.8019,-2.8997,-3.0105,-2.9814,-3.0137,-3.06,-3.0445,-3.0623,-3.08,-3.064,-3.1356,-3.1786,-3.0232,-3.0377,-3.0487,0.0,0.0,0.0,-2.6381,-2.6068,-2.5691,-2.4737,-2.4567,-2.4682,-2.4863,-2.3994,-2.2732,-2.1138,-1.5924,-1.0934,-0.7473,-0.6084,-0.6584,-0.9758,-1.3174,-1.7506,-2.312,-2.7188,-3.0548,-3.3142,-3.6108,-3.8213,-3.9258,-3.7471,-3.5669,-3.3919,-3.1693,-3.0814,-3.1244,-3.135,-3.2235,-3.3805,-3.4936,-3.6025,-3.707,-3.8204,-3.916,-4.0017,-4.0638,-4.1701,-4.3138,-4.4545,-4.5406,-4.6044,-4.7942,-4.8767,-4.9042,-2.4321,-2.4097,-2.3903,-2.3928,-2.3286,-2.2698,-2.2588,-2.2152,-2.2037,0.0,-2.1977,-2.1932,-2.2949,-2.2347,-2.2107,-2.2692,-2.3522,-2.3937,-2.3798,-2.5412,-2.627,-2.6066,-2.779,-2.8384,-2.7547,-2.94,0.0,0.0,0.0,0.0,0.0,0.0,-2.9112,-2.624,-2.6322,-2.5693,-2.4671,-2.53,-2.6758,-2.8862,-3.107,-3.1374,-3.0597,-3.1214,-3.1441,-3.1273,-3.0196,-3.0139,-3.0531,-3.0165,-3.0673,-3.1453,-3.1812,-3.2019,-3.2018,-3.1381,-3.1595,-3.193,-3.1145,-3.1648,-3.1991,-3.0468,-3.0302,-3.0101,-2.8287,0.0,-2.7303,-2.6183,0.0,-2.5335,-2.4465,0.0,0.0,-2.4138,-2.3409,-2.2396,-2.1236,-1.8738,-1.5215,-1.0361,-0.97,-1.108,-1.4856,-1.7995,-2.0871,-2.3403,-2.6425,-2.928,-3.1961,-3.5062,-3.6954,-3.74,-3.6822,-3.5412,-3.3144,-3.1629,-3.054,-2.9934,-3.1093,-3.1983,-3.2659,-3.4745,-3.6062,-3.6814,-3.8263,-3.9117,-3.9654,-4.077,-4.2062,-4.3373,-4.4605,-4.5751,-4.683,-4.8145,-4.8767,-4.9042,-2.3894,-2.3792,-2.3707,-2.3628,-2.3315,-2.3138,-2.3169,-2.3325,-2.3559,-2.3951,-2.3798,-2.367,-2.3671,-2.3354,-2.3256,-2.3529,-2.4196,-2.4817,-2.5265,-2.6899,-2.7755,-2.757,-2.8791,-2.9399,-2.9195,-2.9455,-3.0118,0.0,-3.0625,0.0,0.0,0.0,-2.8211,-2.6206,-2.594,-2.5506,-2.4949,-2.5162,-2.6171,-2.7844,-3.0127,-3.1185,-3.161,-3.369,-3.4108,-3.3436,-3.2559,-3.2292,-3.2232,-3.1206,-3.1363,-3.1939,-3.1513,-3.1619,-3.1896,-3.169,-3.1865,-3.2004,-3.1655,-3.1847,-3.1795,-3.0451,-3.0047,-2.9628,-2.8217,-2.7334,-2.6538,-2.5681,0.0,0.0,0.0,0.0,0.0,0.0,-2.3443,-2.279,-2.2451,-2.097,-1.8319,-1.3839,-1.3471,-1.5036,-1.865,-2.1063,-2.2599,-2.3282,-2.6393,-2.9096,-3.1104,-3.4148,-3.6211,-3.7024,-3.623,-3.495,-3.3128,-3.1811,-3.103,-3.0787,-3.1298,-3.2266,-3.3713,-3.4525,-3.5967,-3.7871,-3.8477,-3.9404,-4.0591,-4.184,-4.3058,-4.4306,-4.5675,-4.6517,-4.7111,-4.8328,-4.8959,-4.9193,-2.3702,-2.3779,-2.3738,-2.3477,-2.356,-2.3672,-2.3735,-2.419,-2.4628,-2.4949,-2.4957,-2.4713,-2.4195,-2.4157,-2.4122,-2.4005,-2.5077,-2.6104,-2.6901,-2.8283,-2.9172,-2.9451,-2.9883,-3.0302,-3.075,-3.0147,-3.0483,0.0,0.0,0.0,0.0,0.0,-2.7809,-2.6378,-2.5767,-2.5554,-2.5619,-2.5445,-2.6551,-2.8651,-3.0928,-3.2914,-3.4673,-3.6342,-3.6508,-3.5808,-3.4802,-3.4167,-3.3493,-3.2286,-3.2008,-3.2063,-3.1408,-3.1399,-3.1691,-3.1765,-3.1903,-3.197,-3.1783,-3.1795,-3.1517,-3.0158,-2.9657,-2.9228,-2.8084,-2.7074,-2.6301,-2.5944,-2.5411,0.0,0.0,0.0,-2.4633,-2.4411,0.0,-2.3644,-2.3377,-2.2555,-2.0783,-1.7562,-1.7478,-1.8689,-2.137,-2.2645,-2.3406,-2.3734,-2.6285,-2.8736,-3.0757,-3.3574,-3.5689,-3.69,-3.6336,-3.5488,-3.4396,-3.3112,-3.2511,-3.2564,-3.2391,-3.3194,-3.48,-3.4865,-3.6234,-3.8599,-3.8738,-3.9782,-4.1533,-4.2731,-4.4043,-4.5407,-4.6608,-4.7297,-4.7684,-4.8563,-4.9061,-4.9371,-2.4024,-2.4104,-2.4034,-2.3821,-2.4051,-2.4242,-2.4103,-2.421,-2.4489,-2.4946,-2.438,-2.4012,-2.4178,-2.4131,-2.4082,-2.4005,-2.6092,-2.7759,-2.8566,-2.928,-3.034,-3.1815,-3.1042,-3.0838,-3.1372,-3.1908,-3.1939,-3.142,-3.1809,0.0,0.0,0.0,0.0,0.0,-2.5749,-2.5806,-2.6286,-2.6468,-2.8821,-3.2616,-3.504,-3.8116,-4.1017,-3.8739,-3.8255,-3.8572,-3.699,-3.5571,-3.4365,-3.3766,-3.2818,-3.1985,-3.2326,-3.2166,-3.1839,-3.1576,-3.1935,-3.2207,-3.128,-3.134,-3.1299,-2.9573,-2.9228,-2.8972,-2.7609,-2.7097,-2.703,-2.7509,-2.7091,-2.6847,-2.7627,-2.7639,-2.7065,-2.5497,-2.5335,0.0,0.0,-2.3249,-2.2608,-2.1379,-2.1597,-2.2088,-2.2838,-2.2659,-2.3251,-2.528,-2.5879,-2.7674,-3.1093,-3.3466,-3.5358,-3.6749,-3.745,-3.768,-3.7375,-3.6149,-3.5376,-3.4987,-3.4704,-3.4836,-3.5301,-3.6006,-3.7055,-3.8342,-3.9083,-4.0382,-4.2072,-4.3132,-4.47,-4.6513,-4.7075,-4.7868,-4.875,-4.8874,-4.9127,-4.9415,-2.4208,-2.4104,-2.3898,-2.363,-2.3815,-2.3985,-2.4037,-2.4192,-2.4476,-2.4937,-2.4812,-2.4749,-2.4844,-2.4957,-2.5421,-2.6367,-2.7045,-2.7975,-2.928,-3.0452,-3.1238,-3.1589,-3.1715,-3.1774,-3.1737,-3.1159,-3.0889,-3.0991,-3.0052,-2.956,0.0,0.0,0.0,0.0,-2.5677,-2.6048,-2.6959,-2.778,-2.9862,-3.297,-3.6595,-3.9556,-4.1664,-4.0526,-3.943,-3.8405,-3.7617,-3.6498,-3.5231,-3.4068,-3.3615,-3.3416,-3.2496,-3.2144,-3.1936,-3.1326,-3.124,-3.1115,-3.0518,-3.0405,-3.0248,-2.9301,-2.889,-2.854,-2.797,-2.6924,-2.6409,-2.7405,-2.6848,-2.6495,-2.7686,-2.772,-2.7365,-2.6771,-2.6403,-2.5812,0.0,-2.454,-2.4302,-2.4155,-2.3599,-2.3389,-2.3726,-2.3441,-2.3765,-2.5024,-2.6376,-2.8296,-3.0973,-3.3724,-3.559,-3.6386,-3.7302,-3.7983,-3.8422,-3.7923,-3.7838,-3.8053,-3.7719,-3.7831,-3.8346,-3.8271,-3.9031,-4.0381,-4.1029,-4.2055,-4.3292,-4.4867,-4.6019,-4.6939,-4.7795,-4.8473,-4.8959,-4.9094,-4.9371,-4.972,-2.4486,-2.4339,-2.4112,-2.3698,-2.3746,-2.3943,-2.4208,-2.4423,-2.4686,-2.5091,-2.52,-2.5371,-2.5728,-2.5832,-2.6391,-2.7627,-2.778,-2.8445,-2.9964,-3.077,-3.1463,-3.2052,-3.2101,-3.2101,-3.2063,-3.1203,-3.0872,-3.1113,-2.9515,-2.9032,0.0,0.0,0.0,0.0,-2.6129,-2.6801,-2.8186,-2.9534,-3.1776,-3.4707,-3.8322,-4.0307,-4.107,-4.0583,-3.9586,-3.8364,-3.7707,-3.6462,-3.507,-3.4171,-3.375,-3.3421,-3.2347,-3.1974,-3.1809,-3.0974,-3.0717,-3.0537,-2.9902,-2.9704,-2.9505,-2.8775,-2.8405,-2.8206,-2.8127,-2.7292,-2.6928,-2.8596,-2.8092,-2.7853,-2.9381,-2.9247,-2.8751,-2.8167,-2.7508,-2.6732,0.0,-2.5678,-2.5744,-2.6049,-2.5148,-2.4622,-2.4912,-2.4456,-2.4739,-2.624,-2.7585,-2.941,-3.1943,-3.4302,-3.6157,-3.7296,-3.808,-3.9204,-4.0692,-4.0285,-4.0356,-4.0904,-4.0298,-4.0118,-4.0368,-4.03,-4.089,-4.2026,-4.2663,-4.3656,-4.4939,-4.6132,-4.6952,-4.7552,-4.8366,-4.8635,-4.8617,-4.9113,-4.9537,-5.0003,-2.4793,-2.4755,-2.4617,-2.4032,-2.3929,-2.4098,-2.4634,-2.4878,-2.5089,-2.5355,-2.5482,-2.5866,-2.6691,-2.672,-2.6986,-2.7783,-2.8255,-2.9117,-3.0577,-3.0337,-3.106,-3.3121,-3.2204,-3.1856,-3.2368,-3.2055,-3.179,-3.1641,-3.0233,-2.9659,0.0,0.0,0.0,0.0,-2.7117,-2.7917,-2.9913,-3.1636,-3.4375,-3.7718,-4.0141,-4.0507,-3.9504,-3.8976,-3.8593,-3.8221,-3.7255,-3.5612,-3.3849,-3.3954,-3.3222,-3.213,-3.1855,-3.1716,-3.1447,-3.0507,-3.0347,-3.0314,-2.9354,-2.9201,-2.9049,-2.7953,-2.7746,-2.7866,-2.8116,-2.8001,-2.8464,-3.0781,-3.0653,-3.0692,-3.2521,-3.2144,-3.1062,-2.9604,-2.8589,-2.7581,-2.6467,-2.6552,-2.6865,-2.7027,-2.6201,-2.5756,-2.6307,-2.5451,-2.6028,-2.88,-2.9265,-3.0767,-3.3853,-3.5186,-3.6971,-3.9344,-3.9823,-4.1369,-4.4069,-4.3221,-4.3,-4.345,-4.2445,-4.1776,-4.1461,-4.2051,-4.263,-4.3269,-4.3937,-4.5171,-4.6706,-4.6843,-4.7437,-4.8344,-4.866,-4.8407,-4.7923,-4.8864,-4.9589,-5.019,-2.4895,-2.4751,-2.4682,-2.4575,-2.4349,-2.4388,-2.4908,-2.4915,-2.4949,-2.5213,-2.5839,-2.6333,-2.6546,-2.7204,-2.7918,-2.8645,-2.8622,-2.9098,-3.0312,-3.0588,-3.111,-3.2007,-3.2024,-3.1987,-3.1896,-3.1749,-3.139,-3.0716,-3.0129,-2.9596,-2.9009,0.0,0.0,0.0,-2.8066,-2.8965,-3.0119,-3.2502,-3.5633,-3.9113,-3.9974,-3.9242,-3.7498,-3.6286,-3.4743,-3.3431,-3.5145,-3.4545,-3.2927,-3.2941,-3.2391,-3.1673,-3.1259,-3.0975,-3.0593,-2.9521,-2.9245,-2.914,-2.8189,-2.7871,-2.7765,-2.747,-2.6935,-2.6774,-2.7871,-2.7453,-2.7604,-3.0192,-3.0451,-3.0693,-3.2108,-3.2162,-3.1645,-3.0453,-2.8844,-2.7425,-2.6483,-2.6183,-2.6142,-2.6324,-2.5658,-2.5256,-2.5535,-2.4821,-2.566,-2.8794,-2.83,-2.9746,-3.4067,-3.5865,-3.7682,-3.9703,-4.1443,-4.3347,-4.5458,-4.5212,-4.5356,-4.5892,-4.4768,-4.4439,-4.4741,-4.4054,-4.4179,-4.4922,-4.5682,-4.6324,-4.6822,-4.7602,-4.8142,-4.855,-4.8751,-4.8543,-4.8138,-4.8012,-4.853,-4.9343,-2.5042,-2.4851,-2.4884,-2.5034,-2.4832,-2.4762,-2.5078,-2.5162,-2.5205,-2.5248,-2.5979,-2.667,-2.7062,-2.784,-2.8744,-2.9849,-2.9371,-2.9495,-3.0669,-3.0747,-3.0903,-3.1288,-3.169,-3.1866,-3.181,-3.1406,-3.1135,-3.0891,-3.0005,-2.947,-2.9305,0.0,0.0,0.0,-2.8626,-2.9446,-3.0394,-3.3667,-3.6365,-3.842,-3.8191,-3.6513,0.0,-3.278,-3.0924,-2.9107,-3.0499,-3.0855,-3.0623,-3.048,-3.0207,-3.0001,-2.9773,-2.9481,-2.9201,-2.851,-2.8073,-2.771,-2.7136,-2.663,-2.6257,-2.622,-2.572,-2.5652,-2.7243,-2.7349,-2.7881,-3.0409,-3.1008,-3.1515,-3.3057,-3.258,-3.1531,-3.0175,-2.8717,-2.7528,-2.6946,-2.6476,-2.6166,-2.6079,-2.5599,-2.5142,-2.5013,-2.4694,-2.5493,-2.7973,-2.8509,-3.0164,-3.3427,-3.6236,-3.8618,-4.0573,-4.2567,-4.4636,-4.6835,-4.644,-4.6506,-4.709,-4.5956,-4.555,-4.5828,-4.5455,-4.5558,-4.603,-4.687,-4.7335,-4.751,-4.8141,-4.8513,-4.8604,-4.8076,-4.7623,-4.7184,-4.6645,-4.7552,-4.9127,-2.543,-2.5226,-2.5272,-2.539,-2.5234,-2.5136,-2.5252,-2.558,-2.5765,-2.5615,-2.6367,-2.7258,-2.8096,-2.874,-2.9722,-3.1184,-3.0282,-3.0079,-3.1201,-3.072,-3.0552,-3.0803,-3.1205,-3.1551,-3.1757,-3.1124,-3.1021,-3.1504,-2.9948,-2.9537,-3.0097,0.0,0.0,0.0,-2.9189,-2.9937,-3.1104,-3.4625,-3.6242,-3.6369,-3.5446,-3.3139,-3.0142,-2.9101,-2.7379,-2.5405,-2.4899,-2.5925,-2.7598,-2.7437,-2.7464,-2.7575,-2.7749,-2.7713,-2.7535,-2.747,-2.6896,-2.63,-2.6179,-2.5508,-2.4833,-2.4755,-2.4432,-2.4589,-2.6311,-2.7316,-2.8527,-3.0827,-3.1704,-3.2545,-3.4202,-3.2841,-3.0886,-2.9194,-2.8258,-2.758,-2.7207,-2.6775,-2.6327,-2.5809,-2.5426,0.0,-2.4449,-2.4539,-2.5361,-2.7028,-2.8967,-3.0889,-3.2851,-3.6307,-3.9419,-4.1923,-4.356,-4.5593,-4.8071,-4.7316,-4.7122,-4.7533,-4.6434,-4.59,-4.5872,-4.6317,-4.6644,-4.6771,-4.7601,-4.8111,-4.8306,-4.8438,-4.8587,-4.8507,-4.7103,-4.6277,-4.5825,-4.5295,-4.6666,-4.8943,-2.6833,-2.6483,-2.6229,-2.5658,-2.5262,-2.5141,-2.5563,-2.6079,-2.6597,-2.7059,-2.8327,-2.9342,-2.9675,-3.0676,-3.1486,-3.1824,-3.0912,-3.0535,-3.1008,-3.0451,-3.0202,-3.0487,-3.0755,-3.0991,-3.116,-3.0831,-3.0698,-3.085,-3.0545,-3.0425,-3.051,0.0,0.0,-2.9937,-3.091,-3.2114,-3.3345,-3.3917,-3.413,-3.3896,-3.2548,-3.0548,-2.8184,-2.6494,-2.4771,-2.3048,-2.1451,-2.2553,-2.4809,-2.5382,-2.5324,-2.5228,-2.6171,-2.6411,-2.6279,-2.604,-2.5955,-2.583,-2.5342,-2.4764,-2.4231,-2.4218,-2.3765,-2.3729,-2.5319,-2.647,-2.7833,-2.9905,-3.1393,-3.2438,-3.2816,-3.1414,-2.9751,-2.8325,-2.7769,-2.6899,-2.5363,-2.5279,-2.4987,-2.399,-2.3652,-2.3345,-2.3195,-2.3609,-2.4845,-2.7224,-2.747,-2.9642,-3.4499,-3.6137,-3.9124,-4.3906,-4.5213,-4.6731,-4.8651,-4.8486,-4.8255,-4.7913,-4.6952,-4.6717,-4.7163,-4.6531,-4.6699,-4.7542,-4.7756,-4.8014,-4.8306,-4.8476,-4.8325,-4.7757,-4.634,-4.5829,-4.5825,-4.5295,-4.5963,-4.726,-2.7517,-2.7002,-2.6519,-2.5994,-2.5556,-2.5348,-2.5607,-2.6392,-2.7004,-2.7169,-2.8555,-2.9591,-2.9765,-3.0711,-3.1544,-3.212,-3.1232,-3.0808,-3.1117,-3.0574,-3.0179,-3.0027,-3.0592,-3.098,-3.1133,-3.0798,-3.0764,-3.1187,-3.0482,-3.0207,-3.0282,-3.0144,-3.0119,-3.0306,-3.1354,-3.2571,-3.3857,-3.2902,-3.226,-3.1678,-2.9952,-2.7759,-2.5364,-2.3842,-2.2017,-2.0193,-1.9577,-2.0071,-2.1198,-2.2407,-2.3064,-2.3453,-2.4144,-2.4469,-2.4559,-2.4545,-2.4655,-2.4709,-2.4328,-2.3883,-2.3339,-2.2884,-2.2428,-2.2484,-2.3966,-2.55,-2.7211,-2.937,-3.102,-3.2004,-3.17,-3.1783,-3.1035,-2.8442,-2.8092,-2.748,-2.5473,-2.4797,-2.4206,-2.3289,-2.29,-2.2794,-2.3218,-2.3591,-2.4645,-2.6509,-2.7969,-3.047,-3.4432,-3.658,-3.9776,-4.4291,-4.5585,-4.698,-4.8642,-4.8476,-4.8151,-4.7747,-4.7096,-4.6898,-4.7143,-4.6766,-4.6908,-4.7443,-4.7788,-4.7834,-4.7664,-4.757,-4.7129,-4.6475,-4.5798,-4.5482,-4.5369,-4.5166,-4.5791,-4.6839,-2.7999,-2.7316,-2.6622,-2.611,-2.5616,-2.53,-2.5434,-2.6486,-2.7272,-2.7278,-2.8536,-2.9547,-2.9868,-3.0586,-3.1361,-3.2242,-3.1394,-3.0945,-3.1164,-3.0629,-3.0133,-2.9792,-3.0386,-3.0925,-3.1231,-3.0684,-3.0762,-3.1377,-3.0187,-2.9794,-3.0113,-2.9887,-3.0077,-3.0692,-3.1405,-3.242,-3.3372,-3.182,-3.0717,-2.9894,-2.7816,-2.5548,-2.3281,-2.1913,-2.0277,-1.8641,-1.8742,-1.8745,-1.887,-2.0078,-2.1174,-2.2116,-2.2344,-2.2661,-2.2933,-2.3141,-2.324,-2.3371,-2.3462,-2.3067,-2.2498,-2.1996,-2.1704,-2.1883,-2.3214,-2.5051,-2.7049,-2.9075,-3.0697,-3.1554,-3.0898,-3.1773,-3.1632,-2.8809,-2.8243,-2.7569,-2.5987,-2.4633,-2.3571,-2.286,-2.2592,-2.2906,-2.4026,-2.4713,-2.56,-2.6934,-2.8985,-3.1536,-3.4624,-3.7069,-4.0318,-4.4583,-4.5625,-4.6764,-4.8143,-4.798,-4.7728,-4.7338,-4.707,-4.6888,-4.6731,-4.6888,-4.7025,-4.7249,-4.7542,-4.7378,-4.6838,-4.6382,-4.5908,-4.545,-4.5342,-4.5115,-4.4933,-4.5247,-4.5944,-4.6897,-2.8589,-2.7679,-2.6741,-2.5675,-2.4947,-2.4626,-2.4994,-2.6211,-2.7444,-2.8414,-2.9338,-3.025,-3.1119,-3.1566,-3.1934,-3.2256,-3.1485,-3.0933,-3.0853,-3.0105,-2.9746,-2.9966,-2.9938,-3.0308,-3.1114,-3.0238,-3.0104,-3.0756,-3.0023,-3.0006,-3.0605,-3.0605,-3.1017,-3.1778,-3.1985,-3.2141,-3.2081,-3.0791,-2.9761,-2.881,-2.6618,-2.4911,-2.3614,-2.165,-2.071,-2.0301,-1.8731,-1.8935,-1.994,-1.9897,-2.0386,-2.0989,-2.1063,-2.1308,-2.1663,-2.1935,-2.1935,-2.1987,-2.2915,-2.2598,-2.22,-2.2711,-2.2832,-2.3069,-2.407,-2.6086,-2.7981,-2.8941,-3.0409,-3.1274,-3.0499,-2.9532,-2.8809,-2.8854,-2.7193,-2.5788,-2.5524,-2.4198,-2.2982,-2.219,-2.241,-2.3647,-2.6102,-2.7604,-2.9119,-3.0671,-2.9682,-3.1364,-3.67,-3.7161,-3.9966,-4.5842,-4.5883,-4.6231,-4.7035,-4.7452,-4.7353,-4.6888,-4.6842,-4.6684,-4.6447,-4.6684,-4.7007,-4.7284,-4.6837,-4.6478,-4.6138,-4.5497,-4.5222,-4.5201,-4.4747,-4.4662,-4.4915,-4.5908,-4.6502,-4.7031,-2.8699,-2.7761,-2.6796,-2.6072,-2.5496,-2.5038,-2.4797,-2.5776,-2.6751,-2.7347,-2.8862,-3.0088,-3.0697,-3.0977,-3.1253,-3.1534,-3.1168,-3.0959,-3.0986,-3.0474,-3.0206,-3.0259,-3.037,-3.0411,-3.0279,-2.9752,-2.963,-3.0008,-2.928,-2.9407,-3.0401,-3.0726,-3.1446,-3.2631,-3.2682,-3.2427,-3.1905,-3.0724,-2.9472,-2.8153,-2.6258,-2.4695,-2.3273,-2.1725,-2.0709,-2.0081,-1.9809,-2.0041,-2.0393,-2.0614,-2.0601,-2.0485,-2.0357,-2.0688,-2.1078,-2.0946,-2.1318,-2.1922,-2.2579,-2.2483,-2.2176,-2.2569,-2.2719,-2.3035,-2.3912,-2.5502,-2.721,-2.8555,-2.9844,-3.0377,-2.956,-2.9391,-2.8919,-2.7569,-2.6977,-2.6141,-2.4609,-2.3503,-2.2854,-2.2672,-2.4034,-2.5734,-2.785,-2.9484,-3.1185,-3.2947,-3.2161,-3.3248,-3.704,-3.814,-4.0669,-4.5094,-4.6048,-4.6537,-4.6731,-4.7084,-4.7062,-4.6542,-4.6542,-4.6398,-4.6154,-4.6495,-4.6739,-4.6795,-4.6266,-4.5791,-4.5395,-4.4712,-4.4538,-4.4655,-4.4543,-4.4659,-4.4984,-4.6016,-4.6889,-4.7722,-2.8381,-2.742,-2.6499,-2.6045,-2.5712,-2.5297,-2.4693,-2.568,-2.6479,-2.6563,-2.8044,-2.9287,-2.9821,-3.0031,-3.0285,-3.0625,-3.0551,-3.0556,-3.0781,-3.0369,-3.0188,-3.0372,-3.0373,-3.0085,-2.9577,-2.9108,-2.8891,-2.9086,-2.8265,-2.8449,-2.9511,-3.0084,-3.1073,-3.229,-3.229,-3.2044,-3.1369,-3.0274,-2.9133,-2.7846,-2.6276,-2.4856,-2.3567,-2.2574,-2.1734,-2.1081,-2.1444,-2.1674,-2.1671,-2.1725,-2.1225,-2.0483,-1.9991,-2.003,-2.0278,-1.9957,-2.0545,-2.1466,-2.2092,-2.2342,-2.2535,-2.2719,-2.3071,-2.3544,-2.4214,-2.5456,-2.6919,-2.851,-2.9231,-2.9371,-2.8623,-2.885,-2.863,-2.7096,-2.6807,-2.6289,-2.5005,-2.3909,-2.3502,-2.4103,-2.5756,-2.7824,-3.0263,-3.1632,-3.3036,-3.4839,-3.4785,-3.5685,-3.801,-3.921,-4.1414,-4.4784,-4.6116,-4.6691,-4.6472,-4.6845,-4.676,-4.6284,-4.6301,-4.6204,-4.5972,-4.6447,-4.6454,-4.6083,-4.5763,-4.5224,-4.4512,-4.3828,-4.3813,-4.4229,-4.4158,-4.4485,-4.5076,-4.6374,-4.7353,-4.8221,-2.7578,-2.6588,-2.5647,-2.5196,-2.5219,-2.5144,-2.4688,-2.5995,-2.6957,-2.6572,-2.7021,-2.7825,-2.8811,-2.8996,-2.9164,-2.9572,-2.9512,-2.9573,-3.0006,-2.9373,-2.9425,-3.0362,-2.9493,-2.9142,-2.9282,-2.8247,-2.7816,-2.7949,-2.7212,-2.7162,-2.7822,-2.8736,-2.9508,-3.0276,-3.0418,-3.0418,-3.0157,-2.9189,-2.8468,-2.7934,-2.659,-2.5568,-2.4893,-2.4392,-2.4159,-2.3959,-2.371,-2.381,-2.4012,-2.3155,-2.2168,-2.1085,-1.9717,-1.9145,-1.8982,-1.8796,-1.9302,-2.0143,-2.1116,-2.2201,-2.3168,-2.3592,-2.4338,-2.5068,-2.5404,-2.6409,-2.7665,-2.8933,-2.8718,-2.8205,-2.7795,-2.7292,-2.7173,-2.7954,-2.6529,-2.5845,-2.7223,-2.5858,-2.5162,-2.6598,-2.7429,-2.9518,-3.366,-3.42,-3.4867,-3.6368,-3.7196,-3.845,-4.0271,-4.0332,-4.192,-4.5474,-4.619,-4.6403,-4.6224,-4.6597,-4.6525,-4.5988,-4.6172,-4.6073,-4.5821,-4.6495,-4.6168,-4.5124,-4.533,-4.4691,-4.3477,-4.2783,-4.315,-4.4046,-4.352,-4.4014,-4.5223,-4.7169,-4.801,-4.8446,-2.6836,-2.6236,-2.5617,-2.5236,-2.5447,-2.544,-2.4894,-2.5817,-2.6426,-2.6144,-2.6788,-2.7389,-2.7636,-2.7956,-2.8288,-2.867,-2.8528,-2.8565,-2.8956,-2.877,-2.8805,-2.9158,-2.8862,-2.8416,-2.7907,-2.7336,-2.6996,-2.6776,-2.6523,-2.7002,-2.7941,-2.8859,-2.9327,-2.9397,-2.9653,-2.9653,-2.9486,-2.8892,-2.8641,-2.8369,-2.7225,-2.682,-2.6749,-2.6187,-2.627,-2.6527,-2.6061,-2.5986,-2.5889,-2.4669,-2.3731,-2.2804,-2.1123,-1.9912,-1.9052,-1.8783,-1.9187,-2.007,-2.1381,-2.2014,-2.2587,-2.3701,-2.4555,-2.5199,-2.5506,-2.6459,-2.7342,-2.7408,-2.7578,-2.7442,-2.6767,-2.7057,-2.7365,-2.7061,-2.699,-2.696,-2.7076,-2.6724,-2.7158,-2.8944,-3.0854,-3.3013,-3.5626,-3.6873,-3.7518,-3.7502,-3.8089,-3.8781,-3.9529,-4.1192,-4.3022,-4.5039,-4.5851,-4.6097,-4.5881,-4.5716,-4.5712,-4.5871,-4.6023,-4.6122,-4.6204,-4.6542,-4.597,-4.4778,-4.5192,-4.4326,-4.2603,-4.3264,-4.3509,-4.3549,-4.4165,-4.5038,-4.6104,-4.7468,-4.847,-4.9319,-2.6501,-2.6325,-2.607,-2.5693,-2.5956,-2.5983,-2.5392,-2.6016,-2.6446,-2.6038,-2.6426,-2.6806,-2.7053,-2.7069,-2.7275,-2.7778,-2.7533,-2.7528,-2.7847,-2.7952,-2.8003,-2.7954,-2.7846,-2.7365,-2.6488,-2.6103,-2.5781,-2.5481,-2.5647,-2.6201,-2.7095,-2.7683,-2.8239,-2.8527,-2.8598,-2.8598,-2.8713,-2.8341,-2.8116,-2.8004,-2.7575,-2.7565,-2.7672,-2.8164,-2.8496,-2.8636,-2.8316,-2.806,-2.7729,-2.6402,-2.5424,-2.4328,-2.2588,-2.1231,-2.0139,-1.9209,-1.9502,-2.0282,-2.1191,-2.1897,-2.2574,-2.3574,-2.4425,-2.5141,-2.5538,-2.64,-2.7038,-2.643,-2.6616,-2.6671,-2.6061,-2.6938,-2.7628,-2.7128,-2.783,-2.8383,-2.8174,-2.8573,-2.9597,-3.1374,-3.3269,-3.5138,-3.6976,-3.8088,-3.8467,-3.8022,-3.8755,-3.9428,-3.9808,-4.1957,-4.3758,-4.5172,-4.6004,-4.6284,-4.6031,-4.5676,-4.56,-4.577,-4.5821,-4.6023,-4.6332,-4.6381,-4.5946,-4.5053,-4.5173,-4.4193,-4.2589,-4.3195,-4.3346,-4.3305,-4.4455,-4.5555,-4.6636,-4.8049,-4.902,-4.9769,-2.6503,-2.6719,-2.682,-2.6318,-2.661,-2.6621,-2.5994,-2.6484,-2.6803,-2.6272,-2.6087,-2.6187,-2.6813,-2.6418,-2.6287,-2.6905,-2.67,-2.6546,-2.6722,-2.7017,-2.7006,-2.6788,-2.6665,-2.6164,-2.5241,-2.4768,-2.4404,-2.4292,-2.4592,-2.4956,-2.5503,-2.5588,-2.6324,-2.7641,-2.7314,-2.7398,-2.7799,-2.7324,-2.7068,-2.7105,-2.7592,-2.7854,-2.8137,-2.9906,-3.0535,-3.0524,-3.0504,-3.0207,-2.9573,-2.837,-2.7163,-2.5892,-2.4115,-2.3006,-2.2049,-2.0119,-2.0072,-2.0709,-2.0795,-2.1817,-2.2955,-2.3252,-2.4159,-2.5072,-2.5628,-2.6433,-2.6812,-2.5999,-2.5931,-2.5997,-2.5777,-2.6954,-2.8001,-2.8057,-2.9031,-3.0011,-3.0359,-3.1267,-3.2392,-3.3755,-3.4787,-3.6062,-3.7801,-3.8107,-3.8091,-3.7936,-3.9192,-4.0252,-4.0832,-4.2519,-4.4115,-4.5651,-4.6381,-4.6699,-4.6519,-4.6213,-4.6003,-4.577,-4.5667,-4.5803,-4.6186,-4.6186,-4.6005,-4.5704,-4.5136,-4.4288,-4.3231,-4.2787,-4.2828,-4.3321,-4.4543,-4.5681,-4.6933,-4.8813,-4.9625,-4.9911,-2.691,-2.6667,-2.6318,-2.5909,-2.6171,-2.6278,-2.5872,-2.6255,-2.65,-2.6233,-2.6595,-2.6613,-2.5826,-2.6257,-2.6375,-2.5794,-2.6148,-2.6289,-2.6062,-2.6337,-2.622,-2.5627,-2.5819,-2.5453,-2.4494,-2.4412,-2.4365,-2.4176,-2.4216,-2.4545,-2.5304,-2.5242,-2.5562,-2.6174,-2.6226,-2.6155,-2.5961,-2.6145,-2.59,-2.5513,-2.6663,-2.7806,-2.8935,-2.9839,-3.1489,-3.3277,-3.2698,-3.2316,-3.1912,-3.0359,-2.8905,-2.7654,-2.6308,-2.5088,-2.3642,-2.1369,-2.0686,-2.0866,-2.1567,-2.2124,-2.2656,-2.352,-2.4957,-2.6326,-2.7178,-2.7445,-2.7283,-2.6451,-2.6413,-2.6512,-2.6358,-2.7696,-2.9035,-2.9341,-3.0545,-3.1711,-3.2368,-3.3019,-3.4127,-3.6197,-3.6885,-3.765,-3.8927,-3.9096,-3.8828,-3.8038,-3.9191,-4.0137,-4.0737,-4.1985,-4.3249,-4.4609,-4.4731,-4.5028,-4.5457,-4.5215,-4.5246,-4.5632,-4.5528,-4.5615,-4.5922,-4.5887,-4.5618,-4.5164,-4.4884,-4.4093,-4.3014,-4.3428,-4.3439,-4.3465,-4.5247,-4.665,-4.7818,-4.9097,-5.0074,-5.0796,-2.7133,-2.7163,-2.7132,-2.6627,-2.6535,-2.6447,-2.6394,-2.6629,-2.6636,-2.6245,-2.6693,-2.6783,-2.6179,-2.6286,-2.6164,-2.5642,-2.5673,-2.5495,-2.5027,-2.5456,-2.5431,-2.4785,-2.5075,-2.4791,-2.3886,-2.3906,-2.3794,-2.3534,-2.4051,-2.4381,-2.4529,-2.473,-2.4981,-2.5186,-2.5085,-2.4868,-2.4779,-2.6113,-2.6296,-2.5771,-2.7678,-2.9425,-3.1191,-3.3,-3.461,-3.5793,-3.4734,-3.4046,-3.3591,-3.2579,-3.1236,-2.9947,-2.8741,-2.7423,-2.6024,-2.4084,-2.272,-2.1941,-2.264,-2.2774,-2.3047,-2.4476,-2.6193,-2.7583,-2.7721,-2.7897,-2.77,-2.6588,-2.6808,-2.716,-2.6872,-2.8621,-3.0172,-3.0625,-3.2092,-3.3289,-3.3826,-3.4805,-3.5958,-3.7187,-3.7948,-3.8649,-3.9365,-3.9484,-3.9318,-3.8902,-3.9597,-4.0271,-4.0772,-4.144,-4.2515,-4.4054,-4.4043,-4.4273,-4.4918,-4.4987,-4.5096,-4.53,-4.53,-4.5406,-4.5615,-4.5649,-4.566,-4.5598,-4.5257,-4.4683,-4.4104,-4.4683,-4.4693,-4.4605,-4.6657,-4.7895,-4.8683,-4.9789,-5.0558,-5.1125,-2.7426,-2.7842,-2.8088,-2.756,-2.7047,-2.6794,-2.7003,-2.7099,-2.6965,-2.6402,-2.6714,-2.6969,-2.6921,-2.6382,-2.602,-2.5946,-2.5232,-2.4698,-2.4366,-2.4779,-2.4835,-2.4388,-2.4522,-2.4318,-2.3534,-2.3428,-2.3257,-2.3134,-2.392,-2.4244,-2.4016,-2.4269,-2.4536,-2.4637,-2.4199,-2.4079,-2.4236,-2.6528,-2.7419,-2.7539,-2.9659,-3.1732,-3.39,-3.6868,-3.788,-3.7441,-3.6132,-3.5362,-3.4841,-3.4486,-3.3424,-3.2026,-3.0899,-2.9642,-2.8321,-2.7261,-2.5458,-2.376,-2.3976,-2.3924,-2.4288,-2.599,-2.774,-2.8893,-2.8269,-2.8528,-2.8465,-2.7056,-2.7542,-2.8173,-2.7936,-2.977,-3.1471,-3.1915,-3.3454,-3.467,-3.4921,-3.6305,-3.7356,-3.7462,-3.8374,-3.9148,-3.9501,-3.9601,-3.9759,-3.9901,-4.0256,-4.0556,-4.084,-4.1,-4.1777,-4.3378,-4.3565,-4.396,-4.4605,-4.4993,-4.5127,-4.4978,-4.5086,-4.523,-4.5336,-4.5511,-4.5854,-4.6297,-4.5804,-4.5566,-4.5594,-4.592,-4.6006,-4.6064,-4.801,-4.8938,-4.9313,-5.0449,-5.1006,-5.1296,-2.8054,-2.7834,-2.7524,-2.6945,-2.6828,-2.679,-2.6858,-2.7116,-2.7251,-2.7128,-2.7494,-2.748,-2.6571,-2.6637,-2.6526,-2.6147,-2.5006,-2.4677,-2.5207,-2.5233,-2.5008,-2.4638,-2.4836,-2.4551,-2.3566,-2.3371,-2.3564,-2.3969,-2.3402,-2.387,-2.5155,-2.4534,-2.4637,-2.5121,-2.4497,-2.4302,-2.4795,-2.7093,-2.9126,-3.0888,-3.2252,-3.3457,-3.4868,-3.7076,-3.7131,-3.5829,-3.6094,-3.5741,-3.5177,-3.4482,-3.3701,-3.2838,-3.2026,-3.0274,-2.8724,-2.8965,-2.8181,-2.6909,-2.5639,-2.6034,-2.7116,-2.8389,-2.9549,-3.0387,-3.038,-3.0776,-3.0704,-2.9224,-2.9403,-3.0031,-3.0773,-3.1689,-3.2601,-3.3636,-3.4644,-3.5458,-3.5917,-3.6661,-3.7413,-3.8117,-3.8827,-3.9325,-3.9484,-4.0157,-4.0417,-3.9951,-4.0628,-4.09,-4.0568,-4.0697,-4.0913,-4.1185,-4.2141,-4.3197,-4.4353,-4.4198,-4.438,-4.4831,-4.4995,-4.4978,-4.4886,-4.53,-4.558,-4.5885,-4.5711,-4.5871,-4.6219,-4.6085,-4.6261,-4.6765,-4.8105,-4.8819,-4.925,-5.0337,-5.1271,-5.2043,-2.7925,-2.7725,-2.7512,-2.7183,-2.7461,-2.766,-2.7426,-2.7341,-2.7287,-2.7402,-2.7975,-2.8086,-2.7344,-2.7255,-2.7041,-2.6404,-2.5485,-2.4869,-2.478,-2.4535,-2.4481,-2.4692,-2.4619,-2.4449,-2.4085,-2.395,-2.4032,-2.4181,-2.4202,-2.4367,-2.4572,-2.4598,-2.4639,-2.4563,-2.4292,-2.444,-2.5203,-2.6812,-2.863,-3.0589,-3.2222,-3.4016,-3.5607,-3.5995,-3.5367,-3.4524,-3.4736,-3.4858,-3.4787,-3.4316,-3.3955,-3.3658,-3.2559,-3.1438,-3.0414,-2.9821,-2.8866,-2.7938,-2.7297,-2.7943,-2.8909,-2.9684,-3.0674,-3.1453,-3.1388,-3.1501,-3.1341,-3.042,-3.0928,-3.1589,-3.186,-3.2987,-3.3938,-3.4304,-3.5266,-3.6006,-3.6196,-3.6966,-3.7754,-3.8335,-3.8985,-3.9468,-3.9694,-4.0505,-4.0912,-4.073,-4.139,-4.1713,-4.146,-4.1171,-4.1,-4.1067,-4.1673,-4.2238,-4.2723,-4.3352,-4.3715,-4.3961,-4.4461,-4.4759,-4.4831,-4.5247,-4.5632,-4.6038,-4.6661,-4.7187,-4.7711,-4.8357,-4.8567,-4.8609,-4.9531,-4.9796,-4.9782,-5.0828,-5.1607,-5.2236,-2.7675,-2.7743,-2.7754,-2.7524,-2.8052,-2.8392,-2.8013,-2.7696,-2.7538,-2.7678,-2.8226,-2.8497,-2.8205,-2.7903,-2.736,-2.6479,-2.6003,-2.5413,-2.4555,-2.4196,-2.4172,-2.476,-2.4395,-2.4166,-2.4289,-2.4209,-2.4325,-2.4447,-2.4959,-2.4939,-2.4319,-2.4825,-2.4828,-2.4366,-2.4293,-2.4653,-2.5456,-2.6534,-2.79,-2.9549,-3.1653,-3.3697,-3.5504,-3.4425,-3.3931,-3.3625,-3.3399,-3.3717,-3.4032,-3.3695,-3.361,-3.3412,-3.2469,-3.2006,-3.1627,-3.0589,-2.9817,-2.9173,-2.9026,-2.9641,-3.0438,-3.0984,-3.1793,-3.2363,-3.2205,-3.2143,-3.198,-3.1631,-3.2316,-3.2998,-3.3003,-3.4163,-3.5079,-3.4871,-3.5765,-3.6429,-3.6274,-3.7304,-3.8194,-3.8408,-3.9209,-3.9723,-3.9918,-4.0865,-4.1442,-4.1341,-4.2066,-4.2399,-4.2176,-4.162,-4.1268,-4.1204,-4.1274,-4.1392,-4.1613,-4.2591,-4.3086,-4.316,-4.4052,-4.4519,-4.472,-4.523,-4.5735,-4.6288,-4.7518,-4.8343,-4.8844,-5.0236,-5.0599,-5.0285,-5.0723,-5.0762,-5.0665,-5.1376,-5.2001,-5.2723,-2.761,-2.8111,-2.8306,-2.763,-2.7908,-2.817,-2.8079,-2.8183,-2.8304,-2.8221,-2.8419,-2.8587,-2.8669,-2.8171,-2.7383,-2.6063,-2.6325,-2.6317,-2.5735,-2.5109,-2.4757,-2.4893,-2.4127,-2.3828,-2.3885,-2.3522,-2.3989,-2.5318,-2.4991,-2.513,-2.5622,-2.5396,-2.5394,-2.532,-2.4995,-2.5192,-2.578,-2.693,-2.799,-2.9313,-3.1243,-3.2684,-3.3693,-3.3043,-3.3151,-3.3512,-3.2924,-3.2799,-3.2799,-3.2799,-3.1973,-3.1014,-3.1642,-3.1529,-3.1294,-3.1813,-3.2133,-3.2114,-3.0968,-3.1254,-3.2038,-3.2875,-3.3231,-3.3379,-3.3282,-3.3415,-3.3447,-3.3203,-3.3719,-3.4439,-3.5295,-3.5548,-3.5721,-3.5854,-3.6196,-3.6492,-3.6492,-3.7712,-3.8649,-3.8593,-3.9802,-4.045,-3.9968,-4.1442,-4.2001,-4.1115,-4.2341,-4.2718,-4.1683,-4.1599,-4.125,-4.0621,-4.0476,-4.1002,-4.2236,-4.2193,-4.2471,-4.3048,-4.39,-4.4293,-4.4367,-4.5213,-4.5786,-4.6288,-4.7725,-4.8542,-4.8992,-5.013,-5.0732,-5.0916,-5.0639,-5.1143,-5.1972,-5.1599,-5.2575,-5.4158,-2.7925,-2.8105,-2.8292,-2.8245,-2.8379,-2.8433,-2.8473,-2.8382,-2.8427,-2.8669,-2.8536,-2.8213,-2.8,-2.8028,-2.8139,-2.8528,-2.7643,-2.6769,-2.618,-2.5846,-2.534,-2.4452,-2.4212,-2.4005,-2.4035,-2.3866,-2.4313,-2.5418,-2.5052,-2.4956,-2.5327,-2.5175,-2.5128,-2.4932,-2.5181,-2.5713,-2.6568,-2.713,-2.8109,-2.9339,-3.0432,-3.1304,-3.1814,-3.1971,-3.2046,-3.2087,-3.225,-3.2238,-3.2123,-3.2018,-3.1637,-3.1385,-3.1767,-3.2081,-3.24,-3.3278,-3.3808,-3.406,-3.3615,-3.304,-3.263,-3.2891,-3.3638,-3.4364,-3.4392,-3.4611,-3.4812,-3.4851,-3.5237,-3.566,-3.577,-3.5921,-3.6045,-3.5991,-3.6289,-3.6554,-3.66,-3.7518,-3.8332,-3.8805,-4.0067,-4.086,-4.0849,-4.2275,-4.2932,-4.2408,-4.3166,-4.3406,-4.2741,-4.2311,-4.1816,-4.1346,-4.075,-4.0503,-4.069,-4.1197,-4.1513,-4.1636,-4.2992,-4.3676,-4.3898,-4.5007,-4.5786,-4.6385,-4.7725,-4.8497,-4.8992,-5.013,-5.0769,-5.097,-5.0557,-5.1096,-5.213,-5.2058,-5.2933,-5.4264,-2.803,-2.8029,-2.812,-2.8323,-2.8333,-2.8389,-2.8333,-2.8508,-2.8756,-2.9187,-2.9049,-2.8753,-2.8309,-2.8291,-2.8664,-2.9591,-2.8261,-2.7096,-2.6617,-2.6245,-2.5624,-2.4459,-2.4491,-2.4399,-2.4253,-2.4213,-2.4539,-2.5242,-2.518,-2.5027,-2.5019,-2.5157,-2.4988,-2.4746,-2.5116,-2.5777,-2.6675,-2.6915,-2.7696,-2.8816,-2.947,-2.9904,-3.0191,-3.0621,-3.097,-3.1137,-3.1436,-3.1431,-3.1325,-3.1556,-3.1787,-3.1927,-3.2361,-3.3095,-3.4105,-3.515,-3.5706,-3.6018,-3.5967,-3.52,-3.4256,-3.3738,-3.4129,-3.4727,-3.5214,-3.5577,-3.5824,-3.6007,-3.626,-3.6369,-3.616,-3.626,-3.6274,-3.6085,-3.6429,-3.6723,-3.6937,-3.7828,-3.8626,-3.9115,-4.035,-4.1102,-4.107,-4.2448,-4.3172,-4.2824,-4.3447,-4.3628,-4.319,-4.261,-4.2113,-4.1687,-4.1082,-4.0425,-3.9907,-4.0601,-4.0906,-4.0869,-4.2509,-4.342,-4.369,-4.4974,-4.5837,-4.6434,-4.7678,-4.8452,-4.8887,-5.0047,-5.0688,-5.0855,-5.0397,-5.1133,-5.2404,-5.2359,-5.3223,-5.4518,-2.805,-2.8027,-2.7828,-2.7536,-2.7762,-2.7842,-2.7562,-2.8543,-2.9417,-2.9731,-3.0114,-3.0278,-3.0013,-2.9152,-2.8648,-2.8707,-2.782,-2.7232,-2.7132,-2.6225,-2.5441,-2.495,-2.4887,-2.48,-2.4546,-2.4387,-2.449,-2.4869,-2.525,-2.5359,-2.4972,-2.5357,-2.5365,-2.5095,-2.498,-2.5427,-2.599,-2.6153,-2.6722,-2.7614,-2.8248,-2.8697,-2.8984,-2.9172,-2.986,-3.084,-3.0372,-3.0147,-3.0382,-3.1662,-3.2123,-3.2364,-3.3119,-3.4566,-3.6261,-3.7294,-3.7711,-3.7934,-3.7885,-3.7788,-3.7416,-3.6062,-3.4794,-3.4293,-3.5721,-3.6235,-3.6453,-3.6562,-3.6479,-3.6468,-3.6661,-3.6723,-3.66,-3.6274,-3.6693,-3.7165,-3.7562,-3.8795,-3.9614,-3.959,-4.0679,-4.1138,-4.0373,-4.175,-4.2462,-4.1959,-4.3072,-4.3459,-4.2618,-4.2445,-4.2106,-4.152,-4.1285,-4.0908,-4.0315,-4.0604,-4.0836,-4.1028,-4.2601,-4.3549,-4.3833,-4.5165,-4.592,-4.627,-4.7772,-4.8434,-4.8605,-4.984,-5.0506,-5.0637,-5.0157,-5.1262,-5.3015,-5.2416,-5.3452,-5.521,-2.7867,-2.7881,-2.792,-2.8049,-2.8427,-2.8957,-2.979,-2.9812,-2.9833,-3.0369,-2.9975,-2.9821,-3.0069,-2.9236,-2.8644,-2.8536,-2.7899,-2.7341,-2.6904,-2.6076,-2.521,-2.4433,-2.4378,-2.4218,-2.3679,-2.4091,-2.4581,-2.4915,-2.4811,-2.4899,-2.5059,-2.4757,-2.461,-2.4726,-2.4992,-2.5562,-2.6377,-2.6268,-2.6725,-2.7318,-2.7179,-2.7275,-2.7322,-2.7835,-2.8333,-2.8887,-2.9811,-3.0382,-3.085,-3.2113,-3.313,-3.4047,-3.5075,-3.6543,-3.7947,-3.7929,-3.8282,-3.8955,-3.9646,-3.915,-3.8553,-3.8687,-3.7404,-3.6542,-3.8346,-3.7728,-3.6974,-3.7629,-3.7241,-3.681,-3.6677,-3.6986,-3.7247,-3.7311,-3.8122,-3.8916,-3.9445,-3.9846,-4.0271,-4.0797,-4.124,-4.151,-4.1338,-4.2091,-4.2373,-4.1904,-4.2187,-4.2407,-4.2476,-4.2318,-4.1869,-4.1243,-4.1005,-4.0664,-4.0315,-4.0299,-4.0323,-4.0375,-4.1562,-4.2552,-4.3408,-4.4421,-4.5481,-4.6512,-4.7137,-4.7626,-4.7976,-4.8489,-4.9212,-4.9929,-4.9399,-5.0389,-5.209,-5.1518,-5.2541,-5.4229,-2.7535,-2.7696,-2.791,-2.8094,-2.8656,-2.9336,-3.0342,-3.0088,-2.9795,-2.9866,-2.977,-2.9747,-2.9776,-2.9203,-2.8745,-2.8355,-2.7621,-2.6875,-2.6191,-2.5522,-2.4867,-2.3888,-2.383,-2.3677,-2.3677,-2.4024,-2.4452,-2.4843,-2.4432,-2.4423,-2.4549,-2.4255,-2.4108,-2.4232,-2.4734,-2.5349,-2.605,-2.5813,-2.6179,-2.6681,-2.61,-2.599,-2.6127,-2.6591,-2.7057,-2.7373,-2.9174,-3.0219,-3.0846,-3.2509,-3.4134,-3.5749,-3.6838,-3.8012,-3.8993,-3.8767,-3.9181,-3.9775,-4.0155,-4.005,-3.9954,-4.0021,-3.9034,-3.821,-3.9134,-3.8196,-3.717,-3.7779,-3.7328,-3.6739,-3.6523,-3.7093,-3.7683,-3.7935,-3.9044,-4.0087,-4.0743,-4.0707,-4.0802,-4.1495,-4.1322,-4.1201,-4.1251,-4.1682,-4.1876,-4.1633,-4.1639,-4.1698,-4.19,-4.1901,-4.1677,-4.1133,-4.0825,-4.059,-4.0463,-4.034,-4.0271,-4.0337,-4.1353,-4.2356,-4.3331,-4.4242,-4.5288,-4.6477,-4.6842,-4.7178,-4.7529,-4.787,-4.8443,-4.9119,-4.89,-4.9831,-5.127,-5.0986,-5.1868,-5.3243,-2.7173,-2.7522,-2.7761,-2.7939,-2.8562,-2.9125,-2.9666,-2.9764,-2.9514,-2.8771,-2.9554,-2.9986,-2.9312,-2.9058,-2.8686,-2.801,-2.7093,-2.6079,-2.5167,-2.4855,-2.4231,-2.3352,-2.3119,-2.3323,-2.4277,-2.4029,-2.4118,-2.4443,-2.4186,-2.386,-2.3611,-2.386,-2.386,-2.3611,-2.4239,-2.4741,-2.5194,-2.5095,-2.5369,-2.5767,-2.5138,-2.4923,-2.5119,-2.5467,-2.5936,-2.6628,-2.8426,-2.954,-3.0596,-3.2962,-3.5279,-3.7405,-3.821,-3.8865,-3.9436,-3.9606,-4.0096,-4.0376,-3.9838,-4.067,-4.1342,-4.0421,-3.9895,-3.9419,-3.8835,-3.7857,-3.7171,-3.7483,-3.7044,-3.6598,-3.6457,-3.7263,-3.8106,-3.8542,-3.9665,-4.0896,-4.1816,-4.1527,-4.1442,-4.1951,-4.1182,-4.0637,-4.0571,-4.0782,-4.0953,-4.1073,-4.1054,-4.1064,-4.1101,-4.1357,-4.142,-4.1117,-4.0869,-4.0762,-4.0785,-4.0628,-4.0631,-4.0762,-4.1674,-4.2593,-4.3436,-4.4384,-4.5299,-4.6196,-4.676,-4.7088,-4.7267,-4.7788,-4.8151,-4.8344,-4.866,-4.9477,-5.0483,-5.0642,-5.1345,-5.2314,-2.7616,-2.7482,-2.7575,-2.8381,-2.8648,-2.885,-2.9188,-2.9622,-2.9943,-2.9797,-3.005,-2.9977,-2.9477,-2.8751,-2.8095,-2.7839,-2.676,-2.5856,-2.4876,-2.4156,-2.3464,-2.2796,-2.2667,-2.2851,-2.334,-2.3554,-2.3769,-2.3839,-2.3447,-2.3238,-2.323,-2.2981,-2.2988,-2.3238,-2.3897,-2.4665,-2.5504,-2.5386,-2.5528,-2.5494,-2.5023,-2.4766,-2.4599,-2.4907,-2.5663,-2.6779,-2.7663,-2.9258,-3.14,-3.4305,-3.6616,-3.8203,-3.8554,-3.9241,-3.9922,-3.9706,-3.989,-4.0249,-4.0526,-4.0946,-4.1191,-4.1134,-4.0766,-4.0209,-3.9816,-3.8399,-3.739,-3.8219,-3.7992,-3.7654,-3.7931,-3.8927,-3.996,-4.0558,-4.1768,-4.2964,-4.3788,-4.3478,-4.3321,-4.3649,-4.2412,-4.1456,-4.1206,-3.9782,-3.9279,-4.0259,-3.9381,-3.9489,-4.1022,-4.1024,-4.1134,-4.141,-4.1118,-4.1083,-4.1239,-4.1006,-4.0931,-4.1,-4.1308,-4.1917,-4.2812,-4.361,-4.4589,-4.5711,-4.6593,-4.7178,-4.7468,-4.797,-4.8265,-4.8494,-4.8768,-4.9123,-4.9524,-4.9665,-5.0369,-5.1509,-2.849,-2.83,-2.828,-2.9055,-2.9327,-2.9327,-2.9225,-2.9665,-2.9937,-2.9628,-2.995,-2.9943,-2.9353,-2.8522,-2.7851,-2.736,-2.639,-2.521,-2.3988,-2.3476,-2.2909,-2.2222,-2.2162,-2.2372,-2.2625,-2.3082,-2.3444,-2.3595,-2.3149,-2.2981,-2.3106,-2.2738,-2.2856,-2.3362,-2.3882,-2.4541,-2.5421,-2.5285,-2.5464,-2.5719,-2.5194,-2.4859,-2.4637,-2.4981,-2.5621,-2.66,-2.7803,-3.0065,-3.2923,-3.4919,-3.6654,-3.8048,-3.8506,-3.9037,-3.9526,-3.9449,-3.9775,-4.0185,-4.0593,-4.1149,-4.1563,-4.1639,-4.1155,-4.0642,-4.0373,-3.8924,-3.7945,-3.8713,-3.8316,-3.7962,-3.8411,-3.9838,-4.1119,-4.1549,-4.3048,-4.4298,-4.4776,-4.4348,-4.4096,-4.4199,-4.2671,-4.1308,-4.049,-3.9018,-3.8467,-3.9313,-3.857,-3.8717,-4.024,-4.0427,-4.0772,-4.1314,-4.1387,-4.1674,-4.2108,-4.1895,-4.183,-4.1928,-4.16,-4.1918,-4.2724,-4.3506,-4.4483,-4.5574,-4.6613,-4.7312,-4.7615,-4.8028,-4.8381,-4.8642,-4.8874,-4.9061,-4.9276,-4.9434,-5.0124,-5.1254,-2.9345,-2.9273,-2.9217,-2.9775,-2.9907,-2.9795,-2.9419,-2.9714,-2.9818,-2.9237,-2.9688,-2.9886,-2.9128,-2.8326,-2.7554,-2.6663,-2.575,-2.4571,-2.3145,-2.2767,-2.2441,-2.1759,-2.1835,-2.2042,-2.2408,-2.2907,-2.335,-2.3479,-2.2856,-2.2731,-2.2988,-2.2731,-2.2988,-2.3487,-2.3984,-2.4649,-2.5191,-2.5311,-2.5657,-2.5951,-2.5382,-2.5153,-2.5032,-2.5426,-2.5942,-2.6628,-2.8486,-3.1241,-3.4092,-3.5108,-3.6319,-3.7465,-3.8068,-3.8514,-3.8841,-3.9154,-3.9672,-4.0083,-4.0402,-4.1198,-4.1932,-4.1827,-4.1442,-4.0974,-4.0843,-3.9614,-3.8641,-3.9299,-3.8856,-3.8576,-3.9154,-4.0884,-4.2334,-4.2682,-4.4247,-4.5551,-4.5694,-4.5303,-4.4958,-4.4785,-4.2997,-4.127,-4.0047,-3.8871,-3.8339,-3.8802,-3.8286,-3.8382,-3.9363,-3.9844,-4.0561,-4.1517,-4.1816,-4.2339,-4.3217,-4.2827,-4.2689,-4.2798,-4.2124,-4.2088,-4.264,-4.3638,-4.4551,-4.5379,-4.6677,-4.7425,-4.7783,-4.8148,-4.8494,-4.8822,-4.8978,-4.9127,-4.9276,-4.9483,-5.0266,-5.1433,-2.9574,-2.948,-2.9658,-2.998,-2.9635,-2.9341,-2.9344,-2.9922,-3.0121,-2.9447,-2.9685,-2.9669,-2.8833,-2.7838,-2.6735,-2.5689,-2.5156,-2.4302,-2.3079,-2.204,-2.1402,-2.1288,-2.2012,-2.2598,-2.3004,-2.3612,-2.369,-2.3106,-2.2738,-2.2606,-2.2606,-2.2856,-2.3113,-2.323,-2.4487,-2.5143,-2.556,-2.6181,-2.6227,-2.6048,-2.5948,-2.5752,-2.5419,-2.5941,-2.6578,-2.7603,-2.9728,-3.1423,-3.2867,-3.4584,-3.5661,-3.6438,-3.763,-3.8198,-3.8514,-3.9154,-3.9478,-3.989,-4.0402,-4.0909,-4.1479,-4.1579,-4.1476,-4.132,-4.1429,-4.0333,-3.9557,-4.043,-4.0875,-4.1407,-4.2295,-4.3353,-4.4464,-4.5563,-4.6413,-4.7146,-4.7805,-4.7858,-4.7527,-4.6743,-4.4538,-4.2939,-4.254,-4.0337,-3.915,-3.9706,-3.8149,-3.7923,-3.952,-3.9764,-4.0753,-4.2747,-4.2644,-4.3169,-4.4433,-4.3331,-4.2752,-4.2798,-4.2124,-4.1807,-4.1815,-4.3527,-4.4387,-4.4743,-4.6679,-4.771,-4.7992,-4.8513,-4.8751,-4.8822,-4.9015,-4.9083,-4.915,-4.9371,-5.0515,-5.2062,-3.0868,-3.069,-3.0575,-3.0564,-3.0297,-2.9847,-2.9316,-2.9902,-3.0194,-2.9529,-2.9796,-2.9772,-2.9024,-2.7841,-2.6663,-2.5609,-2.4471,-2.3231,-2.2108,-2.2101,-2.2101,-2.1759,-2.2414,-2.286,-2.31,-2.3526,-2.3741,-2.3611,-2.3355,-2.3113,-2.3113,-2.3362,-2.3736,-2.4232,-2.4857,-2.5496,-2.6141,-2.6466,-2.6667,-2.6624,-2.6624,-2.6491,-2.6345,-2.6876,-2.7594,-2.8665,-3.0478,-3.1944,-3.3082,-3.3765,-3.4633,-3.5491,-3.6743,-3.7331,-3.7706,-3.8742,-3.8976,-3.9225,-4.0262,-4.0434,-4.0514,-4.1432,-4.1272,-4.1045,-4.1671,-4.1582,-4.1266,-4.1292,-4.1893,-4.2768,-4.3969,-4.5633,-4.7177,-4.7926,-4.8603,-4.9032,-4.9292,-4.8905,-4.8154,-4.6951,-4.5583,-4.4299,-4.3099,-4.1444,-4.0393,-4.0199,-3.9062,-3.8898,-4.0194,-4.0446,-4.153,-4.3678,-4.3786,-4.4416,-4.5646,-4.4296,-4.3613,-4.3504,-4.2361,-4.178,-4.1789,-4.3581,-4.4511,-4.4782,-4.6837,-4.7897,-4.8269,-4.866,-4.8927,-4.9079,-4.9131,-4.915,-4.922,-4.9896,-5.066,-5.1494]},{"header":{"parameterUnit":"m.s-1","parameterCategory":1,"la1":30.6,"la2":28.766,"lo1":-90.7593,"lo2":-88.6598,"dy":0.0162,"dx":0.0183,"nx":116,"ny":114,"refTime":"2024-07-03T12:00:00:Z","depth":0,"parameterNumber":3,"parameterNumberName":"V-component_of_WINDS"},"data":[0.0,0.0,0.0,0.0,0.0,0.0,0.0,0.0,0.0,0.0,0.0,0.0,0.0,0.0,0.0,0.0,0.0,0.0,0.0,0.0,0.0,0.0,0.0,0.0,0.0,0.0,0.0,0.0,0.0,0.0,0.0,0.0,0.0,0.0,0.0,0.0,0.0,0.0,0.0,0.0,0.0,0.0,0.0,0.0,0.0,0.0,0.0,0.0,0.0,0.0,0.0,0.0,0.0,0.0,0.0,0.0,0.0,0.0,0.0,0.0,0.0,0.0,0.0,0.0,0.0,0.0,0.0,0.0,0.0,0.0,0.0,0.0,0.0,0.0,0.0,0.0,0.0,0.0,0.0,0.0,0.0,0.0,0.0,0.0,0.0,0.0,0.0,0.0,0.0,0.0,0.0,0.0,0.0,0.0,0.0,0.0,0.0,0.0,0.0,0.0,0.0,0.0,0.0,0.0,0.0,0.0,0.0,0.0,0.0,0.0,0.0,0.0,0.0,0.0,0.0,0.0,0.0,0.0,0.0,0.0,0.0,0.0,0.0,0.0,0.0,0.0,0.0,0.0,0.0,0.0,0.0,0.0,0.0,0.0,0.0,0.0,0.0,0.0,0.0,0.0,0.0,0.0,0.0,0.0,0.0,0.0,0.0,0.0,0.0,0.0,0.0,0.0,0.0,0.0,0.0,0.0,0.0,0.0,0.0,0.0,0.0,0.0,0.0,0.0,0.0,0.0,0.0,0.0,0.0,0.0,0.0,0.0,0.0,0.0,0.0,0.0,0.0,0.0,0.0,0.0,0.0,0.0,0.0,0.0,0.0,0.0,0.0,0.0,0.0,0.0,0.0,0.0,0.0,0.0,0.0,0.0,0.0,0.0,0.0,0.0,0.0,0.0,0.0,0.0,0.0,0.0,0.0,0.0,0.0,0.0,0.0,0.0,0.0,0.0,0.0,0.0,0.0,0.0,0.0,0.0,0.0,0.0,0.0,0.0,0.0,0.0,0.0,0.0,0.0,0.0,0.0,0.0,0.0,0.0,0.0,0.0,0.0,0.0,0.0,0.0,0.0,0.0,0.0,0.0,0.0,0.0,0.0,0.0,0.0,0.0,0.0,0.0,0.0,0.0,0.0,0.0,0.0,0.0,0.0,0.0,0.0,0.0,0.0,0.0,0.0,0.0,0.0,0.0,0.0,0.0,0.0,0.0,0.0,0.0,0.0,0.0,0.0,0.0,0.0,0.0,0.0,0.0,0.0,0.0,0.0,0.0,0.0,0.0,0.0,0.0,0.0,0.0,0.0,0.0,0.0,0.0,0.0,0.0,0.0,0.0,0.0,0.0,0.0,0.0,0.0,0.0,0.0,0.0,0.0,0.0,0.0,0.0,0.0,0.0,0.0,0.0,0.0,0.0,0.0,0.0,0.0,0.0,0.0,0.0,0.0,0.0,0.0,0.0,0.0,0.0,0.0,0.0,0.0,0.0,0.0,0.0,0.0,0.0,0.0,0.0,0.0,0.0,0.0,0.0,0.0,0.0,0.0,0.0,0.0,0.0,0.0,0.0,0.0,0.0,0.0,0.0,0.0,0.0,0.0,0.0,0.0,0.0,0.0,0.0,0.0,0.0,0.0,0.0,0.0,0.0,0.0,0.0,0.0,0.0,0.0,0.0,0.0,0.0,0.0,0.0,0.0,0.0,0.0,0.0,0.0,0.0,0.0,0.0,0.0,0.0,0.0,0.0,0.0,0.0,0.0,0.0,0.0,0.0,0.0,0.0,0.0,0.0,0.0,0.0,0.0,0.0,0.0,0.0,0.0,0.0,0.0,0.0,0.0,0.0,0.0,0.0,0.0,0.0,0.0,0.0,0.0,0.0,0.0,0.0,0.0,0.0,0.0,0.0,0.0,0.0,0.0,0.0,0.0,0.0,0.0,0.0,0.0,0.0,0.0,0.0,0.0,0.0,0.0,0.0,0.0,0.0,0.0,0.0,0.0,0.0,0.0,0.0,0.0,0.0,0.0,0.0,0.0,0.0,0.0,0.0,0.0,0.0,0.0,0.0,0.0,0.0,0.0,0.0,0.0,0.0,0.0,0.0,0.0,0.0,0.0,0.0,0.0,0.0,0.0,0.0,0.0,0.0,0.0,0.0,0.0,0.0,0.0,0.0,0.0,0.0,0.0,0.0,0.0,0.0,0.0,0.0,0.0,0.0,0.0,0.0,0.0,0.0,0.0,0.0,0.0,0.0,0.0,0.0,0.0,0.0,0.0,0.0,0.0,0.0,0.0,0.0,0.0,0.0,0.0,0.0,0.0,0.0,0.0,0.0,0.0,0.0,0.0,0.0,0.0,0.0,0.0,0.0,0.0,0.0,0.0,0.0,0.0,0.0,0.0,0.0,0.0,0.0,0.0,0.0,0.0,0.0,0.0,0.0,0.0,0.0,0.0,0.0,0.0,0.0,0.0,0.0,0.0,0.0,0.0,0.0,0.0,0.0,0.0,0.0,0.0,0.0,0.0,0.0,0.0,0.0,0.0,0.0,0.0,0.0,0.0,0.0,0.0,0.0,0.0,0.0,0.0,0.0,0.0,0.0,0.0,0.0,0.0,0.0,0.0,0.0,0.0,0.0,0.0,0.0,0.0,0.0,0.0,0.0,0.0,0.0,0.0,0.0,0.0,0.0,0.0,0.0,0.0,0.0,0.0,0.0,0.0,0.0,0.0,0.0,0.0,0.0,0.0,0.0,0.0,0.0,0.0,0.0,0.0,0.0,0.0,0.0,0.0,0.0,0.0,0.0,0.0,0.0,0.0,0.0,0.0,0.0,0.0,0.0,0.0,0.0,0.0,0.0,0.0,0.0,0.0,0.0,0.0,0.0,0.0,0.0,0.0,0.0,0.0,0.0,0.0,0.0,0.0,0.0,0.0,0.0,0.0,0.0,0.0,0.0,0.0,0.0,0.0,0.0,0.0,0.0,0.0,0.0,0.0,0.0,0.0,0.0,0.0,0.0,0.0,0.0,0.0,0.0,0.0,0.0,0.0,0.0,0.0,0.0,0.0,0.0,0.0,0.0,0.0,0.0,0.0,0.0,0.0,0.0,0.0,0.0,0.0,0.0,0.0,0.0,0.0,0.0,0.0,0.0,0.0,0.0,0.0,0.0,0.0,0.0,0.0,0.0,0.0,0.0,0.0,0.0,0.0,0.0,0.0,0.0,0.0,0.0,0.0,0.0,0.0,0.0,0.0,0.0,0.0,0.0,0.0,0.0,0.0,0.0,0.0,0.0,0.0,0.0,0.0,0.0,0.0,0.0,0.0,0.0,0.0,0.0,0.0,0.0,0.0,0.0,0.0,0.0,0.0,0.0,0.0,0.0,0.0,0.0,0.0,0.0,0.0,0.0,0.0,0.0,0.0,0.0,0.0,0.0,0.0,0.0,0.0,0.0,0.0,0.0,0.0,0.0,0.0,0.0,0.0,0.0,0.0,0.0,0.0,0.0,0.0,0.0,0.0,0.0,0.0,0.0,0.0,0.0,0.0,0.0,0.0,0.0,0.0,0.0,0.0,0.0,0.0,0.0,0.0,0.0,0.0,0.0,0.0,0.0,0.0,0.0,0.0,0.0,0.0,0.0,0.0,0.0,0.0,0.0,0.0,0.0,0.0,0.0,0.0,0.0,0.0,0.0,0.0,0.0,0.0,0.0,0.0,0.0,0.0,0.0,0.0,0.0,0.0,0.0,0.0,0.0,0.0,0.0,0.0,0.0,0.0,0.0,0.0,0.0,0.0,0.0,0.0,0.0,0.0,0.0,0.0,0.0,0.0,0.0,0.0,0.0,0.0,0.0,0.0,0.0,0.0,0.0,0.0,0.0,0.0,0.0,0.0,0.0,0.0,0.0,0.0,0.0,0.0,0.0,0.0,0.0,0.0,0.0,0.0,0.0,0.0,0.0,0.0,0.0,0.0,0.0,0.0,0.0,0.0,0.0,0.0,0.0,0.0,0.0,0.0,0.0,0.0,0.0,0.0,0.0,0.0,0.0,0.0,0.0,0.0,0.0,0.0,0.0,0.0,0.0,0.0,0.0,0.0,0.0,0.0,0.0,0.0,0.0,0.0,0.0,0.0,0.0,0.0,0.0,0.0,0.0,0.0,0.0,0.0,0.0,0.0,0.0,0.0,0.0,0.0,0.0,0.0,0.0,0.0,0.0,0.0,0.0,0.0,0.0,0.0,0.0,0.0,0.0,0.0,0.0,0.0,0.0,0.0,0.0,0.0,0.0,0.0,0.0,0.0,0.0,0.0,0.0,0.0,0.0,0.0,0.0,0.0,0.0,0.0,0.0,0.0,0.0,0.0,0.0,0.0,0.0,0.0,0.0,0.0,0.0,0.0,0.0,0.0,0.0,0.0,0.0,0.0,0.0,0.0,0.0,0.0,0.0,0.0,0.0,0.0,0.0,0.0,0.0,0.0,0.0,0.0,0.0,0.0,0.0,0.0,0.0,0.0,0.0,0.0,0.0,0.0,0.0,0.0,0.0,0.0,0.0,0.0,0.0,0.0,0.0,0.0,0.0,0.0,0.0,0.0,0.0,0.0,0.0,0.0,0.0,0.0,0.0,0.0,0.0,0.0,0.0,0.0,0.0,0.0,0.0,0.0,0.0,0.0,0.0,0.0,0.0,0.0,0.0,0.0,0.0,0.0,0.0,0.0,0.0,0.0,0.0,0.0,0.0,0.0,0.0,0.0,0.0,0.0,0.0,0.0,0.0,0.0,0.0,0.0,0.0,0.0,0.0,0.0,0.0,0.0,0.0,0.0,0.0,0.0,0.0,0.0,0.0,0.0,0.0,0.0,0.0,0.0,0.0,0.0,0.0,0.0,0.0,0.0,0.0,0.0,0.0,0.0,0.0,0.0,0.0,0.0,0.0,0.0,0.0,0.0,0.0,0.0,0.0,0.0,0.0,0.0,0.0,0.0,0.0,0.0,0.0,0.0,0.0,0.0,0.0,0.0,0.0,0.0,0.0,0.0,0.0,0.0,0.0,0.0,0.0,0.0,0.0,0.0,0.0,0.0,0.0,0.0,0.0,0.0,0.0,0.0,0.0,0.0,0.0,0.0,0.0,0.0,0.0,0.0,0.0,0.0,0.0,0.0,0.0,0.0,0.0,0.0,0.0,0.0,0.0,0.0,0.0,0.0,0.0,0.0,0.0,0.0,0.0,0.0,0.0,0.0,0.0,0.0,0.0,0.0,0.0,0.0,0.0,0.0,0.0,0.0,0.0,0.0,0.0,0.0,0.0,0.0,0.0,0.0,0.0,0.0,0.0,0.0,0.0,0.0,0.0,0.0,0.0,0.0,0.0,0.0,0.0,0.0,0.0,0.0,0.0,0.0,0.0,0.0,0.0,0.0,0.0,0.0,0.0,0.0,0.0,0.0,0.0,0.0,0.0,0.0,0.0,0.0,0.0,0.0,0.0,0.0,0.0,0.0,0.0,0.0,0.0,0.0,0.0,0.0,0.0,0.0,0.0,0.0,0.0,0.0,0.0,0.0,0.0,0.0,0.0,0.0,0.0,0.0,0.0,0.0,0.0,0.0,0.0,0.0,0.0,0.0,0.0,0.0,0.0,0.0,0.0,0.0,0.0,0.0,0.0,0.0,0.0,0.0,0.0,0.0,0.0,0.0,0.0,0.0,0.0,0.0,0.0,0.0,0.0,0.0,0.0,0.0,0.0,0.0,0.0,0.0,0.0,0.0,0.0,0.0,0.0,0.0,0.0,0.0,0.0,0.0,0.0,0.0,0.0,0.0,0.0,0.0,0.0,0.0,0.0,0.0,0.0,0.0,0.0,0.0,0.0,0.0,0.0,0.0,0.0,0.0,0.0,0.0,0.0,0.0,0.0,0.0,0.0,0.0,0.0,0.0,0.0,0.0,0.0,0.0,0.0,0.0,0.0,0.0,0.0,0.0,0.0,0.0,0.0,0.0,0.0,0.0,0.0,0.0,0.0,0.0,0.0,0.0,0.0,0.0,0.0,0.0,0.0,0.0,0.0,0.0,0.0,0.0,0.0,0.0,0.0,0.0,0.0,0.0,0.0,0.0,0.0,0.0,0.0,0.0,0.0,1.1375,1.0887,0.0,0.0,0.0,0.0,0.0,0.0,0.0,0.0,0.0,0.0,0.0,0.0,0.0,0.0,0.0,0.0,0.0,0.0,0.0,0.0,0.0,0.0,0.0,0.8879,0.9092,0.9125,0.8785,0.8704,0.9057,0.0,0.0,0.0,0.0,0.0,1.2381,1.2858,1.3884,1.5534,1.625,1.6168,1.5353,1.4326,1.3651,1.324,0.0,0.0,0.0,0.0,0.0,0.0,0.0,0.0,0.0,0.0,0.0,0.0,0.0,0.0,0.0,0.0,0.0,0.0,0.0,0.0,0.0,0.0,0.0,0.0,0.0,0.0,0.0,0.0,0.0,0.0,0.0,0.0,0.0,0.0,0.0,0.0,0.0,0.0,0.0,0.0,0.0,0.0,0.0,0.0,0.0,0.0,0.0,0.0,0.0,0.0,0.0,0.0,0.0,0.0,0.0,0.0,0.0,0.0,0.0,0.0,0.0,0.0,0.0,0.0,0.0,0.0,0.0,0.0,0.0,0.0,1.2631,1.1763,0.0,0.0,0.0,0.0,0.0,0.0,0.0,0.0,0.0,0.0,0.0,0.0,0.0,0.0,0.0,0.0,0.0,0.0,0.0,0.0,0.0,0.7727,0.8347,0.9111,0.9532,0.9395,0.9507,0.963,0.9703,1.0512,0.0,0.0,0.0,1.2744,1.3544,1.3543,1.4365,1.6014,1.5721,1.5275,1.4676,1.3278,1.2524,1.2283,1.1426,0.0,0.0,0.0,0.0,0.0,0.0,0.0,0.0,0.0,0.0,0.0,0.0,0.0,0.0,0.0,0.0,0.0,0.0,0.0,0.0,0.0,0.0,0.0,0.0,0.0,0.0,0.0,0.0,0.0,0.0,0.0,0.0,0.0,0.0,0.0,0.0,0.0,0.0,0.0,0.0,0.0,0.0,0.0,0.0,0.0,0.0,0.0,0.0,0.0,0.0,0.0,0.0,0.0,0.0,0.0,0.0,0.0,0.0,0.0,0.0,0.0,0.0,0.0,1.7231,1.7662,1.8521,1.7199,1.6792,1.7026,1.4777,1.3556,1.3223,1.4077,0.0,0.0,0.0,0.0,0.0,0.0,0.0,0.0,0.0,0.0,0.0,0.0,0.0,0.0,0.0,0.0,0.0,0.0,0.0,0.8352,0.8394,0.907,0.9347,0.892,0.9064,0.9329,0.9673,1.0257,0.0,0.0,1.1958,1.2651,1.3408,1.3365,1.4103,1.5661,1.5274,1.4951,1.4672,1.3434,1.2377,1.1491,0.9943,0.9037,0.8511,0.0,0.0,0.0,0.0,0.0,0.0,0.0,0.0,0.0,0.0,0.0,0.0,0.0,0.0,0.0,0.0,0.0,0.0,0.0,0.0,0.0,0.0,0.0,0.0,0.0,0.0,0.0,0.0,0.0,0.0,0.0,0.0,0.0,0.0,0.0,0.0,0.0,0.0,0.0,0.0,0.0,1.0912,1.1605,0.0,0.0,0.0,0.0,0.0,0.0,0.0,0.0,0.0,0.0,0.0,0.0,0.0,1.1894,1.3846,1.4648,1.5755,1.7241,1.8528,1.956,2.0364,2.0488,2.0677,2.0824,1.9789,0.0,1.5861,1.6559,0.0,0.0,0.0,0.0,0.0,0.0,0.0,0.0,0.0,0.0,0.0,0.0,0.0,0.0,0.0,0.0,0.0,0.0,0.0,0.0,0.0,0.9293,0.9292,0.894,0.9167,0.9299,0.9241,0.0,1.1474,1.1617,1.2882,1.3737,1.4079,1.4009,1.4219,1.4759,1.4467,1.4281,1.4168,1.3238,1.2479,1.1846,1.0527,0.9123,0.7623,0.5604,0.0,0.0,0.0,0.0,0.0,0.0,0.0,0.0,0.0,0.0,0.0,0.0,0.0,0.0,0.0,0.0,0.0,0.0,0.0,0.0,0.0,0.0,0.0,0.0,0.0,0.0,0.0,0.0,0.0,0.0,0.0,0.0,0.0,0.0,0.0,0.0,0.0,0.0,0.0,1.122,1.1907,1.277,1.2535,1.2279,0.0,0.0,0.0,0.0,0.0,0.0,0.0,0.0,0.0,1.0474,1.1439,1.2766,1.443,1.5586,1.6889,1.8329,1.9203,2.0261,2.1488,2.1435,2.1771,2.2363,2.1962,2.1333,2.0474,1.9257,1.8558,1.8273,0.0,0.0,0.0,0.0,1.6595,1.5581,0.0,0.0,0.0,0.0,0.0,0.0,0.0,0.0,0.0,0.0,0.0,0.0,0.9948,0.9862,0.9545,0.8948,0.9395,0.0,0.0,0.0,1.2052,1.2172,1.3541,1.4423,1.4658,1.4375,1.4018,1.3558,1.3556,1.3542,1.3515,1.3151,1.2833,1.2492,1.1537,0.9889,0.7719,0.592,0.4431,0.0,0.0,0.0,0.0,0.0,0.0,0.0,0.0,0.0,0.0,0.0,0.0,0.0,0.0,0.0,0.0,0.0,0.0,0.0,0.0,0.0,0.0,0.0,0.0,0.0,0.0,0.0,0.0,0.0,0.0,0.0,0.0,0.0,0.0,0.0,0.0,0.0,0.0,1.3131,1.3323,1.419,1.4064,1.3628,0.0,0.0,0.0,0.0,0.0,0.0,1.1607,1.1193,1.1143,1.1594,1.2506,1.3715,1.5168,1.6378,1.7699,1.9074,1.9823,2.0882,2.2211,2.2648,2.3256,2.3985,2.4167,2.4474,2.4664,2.1715,2.0354,2.0101,1.9685,1.8878,1.807,1.8886,1.8438,1.7523,0.0,0.0,0.0,0.0,0.0,0.0,0.0,0.0,0.0,0.0,0.0,1.203,1.1041,0.0,1.0232,0.8749,0.9632,1.0057,0.0,0.0,1.2084,1.2902,1.334,1.3929,1.4779,1.3982,1.309,1.2114,1.2613,1.2814,1.2777,1.3426,1.3514,1.3141,1.2586,1.1476,0.9963,0.7576,0.6094,0.5203,0.0,0.0,0.0,0.0,0.0,0.0,0.0,0.0,0.0,0.0,0.0,0.0,0.0,0.0,0.0,0.0,0.0,0.0,0.0,0.0,0.0,0.0,0.0,0.0,0.0,0.0,0.0,0.0,0.0,0.0,0.0,0.0,0.0,0.0,0.0,0.0,0.0,0.0,0.0,1.5807,1.6476,0.0,0.0,0.0,0.0,1.3398,1.2917,1.2706,1.2721,1.2157,1.2321,1.3422,1.3899,1.4804,1.6221,1.669,1.7527,1.8748,2.0603,2.1842,2.2579,2.5224,2.6502,2.6655,2.7491,2.7746,2.7313,2.3619,2.2334,2.2594,2.1373,2.0318,1.957,2.0324,1.9797,1.8759,0.0,0.0,0.0,0.9415,1.0287,1.1089,1.1455,1.2,1.2451,1.2673,1.2574,1.2276,0.0,1.1562,1.1111,1.0164,1.0692,1.0709,0.9842,0.0,1.2227,1.3277,1.4002,1.4763,1.5566,1.4204,1.3044,1.2121,1.2707,1.2829,1.2515,1.3336,1.3626,1.3446,1.3389,1.2461,1.075,0.8482,0.6755,0.5396,0.3508,0.2041,0.0,0.0,0.0,0.0,0.0,0.0,0.0,0.0,0.0,0.0,0.0,0.0,0.0,0.0,0.0,0.0,0.0,0.0,0.0,0.0,0.0,0.0,0.0,0.0,0.0,0.0,0.0,0.0,0.0,0.0,0.0,0.0,0.0,0.0,0.0,0.0,0.0,1.7123,1.7285,0.0,1.6163,1.6237,1.6163,1.5701,1.5174,1.4662,1.4231,1.4107,1.387,1.3595,1.4332,1.5282,1.6466,1.7217,1.8313,1.9728,2.0988,2.2185,2.3332,2.5108,2.6238,2.6849,2.7709,2.8278,2.8418,2.6299,2.524,2.4847,2.3897,2.2642,2.1481,2.1993,2.126,2.0083,0.856,0.8739,0.0,0.9221,1.0391,1.1411,1.184,1.262,1.3242,1.3481,1.3286,1.3017,1.2774,1.2294,1.1783,1.1226,1.1438,1.1205,1.0299,0.0,1.2496,1.3465,1.4392,1.5113,1.5547,1.4141,1.2868,1.1757,1.2361,1.2357,0.0,1.3008,1.3473,1.3283,1.3723,1.3114,1.1678,0.987,0.8072,0.628,0.4573,0.3309,0.2282,0.0,0.0,0.0,0.0,0.0,0.0,0.0,0.0,0.0,0.0,0.0,0.0,0.0,0.0,0.0,0.0,0.0,0.0,0.0,0.0,0.0,0.0,0.0,0.0,0.0,0.0,0.0,0.0,0.0,0.0,0.0,0.0,0.0,0.0,1.7324,1.8195,1.8225,1.838,1.82,1.7495,1.7623,1.7638,1.7405,1.6806,1.6292,1.587,1.5613,1.5184,1.4528,1.514,1.6023,1.7124,1.7951,1.9111,2.0647,2.1696,2.2764,2.3834,2.5558,2.6667,2.7304,2.8468,2.9175,2.9398,2.8503,2.7493,2.6372,2.4883,2.3665,2.2672,2.2377,2.1871,2.1322,0.7237,0.7596,0.7803,0.8277,0.9844,1.1437,1.2552,1.3431,1.4256,1.5028,1.4783,1.4421,1.4069,1.3094,1.2278,1.1811,1.1809,1.1581,1.0999,1.1953,1.2844,1.3523,1.4449,1.4905,1.475,1.3749,1.2462,0.0,0.0,0.0,0.0,0.0,0.0,0.0,0.0,0.0,0.0,1.1827,1.0116,0.8027,0.66,0.5648,0.4806,0.0,0.0,0.0,0.0,0.0,0.0,0.0,0.0,0.0,0.0,0.0,0.0,0.0,0.0,0.0,0.0,0.0,0.0,0.0,0.0,0.0,0.0,0.0,0.0,0.0,0.0,0.0,0.0,0.0,0.0,0.0,0.0,0.0,1.7805,1.8627,1.9144,1.9141,1.9893,1.9704,1.7948,1.9012,1.9347,1.8242,1.773,1.747,1.7507,1.6598,1.6151,1.6307,1.638,1.7019,1.8241,1.8805,1.9833,2.1406,2.2781,2.3619,2.4034,2.6732,2.7995,2.8151,2.9888,3.0521,3.0346,2.9979,2.8834,2.7036,2.4322,2.324,2.304,2.1423,2.1519,2.2332,0.7627,0.8424,0.9047,0.9512,1.1133,1.2586,1.319,1.4544,1.5527,1.559,1.5679,1.555,1.5072,1.4448,1.3847,1.3274,1.2808,1.25,1.2432,1.1695,1.228,1.45,1.5765,1.6309,1.6068,1.4566,0.0,0.0,0.0,0.0,0.0,0.0,0.0,0.0,0.0,0.0,0.0,0.0,0.0,0.0,0.8026,0.6475,0.5603,0.0,0.0,0.0,0.0,0.0,0.0,0.0,0.0,0.0,0.0,0.0,0.0,0.0,0.0,0.0,0.0,0.0,0.0,0.0,0.0,0.0,0.0,0.0,0.0,0.0,0.0,0.0,0.0,0.0,0.0,0.0,1.5664,1.6913,1.8546,1.9495,2.0037,2.0046,2.0297,2.0254,1.9714,1.9954,1.9954,1.9437,1.9064,1.8489,1.7699,1.7619,1.727,1.6542,1.7047,1.8111,1.9692,2.0206,2.1406,2.3271,2.4042,2.4563,2.4887,2.6424,2.7181,2.7287,2.8393,2.9156,2.9536,2.8616,2.8042,2.7488,2.5024,2.3164,2.166,2.0312,1.9941,2.0194,0.7516,0.8364,0.9124,0.9738,1.1625,1.3238,1.3764,1.5277,1.6317,1.6109,1.6019,1.587,1.5629,1.476,1.4084,1.3821,1.3157,1.2667,1.2455,1.2121,1.3018,1.547,0.0,1.5936,0.0,0.0,0.0,0.0,0.0,0.0,0.0,0.0,0.0,0.0,0.0,0.0,0.0,0.0,0.0,0.0,0.0,0.0,0.8408,0.5533,0.5418,0.6818,0.7068,0.7373,0.7491,0.6523,0.0,0.0,0.0,0.0,0.0,0.0,0.0,0.0,0.0,0.0,0.0,0.0,0.0,0.0,0.0,0.0,0.0,0.0,0.0,0.0,0.0,0.0,0.0,0.0,1.6755,1.7753,1.9193,1.9934,2.034,2.0341,2.043,2.0447,2.0449,2.0419,2.0294,2.0072,1.9831,1.9336,1.8504,1.856,1.8234,1.7423,1.78,1.8714,2.0092,2.0838,2.2062,2.3727,2.4507,2.5022,2.5332,2.6331,2.6835,2.6961,2.7815,2.845,2.8787,2.8061,2.7514,2.6874,0.0,0.0,0.0,0.0,1.8857,1.9029,0.7201,0.7944,0.8701,0.9553,1.175,1.3621,1.4289,1.5826,1.6858,1.6703,0.0,1.5916,1.6007,1.4679,1.3778,1.3853,1.3182,1.2501,0.0,1.2972,0.0,1.6138,1.5112,1.4683,0.0,0.0,0.0,0.0,0.0,0.0,0.0,0.0,0.0,0.0,0.0,0.0,0.0,0.0,0.0,0.0,0.0,0.0,1.2154,0.9542,0.9193,0.9857,0.8011,0.788,0.849,0.8008,0.0,0.0,0.0,0.0,0.0,0.0,0.0,0.0,0.0,0.0,0.0,0.0,0.0,0.0,0.0,0.0,0.0,0.0,0.0,0.0,0.0,0.0,0.0,0.0,1.8124,1.8825,1.9639,1.9954,2.0148,2.0248,2.0349,2.041,2.0488,2.0507,2.046,2.032,2.0109,1.9818,1.9439,1.9154,0.0,0.0,0.0,1.8855,1.971,2.0825,2.2001,2.3199,2.4239,2.4845,2.5144,2.5984,2.6466,2.6663,2.7437,2.7889,2.8042,2.7819,2.6849,2.5285,2.2854,2.1429,2.0494,1.8435,1.7934,1.8389,0.7539,0.8539,0.9625,1.0749,1.265,1.423,1.4858,1.6463,1.7657,1.7784,1.7691,1.7394,1.6853,1.598,1.5117,1.4265,1.3637,1.2985,0.0,0.0,1.4833,1.5098,0.0,0.0,0.0,0.0,0.0,0.0,0.0,0.0,0.0,0.0,0.0,0.0,0.0,0.0,0.0,0.0,0.0,0.0,0.0,0.0,1.3952,1.387,1.3021,1.1855,1.1557,1.0629,0.9527,0.9472,0.9598,0.9686,0.912,0.0,0.0,0.0,0.0,0.0,0.0,0.0,0.0,0.0,0.0,0.0,0.0,0.0,0.0,0.0,0.0,0.0,0.0,0.0,0.0,1.7715,1.8185,1.8549,1.9295,1.9489,1.9681,2.0022,2.0207,2.0346,2.0402,2.0474,2.0488,2.046,1.9737,1.9201,1.8942,1.8175,1.7569,1.7136,1.7757,1.8451,1.9233,2.02,2.1303,2.2501,2.284,0.0,2.3306,2.3605,2.4165,2.4885,2.5059,2.5927,2.718,2.6384,2.4696,2.2403,2.0236,1.8495,1.7079,1.6104,1.6186,1.6958,0.8245,0.9034,0.9884,1.1212,1.3367,1.507,1.5616,1.718,1.836,1.8537,1.797,1.7374,1.6833,1.5848,1.4836,1.3884,1.3476,0.0,0.0,1.3924,1.4343,1.4784,0.0,0.0,0.0,0.0,0.0,0.0,0.0,0.0,0.0,0.0,0.0,0.0,0.0,0.0,0.0,0.0,0.0,0.0,0.0,0.0,1.5878,1.525,1.4456,1.3728,1.3925,1.3379,1.2299,1.0626,1.0125,1.0189,1.0166,1.0098,0.9823,0.0,0.0,0.0,0.0,0.0,0.0,0.0,0.0,0.0,0.0,0.0,0.0,0.0,0.0,1.3081,1.419,0.0,1.6324,1.7283,1.8075,1.8658,1.8959,1.9059,1.9287,1.9802,2.0021,2.0197,2.0297,2.0026,1.9855,1.9843,1.9017,1.8422,1.8261,1.7745,1.7279,1.6903,1.7652,1.8236,1.8593,1.9921,2.0974,2.1771,2.2329,2.2689,2.2859,2.2945,2.3508,2.4405,2.4401,2.5132,2.6305,2.5779,2.4416,2.2476,2.0245,1.8112,1.6136,1.5111,1.5123,1.5719,0.8803,0.9457,1.0112,1.1569,1.3967,1.5836,1.6314,1.7786,1.8892,1.9043,1.7833,1.6843,1.6518,1.5246,1.4156,0.0,0.0,0.0,0.0,0.0,0.0,0.0,0.0,0.0,0.0,0.0,0.0,0.0,0.0,0.0,0.0,0.0,0.0,0.0,0.0,0.0,0.0,0.0,0.0,0.0,0.0,0.0,1.7595,1.609,1.5325,1.5104,1.5314,1.5726,1.5765,1.3046,1.1659,1.1104,1.1211,1.0734,1.0073,0.9864,0.9725,0.0,0.0,0.0,0.0,0.0,0.0,0.0,0.0,1.0747,1.1718,1.2179,1.3105,1.3902,1.415,1.5742,1.6953,1.6842,1.7814,1.8592,1.8567,1.8537,1.8728,1.9383,1.973,1.9972,2.013,1.9697,1.9353,1.919,1.8393,1.7777,1.7496,1.7212,1.6914,1.6593,1.7287,1.7743,1.7909,1.9314,2.0319,2.0975,2.1636,2.21,2.2404,2.2455,2.2994,2.3896,2.4223,2.4874,2.5634,2.5323,2.4414,2.3037,2.0828,1.8459,1.6144,1.4687,1.4387,1.4699,0.8621,0.9824,1.0973,1.2332,1.4452,1.6108,1.6584,1.798,1.9058,1.9245,1.783,1.6636,1.6126,1.492,1.4048,0.0,0.0,0.0,0.0,0.0,0.0,0.0,0.0,0.0,0.0,0.0,0.0,0.0,0.0,0.0,0.0,0.0,0.0,0.0,0.0,0.0,0.0,0.0,0.0,0.0,0.0,0.0,1.8645,1.8498,1.7149,1.5345,1.5321,1.7034,1.9262,1.9059,1.7046,1.4637,1.4642,1.2595,1.0742,1.3616,1.4474,1.2909,0.5514,0.6063,0.8863,0.9412,0.9478,0.9765,0.0,1.1261,1.1636,1.3242,1.3567,1.3977,1.5407,1.6198,1.6778,1.717,1.7364,1.7622,1.8031,1.7731,1.7732,1.8462,1.9199,1.973,1.9907,2.0077,1.9891,1.9151,1.8353,1.7554,1.6767,1.5927,1.5357,1.5136,1.5787,1.6508,1.7292,1.7435,1.8388,2.0134,1.9516,1.9703,2.0597,2.0603,2.1119,2.2084,2.3644,2.4774,2.5444,2.4486,2.3255,2.1827,2.0137,1.8178,1.6095,1.4339,1.3867,1.4078,0.8353,0.9878,1.1512,1.3327,1.5246,1.6577,1.6793,1.776,1.8527,1.8704,1.7025,1.5748,1.5531,1.4429,1.3773,1.3999,1.3973,1.3902,1.3831,1.314,0.0,0.0,0.0,0.0,0.0,0.0,0.0,0.0,0.0,0.0,0.0,0.0,0.0,0.0,0.0,0.0,0.0,0.0,0.0,0.0,0.0,0.0,2.0356,1.9138,1.8729,1.8633,1.7024,1.9331,0.0,0.0,1.9804,1.7434,1.5567,1.3928,1.2896,1.3874,1.3092,1.1124,0.7421,0.7674,0.9026,0.9159,0.9861,1.0505,1.0498,1.1492,1.2512,1.2765,1.341,1.4025,1.4423,1.5335,1.5906,1.5495,1.6289,1.6855,1.6584,1.6714,1.6917,1.7135,1.7826,1.8624,1.9575,1.9067,1.8577,1.8356,1.7595,1.6757,1.5896,1.5888,1.5605,1.4973,1.5611,1.6122,1.6493,1.6974,1.764,1.8477,1.8229,1.8565,1.9422,1.9511,2.0295,2.1642,2.2817,2.3404,2.3527,2.2833,2.198,2.0953,1.9363,1.7765,1.6109,1.4515,1.3398,1.2603,0.7881,0.969,1.1616,1.3675,1.5656,1.6978,1.7034,1.7675,1.8075,1.7808,1.6102,1.4805,1.4561,1.385,1.3568,1.4076,1.3998,1.381,1.3574,1.2855,1.2344,0.0,0.0,0.0,0.0,0.0,0.0,0.0,0.0,0.0,0.0,0.0,0.0,0.0,0.0,0.0,0.0,0.0,0.0,0.0,0.0,0.0,2.1503,2.0179,2.0385,2.1133,1.8932,2.0843,0.0,0.0,2.1443,1.9863,1.7023,1.5882,1.5498,1.49,1.2874,1.0603,0.9548,0.9226,0.9179,0.9129,1.0076,1.0879,1.0344,1.1506,1.2594,1.2171,1.312,1.3872,1.3434,1.4491,1.5163,1.4316,1.5375,1.6088,1.54,1.5711,1.5925,1.5735,1.6263,1.714,1.8345,1.789,1.7593,1.7728,1.7034,1.623,1.5368,1.5808,1.5725,1.5004,1.5216,1.5533,1.5935,1.6092,1.6555,1.7286,1.7132,1.749,1.8279,1.838,1.9183,2.0565,2.1033,2.1317,2.1412,2.0685,2.0119,1.9517,1.7955,1.6535,1.5226,1.3986,1.268,1.1465,0.7135,0.9147,1.1185,1.3018,1.5425,1.716,1.7353,1.791,1.7853,1.6622,1.5279,1.4031,1.2999,1.3138,1.3477,1.3874,1.4083,1.4277,1.4453,1.3706,1.2923,0.0,0.0,0.0,0.0,0.0,0.0,0.0,0.0,0.0,0.0,0.0,0.0,0.0,0.0,0.0,0.0,0.0,0.0,0.0,0.0,0.0,2.1562,2.231,2.2211,2.1562,2.0565,0.0,0.0,0.0,2.2143,2.1979,2.0057,1.8963,0.0,1.8118,1.6204,1.3494,1.0508,0.9439,0.9284,0.9601,1.0002,1.0546,1.1358,1.1241,1.1181,1.1943,1.286,1.3413,1.3086,1.4124,1.4887,1.4467,1.4919,1.5213,1.4875,1.4783,1.4605,1.4211,1.4696,1.5261,1.5768,1.6896,1.7605,1.7606,1.6979,1.6249,1.5446,1.5299,1.5133,1.4919,1.4103,1.4373,1.5781,1.415,1.4571,1.699,1.6096,1.6114,1.6965,1.6967,1.7382,1.8098,1.7925,1.8513,1.9461,1.7958,1.7362,1.7221,1.5574,1.4164,1.3007,1.22,1.1576,1.1057,0.6143,0.8351,1.061,1.2561,1.4569,1.5956,1.6116,1.6772,1.6807,1.5627,1.4348,0.0,0.0,0.0,0.0,0.0,1.432,1.4196,1.3735,1.3362,1.2793,0.0,0.0,0.0,0.0,0.0,0.0,0.0,0.0,0.0,0.0,0.0,0.0,0.0,0.0,0.0,0.0,0.0,0.0,0.0,0.0,0.0,2.0653,2.2051,2.2235,2.1789,0.0,0.0,0.0,0.0,2.3036,2.3084,2.3152,0.0,0.0,1.6792,1.5658,1.4258,1.0979,0.9649,0.9341,0.9881,0.9732,0.9315,0.8856,0.965,1.0348,0.9815,1.0413,1.1138,1.1429,1.2911,1.3874,1.3312,1.394,1.4142,1.3148,1.307,1.2944,1.25,1.3011,1.3608,1.4117,1.5082,1.6008,1.6801,1.6734,1.623,1.5255,1.5168,1.472,1.3791,1.2873,1.2748,1.3464,1.2936,1.3263,1.4412,1.4677,1.503,1.544,1.5735,1.592,1.6043,1.5593,1.5502,1.5655,1.4717,1.4256,1.4013,1.2997,1.2026,1.1165,1.0866,1.0041,0.9069,0.4288,0.671,0.9296,1.1527,1.3606,0.0,0.0,0.0,0.0,0.0,0.0,0.0,0.0,0.0,0.0,0.0,0.0,1.4357,1.3834,1.3636,1.2997,0.0,0.0,0.0,0.0,0.0,0.0,0.0,0.0,0.0,0.0,0.0,0.0,0.0,0.0,0.0,0.0,0.0,0.0,0.0,0.0,0.0,1.9644,2.1164,2.1726,0.0,0.0,0.0,0.0,2.4258,2.3966,2.4312,2.4995,2.179,0.0,1.5816,1.4894,1.4063,1.2452,1.0822,0.9815,1.0683,0.8428,0.6111,0.6721,0.7376,0.7678,0.7114,0.7965,0.906,0.995,1.1712,1.2886,1.2401,1.3167,1.3325,1.1943,1.1869,1.1691,1.0909,1.1142,1.1484,1.1728,1.2222,1.3461,1.5726,1.5254,1.4751,1.4517,1.4118,1.3484,1.2524,1.1698,1.143,1.1793,1.1642,1.186,1.2387,1.2969,1.3297,1.3391,1.3516,1.3545,1.3431,1.2773,1.2524,1.2545,1.1787,1.1467,1.1369,1.0763,1.0109,0.9455,0.9358,0.8492,0.7456,0.1725,0.4321,0.7223,0.0,0.0,0.0,0.0,0.0,0.0,0.0,0.0,0.0,0.0,0.0,0.0,0.0,0.0,0.0,1.4576,0.0,0.0,0.0,1.1364,1.072,0.9705,0.9482,1.0632,0.0,0.0,0.0,0.0,0.0,0.0,0.0,0.0,0.0,0.0,0.0,0.0,0.0,0.0,0.0,1.8486,1.9579,0.0,0.0,0.0,0.0,0.0,2.4998,2.4978,2.5598,2.5496,2.0951,1.563,1.5454,1.4235,1.3212,1.4497,1.2576,1.0506,1.1724,0.6278,0.1492,0.4981,0.4432,0.3347,0.3919,0.551,0.7209,0.8587,1.0572,1.196,1.1792,1.2567,1.2697,1.1282,1.1196,1.0797,0.9491,0.9187,0.8973,0.8678,0.8502,1.0061,1.4092,1.2637,1.206,1.3214,1.2285,1.1506,1.1082,1.0497,1.0351,1.0727,1.0283,1.0385,1.1015,1.108,1.1066,1.0891,1.0533,1.0354,1.0282,0.9547,0.9644,1.0172,0.9143,0.8944,0.9207,0.8798,0.831,0.7829,0.7644,0.6993,0.6304,0.0,0.0,0.0,0.0,0.0,0.0,0.0,0.0,0.0,0.0,0.0,0.0,0.0,0.0,0.0,0.0,0.0,0.0,1.2949,0.0,0.0,0.0,0.0,0.0,0.9499,0.9234,0.0,0.0,0.0,0.0,0.0,0.0,0.0,0.0,0.0,0.0,0.0,0.0,0.0,0.0,0.0,0.0,1.5437,0.0,0.0,0.0,0.0,0.0,0.0,2.6679,2.619,2.5444,2.4154,2.1657,1.8695,1.6083,1.5043,1.4255,1.1985,1.0305,0.9254,0.9576,0.5799,0.1847,0.1319,0.0758,0.0402,0.0541,0.2419,0.4557,0.6297,0.8931,1.0952,1.1315,1.1537,1.1451,1.0876,1.0119,0.933,0.859,0.7942,0.734,0.6772,0.6057,0.6514,0.8676,1.0178,1.1177,1.1594,1.0823,1.0036,0.929,0.8787,0.8464,0.8371,0.9171,0.9716,0.998,1.0005,0.9905,0.9704,0.903,0.8479,0.8078,0.7458,0.7069,0.6858,0.6314,0.6151,0.6186,0.6056,0.5972,0.5996,0.6191,0.5967,0.5536,0.0,0.0,0.0,0.0,0.0,0.0,0.0,0.0,0.0,0.0,0.0,0.0,0.0,0.0,0.0,0.0,0.0,0.0,0.0,0.0,0.0,0.0,0.0,0.0,0.0,0.0,0.0,0.0,0.0,0.0,0.0,0.0,0.0,0.0,0.0,0.0,0.0,0.0,0.0,0.0,0.0,0.0,0.0,0.0,0.0,0.0,0.0,0.0,0.0,2.8813,2.8127,2.6856,2.4863,2.286,2.075,1.8275,1.6487,1.4768,1.227,1.0162,0.8524,0.7966,0.4401,0.077,-0.02,-0.1649,-0.2619,-0.1903,0.0037,0.2307,0.4669,0.784,1.011,1.0151,1.06,1.0762,1.0173,0.9467,0.8711,0.7897,0.7125,0.6229,0.5142,0.4288,0.4226,0.5188,0.7124,0.8552,0.9253,0.8386,0.7693,0.7261,0.71,0.7046,0.7052,0.7844,0.8227,0.8195,0.8157,0.7997,0.7687,0.699,0.649,0.6176,0.555,0.5126,0.4848,0.4451,0.426,0.4282,0.4278,0.4506,0.49,0.5034,0.4966,0.4629,0.0,0.0,0.0,0.0,0.0,0.0,0.0,0.0,0.0,1.0783,1.0758,1.0826,1.1087,1.1576,0.0,0.0,0.0,0.0,0.0,0.0,0.0,0.0,0.0,0.0,0.0,0.0,0.0,0.0,0.0,0.0,0.0,0.0,0.0,0.0,0.0,0.0,0.0,0.0,0.0,0.0,0.0,0.0,0.0,0.0,0.0,0.0,0.0,0.0,0.0,0.0,3.0045,2.8781,2.6698,2.4461,2.2364,2.0978,1.8246,1.5366,1.3875,1.1145,0.8315,0.6742,0.2651,-0.0945,-0.0757,-0.3392,-0.5477,-0.4042,-0.1995,0.0485,0.339,0.6913,0.9203,0.8725,0.9674,1.0162,0.9341,0.9037,0.8514,0.7446,0.6572,0.5441,0.3852,0.304,0.2725,0.2956,0.3882,0.5092,0.6589,0.5694,0.5219,0.5366,0.5506,0.5769,0.6179,0.6362,0.6301,0.6044,0.6005,0.5769,0.5342,0.4749,0.4449,0.4356,0.3806,0.3473,0.3277,0.2978,0.2822,0.2849,0.2975,0.3429,0.4019,0.3984,0.3943,0.3684,0.0,0.0,0.0,0.0,0.0,0.0,0.0,0.0,0.0,0.0,0.0,0.0,0.0,0.0,0.0,0.0,0.0,0.0,0.0,0.0,0.0,0.0,0.0,0.0,0.0,0.6062,0.569,0.0,0.0,0.0,0.0,0.0,0.0,0.0,0.0,0.0,0.0,0.0,0.0,0.0,0.0,0.0,0.0,0.0,0.0,0.0,0.0,0.0,0.0,0.0,3.0093,2.9236,2.8118,2.6464,2.4452,2.208,1.9857,1.747,1.422,1.1587,0.8956,0.5753,0.1715,-0.1707,-0.2579,-0.5337,-0.7654,-0.7281,-0.4216,-0.0749,0.205,0.5238,0.7588,0.7918,0.83,0.863,0.878,0.8627,0.8221,0.7477,0.6142,0.4731,0.3279,0.2229,0.1532,0.126,0.1367,0.2337,0.4338,0.4362,0.4419,0.4663,0.4184,0.4125,0.4583,0.4516,0.4374,0.4161,0.426,0.407,0.3632,0.3135,0.2661,0.2208,0.1816,0.1352,0.0852,0.0932,0.092,0.0958,0.1424,0.2009,0.2604,0.2795,0.289,0.2734,0.0,0.0,0.0,0.0,0.0,0.0,0.0,0.0,0.0,0.0,1.0483,1.0165,0.0,0.0,0.0,0.0,0.0,0.0,0.0,0.0,0.0,0.0,0.0,0.0,0.6965,0.5483,0.4515,0.4105,0.0,0.0,0.7951,0.9606,1.1866,1.4537,0.0,0.0,0.0,0.0,0.0,0.0,0.0,0.0,0.0,0.0,0.0,0.0,0.0,0.0,0.0,0.0,2.9512,2.905,2.881,2.7459,2.5545,2.3377,2.0966,1.8268,1.4885,1.2082,0.9123,0.5048,0.1611,-0.1329,-0.3438,-0.6261,-0.8389,-0.8322,-0.5793,-0.2622,0.0491,0.3908,0.6457,0.6986,0.775,0.8461,0.9022,0.8984,0.8524,0.7566,0.6188,0.4476,0.2312,0.1214,0.0399,-0.0088,-0.0285,0.041,0.2234,0.2456,0.2618,0.2838,0.2588,0.2597,0.2852,0.2837,0.2766,0.2544,0.2518,0.2292,0.1921,0.1471,0.1012,0.0543,0.0256,-0.0316,-0.0976,-0.0698,-0.0623,-0.0546,0.0167,0.0894,0.1569,0.1823,0.2004,0.1954,0.0,0.0,0.0,0.0,0.0,0.0,0.0,1.1833,1.2013,1.1194,1.0891,1.0674,1.0437,0.982,0.0,0.0,0.0,0.0,0.0,0.0,0.0,0.0,0.0,0.0,0.7175,0.0,0.0,0.3136,0.3326,0.0,0.0,0.0,0.0,0.0,1.3192,1.3292,1.2882,0.0,0.0,0.0,0.0,0.5804,0.0,0.0,0.0,0.0,0.0,0.0,0.0,0.0,2.8681,2.8202,2.8602,2.7659,2.6121,2.453,2.2067,1.9099,1.5609,1.2665,0.9421,0.4851,0.1859,-0.0664,-0.3482,-0.65,-0.8684,-0.86,-0.6819,-0.4243,-0.0849,0.2559,0.5132,0.5976,0.7153,0.8302,0.9239,0.9366,0.8939,0.7761,0.6395,0.4454,0.1641,0.0475,-0.0418,-0.1171,-0.1595,-0.1156,0.0393,0.0578,0.0744,0.096,0.095,0.0981,0.1057,0.1053,0.0955,0.0825,0.0697,0.0482,0.0183,-0.023,-0.0643,-0.1063,-0.1361,-0.1864,-0.2453,-0.2107,-0.1886,-0.1728,-0.0893,-0.0056,0.0727,0.1007,0.123,0.1235,0.0,0.0,0.0,0.0,0.0,0.0,0.0,1.265,1.2845,1.2391,1.1904,1.1124,0.9904,0.9661,0.0,0.0,0.0,0.0,0.0,0.0,0.0,0.0,0.0,0.0,0.0,0.0,0.0,0.3281,0.5381,0.0,0.0,0.0,0.0,0.0,0.0,1.3424,1.2906,1.1348,0.0,0.0,0.0,0.0,0.0,0.0,0.0,0.0,0.0,2.7894,2.7699,2.8472,2.7681,2.6437,2.7013,2.6855,2.6274,2.5197,2.3474,2.0908,1.6218,1.3295,1.039,0.552,0.2284,-0.0282,-0.2399,-0.6065,-0.9026,-0.8878,-0.7306,-0.4896,-0.1596,0.0936,0.31,0.4857,0.5947,0.7135,0.873,0.93,0.9183,0.8163,0.67,0.4663,0.184,0.0563,-0.0631,-0.1908,-0.275,-0.254,-0.0988,-0.0846,-0.0609,-0.0165,-0.061,-0.0805,-0.0663,-0.1128,-0.1394,-0.1396,-0.1301,-0.1446,-0.1858,-0.2019,-0.2328,-0.2794,-0.3202,-0.3543,-0.3801,-0.3202,-0.2826,-0.2512,-0.1452,-0.0559,0.0112,0.0392,0.0505,0.0449,0.0,0.0,0.0,0.0,0.0,0.0,0.0,1.2858,1.3051,1.2459,1.1676,1.0849,1.0033,0.9931,0.9982,0.0,0.0,0.0,0.0,0.0,0.0,0.0,0.0,0.0,0.0,0.0,0.5958,0.583,0.7806,0.0,0.0,0.0,0.0,0.0,0.0,1.3313,1.2779,1.1322,0.0,0.0,0.0,0.0,0.0,0.0,0.0,0.0,0.0,0.0,2.6223,2.7539,2.6735,2.5236,2.552,2.5274,2.4968,2.5505,2.3694,2.0716,1.7224,1.4303,1.1124,0.6456,0.3649,0.1217,-0.1978,-0.713,-1.1283,-1.1304,-0.8866,-0.5987,-0.3548,-0.174,0.0395,0.3526,0.4284,0.5476,0.8366,0.8879,0.8673,0.7949,0.6428,0.4204,0.1061,-0.0463,-0.2048,-0.4002,-0.4644,-0.4706,-0.4141,-0.3207,-0.2613,-0.241,-0.2455,-0.2445,-0.2401,-0.2544,-0.2726,-0.2953,-0.2788,-0.2907,-0.3305,-0.3432,-0.372,-0.416,-0.4382,-0.4733,-0.5131,-0.4685,-0.4278,-0.3843,-0.2954,-0.2011,-0.1175,-0.0785,-0.0561,-0.0561,0.0,0.0,0.0,0.0,0.0,0.0,1.2204,1.3123,1.3399,1.2483,1.1825,1.109,1.0137,1.0166,1.0335,1.0532,0.0,0.0,0.0,0.0,0.0,0.0,0.0,0.0,0.0,0.0,0.747,0.7826,0.9544,1.0428,0.0,0.0,1.2886,1.397,0.0,0.0,0.0,0.0,0.0,0.0,0.0,0.0,0.0,0.0,0.0,0.0,0.0,0.0,0.0,0.0,0.0,2.3319,2.3276,0.0,0.0,2.4581,2.2835,1.9909,1.6675,1.3528,1.0379,0.7239,0.2888,-0.1465,-0.4723,-0.9234,-1.2589,-1.2188,-0.9616,-0.6872,-0.5068,-0.3607,-0.1506,0.0,0.307,0.4507,0.7816,0.8336,0.8287,0.8047,0.612,0.36,0.0522,-0.1921,-0.4033,-0.5761,-0.6414,-0.6756,-0.681,-0.5753,-0.4884,-0.4353,-0.4158,-0.4077,-0.4082,-0.4036,-0.4056,-0.4215,-0.4216,-0.4322,-0.4522,-0.4758,-0.5075,-0.5368,-0.5465,-0.5781,-0.6218,-0.5873,-0.552,-0.5054,-0.4284,-0.3342,-0.24,-0.2014,-0.1624,-0.1403,0.0,0.0,0.0,0.0,0.0,0.0,0.0,1.3587,1.4015,1.2657,1.2784,1.2183,1.0136,1.0326,1.0668,1.0881,0.0,0.0,0.0,0.0,0.0,0.0,0.0,0.0,0.0,0.0,0.0,0.0,1.0281,1.1092,1.1135,1.3001,1.3885,1.3923,0.0,0.0,0.0,0.0,0.0,0.0,0.0,0.0,0.0,0.0,0.0,0.0,0.0,0.0,0.0,0.0,0.0,0.0,0.0,2.1334,2.2952,0.0,2.0829,1.8678,1.4008,1.0291,0.774,0.771,-0.1001,-1.0011,-1.1619,-1.2354,-1.2243,-1.0564,-0.9025,-0.7488,-0.5787,-0.4171,-0.2177,0.0671,0.2574,0.4549,0.6971,0.7777,0.828,0.8736,0.5901,0.2957,0.0541,-0.3789,-0.6538,-0.677,-0.7835,-0.8478,-0.8477,-0.8337,-0.7439,-0.5628,-0.5628,-0.5691,-0.5669,-0.5795,-0.5644,-0.5188,-0.5705,-0.5794,-0.5497,-0.6033,-0.635,-0.6495,-0.6471,-0.6696,-0.7044,-0.6508,-0.6238,-0.61,-0.521,-0.433,-0.3558,-0.3229,-0.2623,-0.2024,0.0,0.0,0.0,0.0,0.0,0.0,0.0,1.3548,1.3662,1.3235,1.2634,1.2002,1.1348,1.1024,1.0926,1.1037,0.0,0.0,0.0,0.0,0.0,0.0,0.0,0.0,0.0,0.0,0.0,0.0,0.0,0.0,1.2846,1.4719,1.5299,1.4747,1.5401,1.5091,0.0,0.0,0.0,0.0,0.0,0.0,1.5151,0.0,0.0,0.0,0.0,0.0,0.0,0.0,0.0,0.0,0.0,0.0,0.0,1.5382,1.6616,1.7493,1.3067,0.9612,0.6046,0.1136,-0.6278,-1.229,-1.193,-1.2634,-1.3142,-1.2342,-1.1076,-0.9499,-0.7436,-0.6362,-0.4528,-0.0739,-0.0009,0.1371,0.5064,0.562,0.579,0.6218,0.2597,-0.0712,-0.2724,-0.5547,-0.7547,-0.8247,-0.9268,-0.9894,-1.0002,-0.9817,-0.9024,-0.7504,-0.7233,-0.7102,-0.6987,-0.7167,-0.7272,-0.724,-0.7432,-0.7563,-0.7693,-0.807,-0.8242,-0.827,-0.8372,-0.8482,-0.8581,-0.8055,-0.7668,-0.7284,-0.6405,-0.563,-0.4907,-0.4289,-0.3798,-0.3411,0.0,0.0,0.0,0.0,0.0,0.0,0.0,1.3615,1.3624,1.3544,1.274,1.2102,1.1921,1.1347,1.0991,1.1062,0.0,0.0,0.0,0.0,0.0,0.0,0.0,0.0,0.0,0.0,0.0,0.0,0.0,0.0,0.0,0.0,0.0,1.5069,1.5494,1.5407,0.0,0.0,0.0,0.0,0.0,0.0,1.7854,0.0,0.0,0.0,0.0,0.0,0.0,0.0,0.0,0.0,0.0,0.0,0.0,0.0,1.1718,1.2991,1.1095,0.817,0.3819,-0.4021,-0.8902,-1.1777,-1.1646,-1.2494,-1.3128,-1.2484,-1.1671,-1.0353,-0.7983,-0.7013,-0.5572,-0.2485,-0.1574,-0.0059,0.3383,0.3679,0.3388,0.2933,0.0036,-0.2806,-0.5055,-0.7131,-0.872,-0.9672,-1.0558,-1.108,-1.1102,-1.0814,-1.0256,-0.9353,-0.8695,-0.8517,-0.884,-0.8641,-0.8597,-0.8785,-0.8885,-0.8944,-0.8959,-0.9357,-0.9504,-0.9478,-0.9502,-0.9588,0.0,-0.9227,-0.8896,-0.8534,-0.7789,-0.7099,-0.6382,-0.5616,-0.5061,-0.4613,0.0,0.0,0.0,0.0,0.0,0.0,0.0,0.0,0.0,0.0,1.2968,1.238,1.1909,1.1265,1.0897,0.0,0.0,0.0,0.0,0.0,0.0,0.0,0.0,0.0,0.0,0.0,0.0,0.0,1.4502,1.497,1.5863,0.0,0.0,0.0,1.4964,0.0,0.0,0.0,0.0,0.0,1.9308,2.0608,0.0,0.0,0.0,0.0,0.0,0.0,0.0,0.0,0.0,0.0,0.0,0.0,0.0,0.0,0.0,0.0,0.0,0.5375,0.0806,-0.7376,-0.9194,-0.9413,-1.101,-1.2086,0.0,-1.1427,-1.1197,-1.0367,-0.7726,-0.6647,-0.5708,-0.4408,-0.2433,-0.0362,0.1648,0.1773,0.0981,-0.0815,-0.1975,-0.3715,-0.6565,-0.8531,-1.0014,-1.0956,-1.1658,-1.1991,-1.1848,-1.1408,-1.1192,-1.1188,-1.0097,-0.9972,-1.091,-1.0121,-0.9777,-0.984,-1.015,-1.0068,-0.9598,-1.0165,-1.0372,-1.0249,-1.0133,-1.0186,-1.0295,-1.0089,-0.9901,-0.9736,-0.9374,-0.8681,-0.7887,-0.711,-0.6267,-0.551,0.0,0.0,0.0,0.0,0.0,0.0,0.0,0.0,0.0,0.0,0.0,1.2072,1.1505,1.0879,0.0,0.0,0.0,0.0,0.0,0.0,0.0,0.0,0.0,0.0,0.0,0.0,0.0,1.4963,1.5162,1.5389,1.5649,1.4929,0.0,0.0,0.0,0.0,0.0,0.0,0.0,0.0,2.1549,2.2662,0.0,0.0,0.0,0.0,1.7857,1.5899,0.0,0.0,0.0,0.0,0.0,0.0,0.0,0.0,0.7679,0.4697,-0.1318,0.0,-0.4772,-0.6073,-0.8607,-1.0686,0.0,-1.2137,-1.3579,-1.2477,-1.2589,-1.2042,-0.9158,-0.8568,-0.775,-0.5463,-0.4827,-0.3919,-0.1948,-0.1669,-0.2113,-0.3251,-0.474,-0.635,-0.8065,-0.9787,-1.0934,-1.1283,-1.2011,-1.2379,-1.2185,-1.1976,-1.2269,-1.3109,-1.2234,-1.1554,-1.1204,-1.105,-1.1062,-1.1236,-1.1364,-1.1383,-1.1339,-1.1737,-1.1964,-1.2004,-1.1884,-1.1683,-1.1463,-1.1179,-1.0833,-1.047,-1.0258,-0.9569,-0.8691,-0.8,-0.7173,-0.6375,0.0,0.0,0.0,0.0,0.0,0.0,0.0,0.0,0.0,0.0,0.0,0.0,0.0,0.0,0.0,0.0,0.0,0.0,0.0,0.0,0.0,0.0,0.0,0.0,0.0,0.0,0.0,0.0,0.0,1.4705,0.0,0.0,0.0,0.0,0.0,0.0,0.0,0.0,0.0,0.0,2.2518,0.0,0.0,0.0,0.0,0.0,1.7584,1.573,0.0,1.2462,1.0549,0.8776,0.0,0.0,0.0,0.0,0.5315,0.1555,-0.3674,-0.2569,-0.0655,-0.3672,-0.6431,-0.8386,-0.8307,-1.08,-1.2999,-1.24,-1.2631,-1.2234,-0.989,-0.9435,-0.8673,-0.6451,-0.5942,-0.5435,-0.4251,-0.4109,-0.4474,-0.5386,-0.6605,-0.7942,-0.9349,-1.0499,-1.1368,-1.1864,-1.2313,-1.2677,-1.2921,-1.2812,-1.3164,-1.4056,-1.3503,-1.3092,-1.2867,-1.2423,-1.2241,-1.2353,-1.2399,-1.2381,-1.2362,-1.2743,-1.2931,-1.3014,-1.279,-1.2452,-1.2072,-1.2026,-1.1715,-1.113,-1.1027,-1.052,-0.9758,-0.8899,-0.8159,-0.7559,0.0,0.0,0.0,0.0,0.0,0.0,0.0,0.0,0.0,0.0,0.0,0.0,0.0,0.0,0.0,0.0,0.0,0.0,0.0,0.0,0.0,0.0,0.0,0.0,0.0,0.0,0.0,0.0,0.0,0.0,0.0,0.0,0.0,0.0,0.0,0.0,0.0,0.0,0.0,2.1884,2.2748,0.0,0.0,0.0,0.0,0.0,0.0,0.0,0.0,1.2146,1.07,0.973,0.891,0.0,0.0,0.0,0.0,0.0,-0.2841,0.1946,0.5608,-0.1776,-0.4199,-0.5145,-0.651,0.0,-1.1725,-1.1948,-1.2279,-1.2068,-1.0522,-1.011,-0.9444,-0.7729,-0.6994,-0.6587,-0.6397,-0.6532,-0.6927,-0.7678,-0.8438,-0.9446,-1.08,-1.1223,-1.1761,-1.2549,-1.2637,-1.293,-1.3621,-1.3664,-1.3917,-1.4546,-1.4304,-1.4362,-1.4819,-1.3741,-1.3245,-1.332,-1.3264,-1.3235,-1.3251,-1.356,-1.3662,-1.366,-1.3293,-1.2871,-1.2482,-1.2752,-1.2487,-1.1833,-1.1737,-1.1404,-1.0791,-0.9697,-0.9108,-0.8659,0.0,0.0,0.0,0.0,0.0,0.0,0.0,0.0,0.0,0.0,0.0,0.0,0.0,0.0,0.0,0.0,0.0,0.0,0.0,0.0,0.0,0.0,0.0,0.0,0.0,0.0,0.0,0.0,0.0,0.0,1.3142,1.1831,1.1913,0.0,0.0,0.0,0.0,0.0,2.085,2.1863,2.268,0.0,0.0,0.0,0.0,0.0,0.0,0.0,0.0,1.1615,1.017,0.8932,0.9567,0.0,0.0,0.0,0.0,0.0,-0.2479,-0.002,0.1817,-0.3701,-0.4639,-0.4934,-0.7664,-0.9752,-1.1356,-1.2151,-1.3028,-1.3261,-1.1991,-1.2051,-1.177,-1.0203,-0.9996,-1.0123,-1.0379,-1.0726,-1.1026,-1.1209,-1.1737,-1.2399,-1.3188,-1.3031,-1.2957,-1.3159,-1.323,-1.3341,-1.3515,-1.4056,-1.4633,-1.5299,-1.5006,-1.5041,-1.5463,-1.4178,-1.3807,-1.4349,-1.3997,-1.4171,-1.4761,-1.458,-1.4536,-1.446,-1.3924,-1.3527,-1.3295,-1.3192,-1.2923,-1.2547,-1.2718,-1.2114,-1.1081,-1.0585,-0.9875,-0.9097,0.0,0.0,0.0,0.0,0.0,0.0,0.0,0.0,0.0,0.0,0.0,0.0,0.0,0.0,0.0,0.0,0.0,0.0,0.0,0.0,0.0,0.0,0.0,0.0,0.0,0.0,0.0,0.0,0.0,1.0608,1.0604,0.9896,1.0452,1.2121,0.0,0.0,0.0,0.0,1.9186,2.0165,0.0,0.0,0.0,0.0,0.0,0.0,0.0,0.0,0.0,0.0,0.9383,0.8107,0.9054,0.0,0.0,0.0,0.0,0.0,-0.3542,-0.1854,-0.0274,-0.3601,-0.2488,-0.1264,-0.3855,-0.6572,-0.9274,-1.1738,-1.2611,-1.288,-1.2776,-1.2726,-1.2385,-1.1458,-1.1667,-1.2084,-1.2534,-1.2417,-1.2509,-1.3179,-1.331,-1.3502,-1.3974,-1.3582,-1.3457,-1.3814,-1.3517,-1.3693,-1.4437,-1.4813,-1.5305,-1.59,-1.5958,-1.6021,-1.6144,-1.5521,-1.5052,-1.4765,-1.489,-1.5112,-1.5389,-1.5401,-1.536,-1.5253,-1.4752,-1.4358,-1.3982,-1.3644,-1.3371,-1.3135,-1.2932,-1.2519,-1.1909,-1.101,-1.0243,-0.9536,0.0,0.0,0.0,0.0,0.0,0.0,0.0,0.0,0.0,0.0,0.0,0.0,0.0,0.0,0.0,0.0,0.0,0.0,0.0,0.0,0.0,0.0,0.0,0.0,0.0,0.0,0.0,1.0449,0.9598,0.8962,0.8512,0.8505,0.955,0.0,0.0,0.0,0.0,0.0,1.7243,1.8086,0.0,0.0,0.0,0.0,0.0,0.0,0.0,0.0,0.0,0.0,0.0,0.0,0.0,0.0,0.0,0.388,0.0894,-0.2087,-0.3647,-0.2617,-0.1297,-0.2177,-0.008,0.1584,-0.0842,-0.3958,-0.7361,-1.0958,-1.1786,-1.2236,-1.343,-1.3383,-1.3106,-1.2951,-1.3266,-1.3784,-1.4479,-1.4138,-1.4113,-1.4903,-1.4776,-1.4623,-1.4686,-1.4155,-1.3984,-1.4406,-1.3952,-1.4115,-1.5134,-1.5418,-1.5783,-1.6335,-1.6563,-1.6664,-1.6637,-1.6852,-1.6473,-1.5568,-1.5918,-1.6144,-1.6278,-1.6322,-1.6207,-1.5978,-1.5466,-1.4965,-1.4522,-1.412,-1.3897,-1.3629,-1.3204,-1.281,-1.2356,-1.1255,-1.0513,-0.9927,0.0,0.0,0.0,0.0,0.0,0.0,0.0,0.0,0.0,0.0,0.0,0.0,0.0,0.0,0.0,0.0,0.0,0.0,0.0,0.0,0.0,0.0,0.0,0.0,0.0,1.0771,1.0036,0.9679,0.7962,0.7531,0.8337,0.8624,1.0197,1.2767,0.0,0.0,0.0,0.0,1.5666,1.6218,1.641,0.0,0.0,0.0,0.0,0.0,0.0,0.0,0.0,0.0,0.0,0.0,0.0,0.0,0.6685,0.4989,0.1588,-0.1525,-0.1129,-0.132,-0.1197,0.0671,0.1403,0.0863,-0.2161,-0.44,-0.6735,-0.988,-1.0866,-1.1888,-1.4253,-1.4773,-1.5026,-1.5614,-1.553,-1.5802,-1.699,-1.7302,-1.7316,-1.7041,-1.7022,-1.6818,-1.6208,-1.5505,-1.499,-1.4879,-1.4818,-1.4807,-1.4845,-1.5377,-1.5934,-1.647,-1.6325,-1.642,-1.6798,-1.758,-1.7838,-1.7491,-1.7177,-1.7449,-1.8202,-1.7556,-1.7047,-1.652,-1.5647,-1.5151,-1.4943,-1.4685,-1.4439,-1.4182,-1.3819,-1.2899,-1.1749,-1.1254,-1.0663,-1.0176,0.0,0.0,0.0,0.0,0.0,0.0,0.0,0.0,0.0,0.0,0.0,0.0,0.0,0.0,0.0,0.0,0.0,0.0,0.0,0.0,0.0,0.0,0.0,1.2366,1.2213,1.1261,1.0006,0.8494,0.6493,0.6124,0.726,0.7888,0.0,0.0,0.0,0.0,0.0,0.0,0.0,1.3278,1.3441,1.3674,0.0,0.0,0.0,0.0,0.0,0.0,0.0,0.0,0.8081,0.7359,0.7943,0.7715,0.669,0.4027,0.1436,-0.0754,-0.1739,-0.1583,-0.1032,-0.0602,0.0256,0.0488,-0.1387,-0.3342,-0.5699,-0.9026,-1.0222,-1.1399,-1.3799,-1.526,-1.6184,-1.6338,-1.6782,-1.7423,-1.8326,-1.81,-1.8032,-1.8501,-1.7849,-1.7228,-1.6879,-1.5779,-1.5273,-1.5728,-1.5389,-1.5389,-1.5944,-1.625,-1.6463,-1.6627,-1.6858,-1.7029,-1.711,-1.808,-1.8643,-1.8709,-1.8477,-1.8358,-1.8393,-1.8032,-1.7517,-1.702,-1.6385,-1.6028,-1.5899,-1.5153,-1.4926,-1.4904,-1.3816,-1.2781,-1.188,-1.1614,-1.1365,-1.1094,0.0,0.0,0.0,0.0,0.0,0.0,0.0,0.0,0.0,0.0,0.0,0.0,0.0,0.0,0.0,0.0,0.0,0.0,0.0,0.0,0.0,0.0,0.0,1.1869,1.1964,1.1718,1.0376,0.7875,0.577,0.5497,0.6901,0.0,0.0,0.0,0.0,0.0,0.0,0.0,0.0,0.0,1.0969,1.1132,0.0,0.0,0.0,0.0,0.0,0.0,0.0,0.0,0.7264,0.6535,0.7227,0.7251,0.6543,0.4152,0.2588,0.1313,-0.0183,-0.0076,0.0347,-0.0161,0.0,-0.0053,-0.1259,-0.3012,-0.5254,-0.8388,-1.0382,-1.2139,-1.3903,-1.5726,-1.6997,-1.6999,-1.7654,-1.8379,-1.8979,-1.8561,-1.8414,-1.8982,-1.8004,-1.7282,-1.7334,-1.6168,-1.5683,-1.6351,-1.5906,-1.5853,-1.6487,-1.6458,-1.6542,-1.6772,-1.7184,-1.752,-1.7634,-1.8625,-1.9213,-1.9291,-1.9443,-1.9371,-1.8957,-1.8377,-1.7961,-1.7688,-1.6992,-1.6583,-1.6402,-1.5729,-1.5208,-1.4849,-1.3606,-1.2735,-1.2104,-1.1922,-1.1815,-1.1763,0.0,0.0,0.0,0.0,0.0,0.0,0.0,0.0,0.0,0.0,0.0,0.0,0.0,0.0,0.0,0.0,0.0,0.0,0.0,0.0,0.0,0.0,0.0,1.0374,1.0977,1.2086,1.1127,0.8015,0.596,0.5812,0.7517,0.7434,0.0,0.0,0.0,0.0,0.0,0.0,0.0,0.0,0.9259,0.9279,0.8949,0.0,0.0,0.0,0.0,0.0,0.0,0.0,0.5915,0.6363,0.7448,0.0,0.0,0.582,0.5369,0.4896,0.435,0.373,0.3159,0.2862,0.1134,-0.0848,-0.2193,-0.3783,-0.565,-0.7938,-1.1499,-1.4329,-1.4803,-1.6268,-1.751,-1.7835,-1.822,-1.8599,-1.8936,-1.8936,-1.8746,-1.8362,-1.7547,-1.7152,-1.7558,-1.6799,-1.6377,-1.6585,-1.6346,-1.6181,-1.6114,-1.5872,-1.6064,-1.6869,-1.7142,-1.7655,-1.8392,-1.9245,-1.9581,-1.9315,-2.0112,-2.0399,-2.0254,-1.876,-1.8261,-1.8512,-1.7342,-1.6626,-1.6431,-1.6346,-1.5437,-1.3985,-1.3193,-1.2723,-1.2472,-1.2087,-1.2107,-1.2296,0.0,0.0,0.0,0.0,0.0,0.0,0.0,0.0,0.0,0.0,0.0,0.0,0.0,0.0,0.0,0.0,0.0,0.0,0.0,0.0,0.0,0.0,0.0,0.0,0.0,0.0,0.9088,0.9493,0.8248,0.788,0.0,0.0,0.0,0.9647,0.0,0.0,0.0,0.0,0.0,0.0,0.7758,0.7461,0.6933,0.0,0.0,0.0,0.0,0.0,0.0,0.0,0.0,0.0,0.6107,0.0,0.6791,0.5243,0.5533,0.6034,0.459,0.4307,0.4147,0.3136,0.1659,0.0,-0.1933,-0.3751,-0.5914,-0.8894,-1.1412,-1.3311,-1.4109,-1.5782,-1.7104,-1.7328,-1.8035,-1.8526,-1.8435,-1.8708,-1.8752,-1.835,-1.791,-1.7626,-1.7648,-1.688,-1.6466,-1.6736,-1.6485,-1.6414,-1.6663,-1.6404,-1.6578,-1.7282,-1.7219,-1.753,-1.8311,-1.8763,-1.9121,-1.929,-1.9486,-1.9622,-1.9677,-1.8988,-1.8489,-1.7975,-1.7236,-1.6748,-1.6402,-1.579,-1.4964,-1.4008,-1.3429,-1.2824,-1.228,-1.2597,-1.2706,-1.282,0.0,0.0,0.0,0.0,0.0,0.0,0.0,0.0,0.0,0.0,0.0,0.0,0.0,0.0,0.0,0.0,0.0,0.0,0.0,0.0,0.0,0.0,0.0,0.0,0.0,0.8282,0.852,0.0,0.0,0.0,0.0,0.0,0.0,0.8246,0.0,0.6233,0.0,0.0,0.0,0.0,0.6524,0.5955,0.5157,0.0,0.0,0.0,0.0,0.0,0.0,0.0,0.0,0.0,0.4193,0.0,0.4777,0.4027,0.528,0.6812,0.6436,0.666,0.6671,0.5275,0.321,0.0698,-0.2304,-0.4465,-0.665,-0.9391,-1.1083,-1.2436,-1.3615,-1.5128,-1.6253,-1.6487,-1.7238,-1.7714,-1.7437,-1.7636,-1.7772,-1.7638,-1.7267,-1.7154,-1.7501,-1.6907,-1.6548,-1.673,-1.6803,-1.6866,-1.6923,-1.6928,-1.7111,-1.7492,-1.7456,-1.7665,-1.8203,-1.8639,-1.8857,-1.8975,-1.9147,-1.9055,-1.8659,-1.8678,-1.848,-1.8171,-1.7648,-1.726,-1.6958,-1.6194,-1.5414,-1.4544,-1.3765,-1.3148,-1.2679,-1.2857,-1.2972,-1.3169,0.0,0.0,0.7491,0.6568,0.0,0.0,0.0,0.0,0.0,0.0,0.0,0.2243,0.0,0.0,0.0,0.3979,0.0,0.0,0.0,0.0,0.0,0.0,0.0,0.0,0.0,0.0,0.0,0.0,0.0,0.0,0.0,0.0,0.7319,0.6853,0.0,0.4638,0.0,0.0,0.0,0.0,0.548,0.4748,0.3678,0.2614,0.0,0.0,0.0,0.0,0.0,0.0,0.0,0.0,0.2015,0.1527,0.134,0.2309,0.4532,0.7041,0.8805,0.9631,0.9662,0.8203,0.495,0.103,-0.296,-0.5296,-0.72,-0.927,-1.0432,-1.156,-1.3071,-1.4175,-1.4967,-1.5442,-1.5978,-1.6279,-1.6046,-1.6073,-1.6178,-1.6441,-1.6044,-1.6112,-1.7124,-1.6823,-1.6583,-1.6642,-1.7087,-1.721,-1.6871,-1.723,-1.7448,-1.7472,-1.7737,-1.7918,-1.8108,-1.8614,-1.8748,-1.8491,-1.8871,-1.8559,-1.7643,-1.7942,-1.836,-1.8822,-1.8313,-1.8024,-1.7773,-1.7154,-1.6294,-1.5281,-1.4308,-1.3714,-1.3484,-1.2928,-1.3015,-1.3398,0.0,0.0,0.6036,0.4995,0.0,0.0,0.0,0.0,0.0592,0.0169,0.059,0.1117,0.1575,0.2131,0.0,0.3333,0.3727,0.0,0.0,0.0,0.0,0.0,0.0,0.0,0.0,0.0,0.0,0.0,0.0,0.0,0.0,0.0,0.0,0.5492,0.0,0.3568,0.0,0.0,0.0,0.5068,0.4703,0.3892,0.2801,0.1932,0.0937,0.0,0.0,0.0,0.0,0.0,0.0,0.0,0.0792,0.0702,0.0608,0.0316,0.244,0.5165,0.6479,0.7686,0.8248,0.6972,0.309,-0.0851,-0.2534,-0.3306,-0.455,-0.7555,-0.8876,-0.9856,-1.1081,-1.2204,-1.3119,-1.3845,-1.4316,-1.4507,-1.4398,-1.5002,-1.5392,-1.5286,-1.5728,-1.6208,-1.6655,-1.6481,-1.6328,-1.6306,-1.621,-1.623,-1.6361,-1.6255,-1.6541,-1.7317,-1.7424,-1.7778,-1.8261,-1.8148,-1.8113,-1.8157,-1.7629,-1.7477,-1.7692,-1.8064,-1.8294,-1.8424,-1.8195,-1.8195,-1.8159,-1.719,-1.6302,-1.5551,-1.4706,-1.3973,-1.3339,-1.331,-1.3178,-1.3259,0.0,0.0,0.0,0.0,0.0,0.0,0.0,0.0,-0.0424,-0.0865,-0.0325,0.0355,0.1004,0.1559,0.0,0.0,0.2849,0.3199,0.0,0.0,0.0,0.0,0.0,0.0,0.0,0.0,0.0,0.0,0.0,0.0,0.0,0.0,0.0,0.4197,0.0,0.2805,0.0,0.0,0.3731,0.4253,0.3774,0.3082,0.2264,0.1438,0.0574,-0.0234,-0.0519,0.0,0.0,0.0,0.0,0.0,0.0,0.0,-0.2496,-0.2144,-0.0511,0.1684,0.3946,0.5197,0.5558,0.428,0.1539,-0.0758,-0.0384,-0.0625,-0.1316,-0.2898,-0.5256,-0.756,-0.9077,-1.0064,-1.1007,-1.2003,-1.2476,-1.2833,-1.3145,-1.3875,-1.4505,-1.4708,-1.5449,-1.6068,-1.6372,-1.6465,-1.6477,-1.6513,-1.6598,-1.6654,-1.6776,-1.688,-1.7031,-1.7382,-1.7567,-1.7589,-1.7467,-1.7551,-1.7348,-1.6876,-1.6779,-1.6991,-1.7427,-1.8044,-1.8549,-1.9003,-1.9093,-1.9146,-1.9097,-1.8276,-1.7375,-1.6436,-1.5397,-1.4489,-1.3791,-1.3572,-1.3336,-1.3207,0.0,0.0,0.0,0.0,0.0,0.0,0.0,0.0,0.0,-0.1567,-0.0962,-0.0199,0.0621,0.1148,0.1524,0.0,0.0,0.0,0.2317,0.0,0.0,0.0,0.0,0.0,0.0,0.0,0.0,0.0,0.0,0.0,0.0,0.0,0.0,0.3074,0.0,0.0,0.0,0.0,0.3067,0.3328,0.2841,0.236,0.187,0.1165,0.044,-0.0111,0.0295,0.0229,-0.004,-0.0079,0.0,0.0,0.0,0.0,-0.5835,-0.4684,-0.364,-0.2139,0.1161,0.2085,0.1904,0.1216,0.0183,-0.0144,0.2043,0.2325,0.2197,0.2378,-0.1175,-0.4866,-0.6744,-0.7693,-0.8635,-0.9866,-1.0441,-1.1054,-1.1979,-1.2805,-1.3644,-1.4375,-1.5257,-1.5929,-1.6365,-1.6593,-1.68,-1.6862,-1.7162,-1.7381,-1.7422,-1.7729,-1.772,-1.7468,-1.7618,-1.7357,-1.6487,-1.694,-1.658,-1.5571,-1.6182,-1.6661,-1.706,-1.7994,-1.8944,-1.9839,-2.0198,-2.0355,-2.0282,-1.9651,-1.8663,-1.7482,-1.6058,-1.5056,-1.4423,-1.3773,-1.3389,-1.3296,0.0,0.0,0.0,0.0,0.0,0.0,0.0,0.0,0.0,0.0,-0.1452,-0.0795,-0.0191,0.0414,0.0943,0.1165,0.1343,0.1521,0.0,0.0,0.0,0.0,0.0,0.0,0.0,0.0,0.0,0.0,0.0,0.0,0.0,0.0,0.0,0.2236,0.0,0.0,0.0,0.0,0.2204,0.2438,0.2131,0.179,0.141,0.1269,0.0886,0.0389,0.0467,0.0361,0.0083,-0.0541,-0.1206,0.0,0.0,0.0,-0.6787,-0.6876,-0.626,-0.4962,-0.2047,-0.2248,-0.2799,-0.0844,-0.0942,-0.0599,0.3005,0.4882,0.5771,0.5251,0.1635,-0.1918,-0.3452,-0.4783,-0.5998,-0.7317,-0.8154,-0.915,-1.0547,-1.1757,-1.2987,-1.4284,-1.5225,-1.6069,-1.6695,-1.6839,-1.6965,-1.7203,-1.6922,-1.6973,-1.7526,-1.7134,-1.6982,-1.7234,-1.722,-1.6842,-1.6059,-1.6052,-1.579,-1.5339,-1.5684,-1.6252,-1.698,-1.8154,-1.9208,-2.0062,-2.0679,-2.1179,-2.1428,-2.0117,-1.9132,-1.8328,-1.6745,-1.5555,-1.4642,-1.4078,-1.3793,-1.3839,0.0,0.0,0.0,0.0,0.0,0.0,0.0,0.0,0.0,0.0,0.0,-0.0945,-0.0345,0.0345,0.0867,0.0996,0.1105,0.0,0.0,0.0,0.0,0.0,0.0,0.0,0.0,0.0,0.0,0.0,0.0,0.0,0.0,0.3178,0.2651,0.0,0.0,0.0,0.0,0.0,0.1131,0.1247,0.1222,0.1229,0.121,0.1072,0.0821,0.053,0.0408,0.0,-0.061,-0.13,-0.222,-0.3508,-0.5883,0.0,0.0,0.0,-0.8129,-0.7251,-0.5436,-0.5669,-0.5716,-0.283,-0.0983,0.1136,0.5026,0.7365,0.8668,0.8353,0.5967,0.2971,-0.0327,-0.2204,-0.3646,-0.4935,-0.6093,-0.7472,-0.9214,-1.0887,-1.2645,-1.4513,-1.6178,-1.7471,-1.8316,-1.8566,-1.8771,-1.8899,-1.841,-1.8231,-1.8562,-1.7996,-1.7454,-1.7213,-1.7011,-1.6332,-1.5248,-1.5243,-1.526,-1.5049,-1.568,-1.6564,-1.7666,-1.8991,-2.0065,-2.0811,-2.1535,-2.1938,-2.2121,-2.124,-2.0093,-1.8786,-1.7431,-1.614,-1.5062,-1.4635,-1.4315,-1.4183,0.0,0.0,0.0,0.0,0.0,0.0,0.0,0.0,0.0,0.0,0.0,-0.092,-0.031,0.0,0.0,0.0,0.092,0.0,0.0,0.0,0.0,0.0,0.0,0.0,0.0,0.0,0.0,0.0,0.0,0.0,0.2533,0.1943,0.1534,0.0,0.065,0.0365,0.0,0.0,0.0083,0.0165,0.0449,0.0732,0.0974,0.0936,0.0705,0.0427,0.0263,-0.04,-0.1345,-0.223,-0.3237,-0.4532,-0.7001,-0.8149,0.0,0.0,0.0,-0.9269,-0.8857,-0.9224,-0.8949,-0.5398,-0.206,0.1483,0.5837,0.8735,1.0435,1.0129,0.8856,0.6528,0.2595,0.0444,-0.1275,-0.2688,-0.4146,-0.5858,-0.7861,-1.0111,-1.2506,-1.4976,-1.7339,-1.9235,-2.0504,-2.0878,-2.1104,-2.1167,-2.0391,-1.9784,-1.9509,-1.8814,-1.7904,-1.6895,-1.6548,-1.5687,-1.4283,-1.4561,-1.4823,-1.5046,-1.6043,-1.7169,-1.8326,-1.9795,-2.0881,-2.1596,-2.2246,-2.2601,-2.2627,-2.2102,-2.0915,-1.9264,-1.8049,-1.6699,-1.5497,-1.5184,-1.488,-1.466,0.0,0.0,0.0,0.0,0.0,0.0,0.0,0.0,0.0,0.0,0.0,-0.0841,-0.0183,0.008,0.0379,0.0674,0.0614,0.0,0.0,0.0,0.0,0.0,0.0,0.0,0.0,0.0,0.0,0.0,0.0,0.0,0.1552,0.0755,0.0,-0.0631,-0.0586,-0.0482,-0.0449,0.0,-0.0778,-0.0517,0.0,0.0312,0.0491,0.0979,0.0712,0.0,-0.0049,-0.0714,-0.1804,-0.3387,-0.4127,-0.4885,-0.7792,-0.8653,-0.8732,0.0,0.0,0.0,-1.2225,-1.3474,-1.3324,-0.8928,-0.5358,-0.1398,0.423,0.8074,1.0248,0.9648,0.8484,0.7019,0.5206,0.3311,0.1377,-0.0415,-0.2331,-0.4439,-0.6652,-0.9562,-1.2602,-1.5787,-1.8543,-2.1025,-2.3299,-2.3669,-2.3794,-2.3771,-2.2661,-2.1305,-1.976,-1.9066,-1.7848,-1.6052,-1.5655,-1.4761,-1.3314,-1.3885,-1.4522,-1.5397,-1.6904,-1.8041,-1.8788,-2.0257,-2.1427,-2.2394,-2.2862,-2.3038,-2.2989,-2.2227,-2.1185,-1.993,-1.8418,-1.7088,-1.6015,-1.5654,-1.5507,-1.5439,0.0,0.0,0.0,0.0,0.0,0.0,0.0,0.0,0.0,0.0,0.0,0.0,0.0,0.0494,0.0725,0.0928,0.0775,0.0,0.0,0.0,0.0,0.0,0.0,0.0,0.0,0.0,0.0,0.0,0.0,0.0785,0.0902,0.0146,-0.0649,-0.138,-0.1533,-0.1339,-0.1042,-0.1524,-0.1298,-0.0592,-0.0292,0.0097,0.0436,0.0194,0.0048,-0.0093,-0.0818,-0.1732,-0.2823,-0.4144,-0.5288,-0.6538,-0.8534,-0.926,-0.9498,-1.0303,-1.068,-1.1128,-1.249,-1.3072,-1.2625,-0.9742,-0.5694,-0.1359,0.2456,0.6068,0.8499,0.7853,0.6994,0.5859,0.4216,0.3333,0.2207,0.0342,-0.1353,-0.3418,-0.6106,-0.9096,-1.2478,-1.6602,-2.0276,-2.3373,-2.5935,-2.6567,-2.6622,-2.6109,-2.4611,-2.2944,-2.1244,-1.9686,-1.802,-1.6181,-1.4881,-1.3807,-1.2858,-1.3756,-1.4747,-1.5842,-1.7553,-1.8888,-1.982,-2.1096,-2.2227,-2.3089,-2.3437,-2.358,-2.3474,-2.2601,-2.1377,-2.0061,-1.8566,-1.7334,-1.6366,-1.5966,-1.5754,-1.5738,0.0,0.0,0.0,0.1793,0.0,0.1275,0.0447,-0.0047,0.0,0.0,0.0,0.0,0.0,0.0,0.1018,0.0965,0.0,0.0,0.0,0.0,0.0,0.0,0.0,0.0,0.0,0.0,0.0,0.0,0.0,0.0,0.0,-0.0821,-0.1574,-0.2542,-0.2804,-0.2579,-0.2071,-0.2465,-0.2073,-0.118,-0.077,-0.0408,-0.0151,-0.0409,-0.0652,-0.0922,-0.1866,-0.2895,-0.4089,-0.5442,-0.6654,-0.7881,-0.9369,-0.9873,-1.0098,-1.0778,-1.1066,-1.15,-1.2829,-1.3097,-1.237,-0.9857,-0.6532,-0.2902,0.0573,0.3351,0.5089,0.4625,0.4227,0.349,0.2035,0.162,0.1114,0.0347,-0.1092,-0.3078,-0.597,-0.9165,-1.292,-1.7441,-2.1713,-2.5426,-2.8127,-2.9046,-2.912,-2.8099,-2.6533,-2.4544,-2.2116,-1.9881,-1.7435,-1.4701,-1.3315,-1.2579,-1.2364,-1.3614,-1.5014,-1.6448,-1.8245,-1.9686,-2.0736,-2.1909,-2.2869,-2.3485,-2.3869,-2.4055,-2.39,-2.2978,-2.1752,-2.0348,-1.8886,-1.7739,-1.6819,-1.6401,-1.6081,-1.5977,0.2124,0.1842,0.1751,0.2247,0.2055,0.1668,0.1129,0.092,0.0717,0.0401,0.0,0.0,0.0,0.0,0.0,0.0,0.0,0.0,0.0,0.0,0.0,0.0,0.0,0.0,0.0,0.0,0.0,0.0,0.0,0.0,0.0,0.0,-0.2904,-0.4164,-0.4414,-0.4137,-0.357,-0.3583,-0.3182,-0.2401,-0.144,-0.12,-0.1368,-0.0789,-0.1353,-0.2478,-0.3123,-0.4189,-0.5494,-0.7328,-0.8146,-0.8707,-1.0236,-1.0498,-1.0425,-1.1132,-1.1536,-1.21,0.0,0.0,0.0,-0.9787,-0.8156,-0.6193,-0.1522,-0.0076,0.0233,0.0158,0.0242,0.0,-0.1156,-0.1736,-0.1751,-0.0686,-0.1548,-0.3383,-0.6284,-0.9964,-1.4013,-1.8324,-2.3029,-2.7066,-2.9995,-3.1182,-3.1235,-2.9892,-2.845,-2.5982,-2.2123,-1.9484,-1.5964,-1.1352,-1.0819,-1.1044,-1.1857,-1.3414,-1.5234,-1.7216,-1.8883,-2.0333,-2.1427,-2.2589,-2.3232,-2.3563,-2.4235,-2.4486,-2.4365,-2.3248,-2.209,-2.0841,-1.9463,-1.8302,-1.7449,-1.6852,-1.6514,-1.6324,0.151,0.1746,0.2205,0.2727,0.2842,0.2759,0.2423,0.1723,0.1365,0.0,0.0,0.0,0.0,0.0,0.0,0.0,0.0,0.0,0.0,0.0,0.0,0.0,0.0,0.0,0.0,0.0,0.0,0.0,0.0,0.0,0.0,0.0,0.0,-0.4777,-0.4952,-0.5031,-0.5064,-0.4477,-0.3626,-0.2565,-0.2449,-0.2171,-0.1915,-0.2493,-0.2702,-0.2906,-0.442,-0.5433,-0.6316,-0.7828,-0.8697,-0.9375,-1.0399,-1.0501,-1.0493,-1.1455,-1.1722,-1.2105,-1.3945,0.0,0.0,0.0,0.0,0.0,-0.5243,-0.3707,-0.2918,-0.3033,-0.3664,-0.439,-0.5156,-0.5852,-0.6457,-0.6832,-0.5915,-0.6379,-0.9686,-1.3241,-1.7038,-2.1298,-2.5788,-2.942,-3.1643,-3.2826,-3.2938,-3.1741,-2.9837,-2.6885,-2.2655,-1.6535,-1.1817,-0.8961,-0.9025,-0.9722,-1.0934,-1.3145,-1.5217,-1.7296,-1.8922,-2.044,-2.1736,-2.2504,-2.3533,-2.4686,-2.4595,-2.4766,-2.5012,-2.3208,-2.1879,-2.0789,-1.9059,-1.8065,-1.7385,-1.6691,-1.6467,-1.6524,0.2135,0.2411,0.2847,0.349,0.3692,0.3699,0.3392,0.2771,0.2487,0.0,0.0,0.0,0.0,0.0,0.0,0.0,0.0,0.0,0.0,0.0,0.0,0.0,-0.6151,0.0,0.0,0.0,0.0,0.0,0.0,0.0,0.0,0.0,0.0,0.0,-0.5932,-0.6069,-0.6402,-0.5655,-0.4561,-0.3394,-0.3387,-0.337,-0.338,-0.4038,-0.4379,-0.4703,-0.598,-0.6975,-0.7843,-0.8974,-0.9867,-1.0578,-1.0949,-1.0903,-1.0901,-1.1681,-1.1902,-1.2108,-1.3534,-1.3553,-1.2907,-1.1754,0.0,0.0,-0.7017,-0.635,-0.6295,-0.6974,-0.7604,-0.8235,-0.884,-0.9438,-1.0158,-1.0953,-1.0594,-1.0988,-1.3218,-1.6293,-1.9713,-2.3471,-2.7511,-3.0761,-3.2725,-3.3954,-3.4043,-3.263,-3.054,-2.6269,-1.931,-1.3332,-0.9033,-0.6609,-0.7379,-0.8563,-1.0242,-1.2702,-1.5213,-1.7515,-1.8885,-2.0375,-2.1993,-2.2676,-2.3599,-2.4764,-2.4632,-2.4806,-2.4963,-2.3145,-2.1838,-2.0779,-1.9174,-1.8173,-1.7656,-1.6898,-1.6643,-1.6424,0.0,0.3523,0.3754,0.4475,0.4626,0.4564,0.4306,0.3917,0.3756,0.0,0.0,0.0,0.0,0.0,0.0,0.0,0.0,0.0,0.0,0.0,0.0,-0.4453,-0.574,-0.6678,0.0,0.0,0.0,0.0,0.0,0.0,0.0,0.0,0.0,0.0,-0.7049,-0.7106,-0.7464,-0.6841,-0.5868,-0.4766,-0.4452,-0.4737,-0.529,-0.5449,-0.623,-0.7309,-0.7832,-0.8745,-0.9898,-1.066,-1.1402,-1.2036,-1.1711,-1.1571,-1.1571,-1.1971,-1.2175,-1.2357,-1.2881,-1.28,-1.2,-0.9729,-0.9874,0.0,-0.7869,-0.83,-0.9656,-1.0902,-1.1213,-1.1503,-1.2167,-1.257,-1.2993,-1.3692,-1.509,-1.6232,-1.663,-1.9209,-2.2254,-2.5356,-2.8726,-3.1569,-3.3513,-3.4693,-3.4673,-3.2967,-3.0157,-2.4191,-1.4213,-1.0255,-0.7103,-0.4419,-0.5735,-0.751,-0.9566,-1.2301,-1.502,-1.7729,-1.8779,-2.0273,-2.2046,-2.2802,-2.3586,-2.4138,-2.4579,-2.4682,-2.4326,-2.3148,-2.1964,-2.0841,-1.9439,-1.8567,-1.7858,-1.737,-1.6749,-1.6217,0.3971,0.455,0.5197,0.5691,0.5639,0.5598,0.5826,0.4886,0.43,0.4626,0.0,0.0,0.0,0.0,0.0,0.0,0.0,0.0,0.0,0.0,-0.3843,-0.4846,-0.5789,-0.6424,-0.6785,-0.7949,0.0,0.0,0.0,0.0,0.0,0.0,0.0,0.0,-0.739,-0.744,-0.738,-0.7116,-0.6844,-0.6529,-0.6129,-0.6079,-0.6354,-0.6986,-0.7819,-0.8858,-0.9984,-1.0913,-1.163,-1.2411,-1.2893,-1.3057,-1.2725,-1.2696,-1.2773,-1.2538,-1.3032,-1.3677,-1.3518,-1.3469,-1.321,-1.2369,-1.1985,0.0,-1.0367,-1.0797,-1.1632,-1.2235,-1.3075,-1.3926,-1.4717,-1.4786,-1.5056,-1.6259,-1.7454,-1.8648,-1.9684,-2.2297,-2.538,-2.8659,-3.1245,-3.3326,-3.4802,-3.5078,-3.4774,-3.3825,-2.6738,-1.967,-1.3201,-0.8332,-0.4818,-0.2846,-0.4163,-0.6244,-0.8946,-1.2056,-1.4803,-1.7229,-1.8769,-2.0293,-2.1643,-2.2705,-2.3639,-2.4436,-2.4712,-2.4593,-2.4158,-2.2947,-2.1785,-2.078,-1.9443,-1.8427,-1.7767,-1.7069,-1.6636,-1.6111,0.5496,0.6048,0.6462,0.6657,0.6684,0.6667,0.6578,0.5809,0.5174,0.0,0.0,0.0,0.1349,-0.0292,-0.1663,0.0,0.0,0.0,0.0,-0.3794,-0.4168,-0.4513,-0.5467,-0.6285,-0.7054,-0.818,0.0,0.0,0.0,0.0,0.0,0.0,0.0,0.0,-0.8366,-0.8139,-0.7661,-0.7485,-0.747,-0.7547,-0.7176,-0.7178,-0.7492,-0.8554,-0.9629,-1.0656,-1.1623,-1.252,-1.3314,-1.351,-1.387,-1.4076,-1.3443,-1.3437,-1.368,-1.3564,-1.364,-1.3843,-1.3669,-1.3502,-1.3286,-1.2669,-1.2451,0.0,0.0,-1.2011,-1.2779,-1.3059,-1.4317,-1.5466,-1.5889,-1.636,-1.6845,-1.7435,-1.8567,-1.9793,-2.0924,-2.3866,-2.7207,-3.0734,-3.2276,-3.3693,-3.53,-3.5237,-3.3957,-3.1196,-2.4258,-1.766,-1.2049,-0.7091,-0.3718,-0.2218,-0.3645,-0.5937,-0.8951,-1.1959,-1.4695,-1.7174,-1.8161,-1.9458,-2.1024,-2.1703,-2.2665,-2.3898,-2.3917,-2.3884,-2.3555,-2.2447,-2.147,-2.0491,-1.9225,-1.8284,-1.7575,-1.6945,-1.6311,-1.5779,0.7224,0.7545,0.7753,0.7653,0.7778,0.7722,0.7346,0.679,0.6019,0.0,0.0,0.1481,0.1342,-0.0647,-0.2272,-0.2934,0.0,0.0,-0.3963,-0.4502,-0.4677,-0.4495,-0.5312,-0.6288,-0.7269,-0.8388,0.0,0.0,0.0,0.0,0.0,0.0,-1.0611,-0.964,-0.9467,-0.8899,-0.8034,-0.7897,-0.7818,-0.7856,-0.7852,-0.8042,-0.8518,-0.9808,-1.1125,-1.239,-1.3287,-1.4348,-1.5242,-1.4741,-1.4935,-1.5257,-1.4301,-1.4213,-1.4513,-1.4521,-1.428,-1.4036,-1.3963,-1.3797,-1.3492,-1.2755,-1.266,-1.255,0.0,0.0,0.0,-1.3953,-1.5355,-1.6525,-1.6764,-1.7523,-1.8097,-1.8147,-1.9,-2.02,-2.1699,-2.4405,-2.758,-3.1127,-3.2045,-3.3101,-3.4891,-3.4546,-3.241,-2.8047,-2.2412,-1.6759,-1.125,-0.6448,-0.3343,-0.2143,-0.3526,-0.5889,-0.9168,-1.1771,-1.4287,-1.6788,-1.7288,-1.8424,-2.0112,-2.0579,-2.1539,-2.2828,-2.2955,-2.2952,-2.2756,-2.1836,-2.1019,-2.0116,-1.9023,-1.8115,-1.7445,-1.686,-1.6199,-1.5345,0.8315,0.883,0.9235,0.9006,0.888,0.8884,0.8898,0.8063,0.6475,0.0,0.2747,0.1341,-0.0952,-0.2053,-0.2812,-0.329,-0.4042,-0.4599,-0.4896,-0.4997,-0.5285,-0.5779,-0.6034,-0.6423,-0.706,-0.8918,0.0,0.0,0.0,0.0,0.0,0.0,-1.1836,-1.0602,-1.0236,-0.9415,-0.8255,-0.822,-0.7799,-0.7196,-0.818,-0.8775,-0.9209,-1.0368,-1.1833,-1.3598,-1.5719,-1.7052,-1.7627,-1.6807,-1.6654,-1.6812,-1.5861,-1.5617,-1.553,-1.5052,-1.5239,-1.5487,-1.5359,-1.5265,-1.5088,-1.4289,-1.381,-1.3402,-1.319,0.0,-1.4213,-1.581,0.0,-1.7413,-1.8519,0.0,0.0,-1.8943,-1.9041,-1.9989,-2.2873,-2.3876,-2.5447,-2.8466,-3.0076,-3.1507,-3.298,-3.1805,-2.9806,-2.7041,-2.1494,-1.6147,-1.1318,-0.6419,-0.3396,-0.2451,-0.3546,-0.5767,-0.9192,-1.1434,-1.3518,-1.5334,-1.6532,-1.7637,-1.8666,-1.9858,-2.082,-2.1469,-2.2203,-2.2244,-2.1643,-2.0998,-2.0288,-1.9652,-1.8934,-1.8253,-1.7742,-1.6931,-1.6199,-1.5345,0.9472,0.9673,0.988,0.9969,0.9957,0.9822,0.9597,0.8088,0.6478,0.4927,0.3133,0.1396,-0.0155,-0.1735,-0.3062,-0.3885,-0.4703,-0.5275,-0.5601,-0.5902,-0.628,-0.681,-0.6912,-0.7466,-0.8648,-0.9713,-1.0962,0.0,-1.3078,0.0,0.0,0.0,-1.3305,-1.2012,-1.1414,-1.0176,-0.8651,-0.9158,-0.882,-0.805,-0.9211,-0.9758,-0.9967,-1.1028,-1.3007,-1.5503,-1.7312,-1.8363,-1.8703,-1.7745,-1.7745,-1.7796,-1.6405,-1.6285,-1.6515,-1.606,-1.6061,-1.6219,-1.6042,-1.6052,-1.5852,-1.4688,-1.4493,-1.4371,-1.3384,-1.4154,-1.5245,-1.5583,0.0,0.0,0.0,0.0,0.0,0.0,-1.9584,-2.0252,-2.1399,-2.2292,-2.42,-2.8062,-2.8888,-2.9669,-3.1039,-3.0647,-2.9187,-2.6316,-2.1564,-1.6714,-1.1784,-0.7025,-0.4126,-0.3483,-0.4128,-0.5927,-0.8954,-1.0798,-1.2616,-1.4438,-1.5181,-1.6263,-1.755,-1.8357,-1.9427,-2.0669,-2.1109,-2.1284,-2.113,-2.052,-1.9964,-1.938,-1.8338,-1.774,-1.738,-1.6523,-1.5672,-1.4922,1.0677,1.0649,1.0693,1.1072,1.0986,1.0601,0.971,0.8153,0.6714,0.576,0.373,0.1891,0.0422,-0.1425,-0.3069,-0.4341,-0.5273,-0.5967,-0.6334,-0.6855,-0.7409,-0.796,-0.8007,-0.8761,-1.0214,-1.0824,-1.1931,0.0,0.0,0.0,0.0,0.0,-1.5256,-1.4248,-1.3058,-1.1511,-0.9834,-0.9959,-0.9337,-0.8351,-0.953,-1.0378,-1.1099,-1.2336,-1.475,-1.7562,-1.8995,-1.9727,-2.0025,-1.9113,-1.8854,-1.8605,-1.7142,-1.6871,-1.7028,-1.689,-1.6963,-1.7088,-1.6899,-1.7084,-1.7023,-1.5366,-1.5274,-1.5296,-1.4232,-1.493,-1.5803,-1.5976,-1.7302,0.0,0.0,0.0,-1.9419,-1.9417,0.0,-2.0283,-2.0591,-2.1403,-2.3285,-2.6787,-2.7701,-2.8641,-3.0099,-2.9915,-2.852,-2.5563,-2.1572,-1.7096,-1.2193,-0.7906,-0.5254,-0.4613,-0.4864,-0.6257,-0.8656,-1.0202,-1.1753,-1.3405,-1.3916,-1.4953,-1.6413,-1.6911,-1.8066,-1.9667,-1.9951,-2.027,-2.0482,-1.9926,-1.9494,-1.9041,-1.7775,-1.7098,-1.6769,-1.6131,-1.5351,-1.439,1.1782,1.2018,1.2114,1.24,1.1992,1.1048,0.9313,0.8633,0.7545,0.5416,0.4464,0.2842,-0.0317,-0.1529,-0.2744,-0.4341,-0.5844,-0.6857,-0.7255,-0.7845,-0.8557,-0.95,-0.9491,-0.9946,-1.1109,-1.2089,-1.3229,-1.4651,-1.5514,0.0,0.0,0.0,0.0,0.0,-1.5395,-1.3577,-1.2258,-1.0293,-0.8606,-0.7455,-0.8493,-1.0481,-1.2933,-1.4677,-1.7032,-1.9547,-2.0928,-2.1798,-2.2211,-2.1408,-2.0309,-1.9123,-1.8383,-1.7465,-1.6751,-1.7323,-1.7884,-1.8315,-1.8242,-1.8831,-1.8899,-1.6902,-1.6201,-1.6059,-1.6507,-1.5723,-1.5527,-1.7779,-1.7847,-1.7685,-1.8027,-1.8294,-1.8689,-1.9388,-1.944,0.0,0.0,-2.2062,-2.2608,-2.3537,-2.6316,-2.8916,-3.0723,-2.9265,-2.7223,-2.4627,-2.1144,-1.7042,-1.2248,-0.9124,-0.6953,-0.582,-0.5764,-0.6644,-0.8457,-0.9602,-1.0815,-1.2133,-1.2975,-1.3986,-1.5258,-1.5937,-1.6984,-1.8288,-1.8641,-1.9046,-1.9396,-1.9091,-1.8859,-1.8557,-1.725,-1.6599,-1.6311,-1.5998,-1.5137,-1.4169,1.1353,1.2018,1.2507,1.2964,1.2663,1.1505,0.9047,0.8508,0.7717,0.5814,0.4487,0.2929,0.0976,-0.109,-0.3065,-0.4887,-0.6058,-0.704,-0.7845,-0.8876,-0.9849,-1.0723,-1.1076,-1.1722,-1.2742,-1.3468,-1.4404,-1.5451,-1.6487,-1.7849,0.0,0.0,0.0,0.0,-1.6834,-1.5039,-1.3295,-1.2514,-1.1314,-1.0001,-1.1101,-1.2757,-1.4754,-1.6168,-1.8177,-2.042,-2.2491,-2.3589,-2.3875,-2.2979,-2.2144,-2.1084,-1.9333,-1.8465,-1.816,-1.8086,-1.831,-1.8788,-1.9162,-1.9557,-1.955,-1.8309,-1.8228,-1.827,-1.7563,-1.7568,-1.7813,-1.8398,-1.8452,-1.838,-1.8151,-1.8348,-1.8632,-1.9007,-1.9448,-2.0258,0.0,-2.2684,-2.409,-2.5678,-2.6792,-2.7874,-2.904,-2.8819,-2.7218,-2.3851,-2.1646,-1.8288,-1.3307,-1.0795,-0.8874,-0.7486,-0.7082,-0.7469,-0.8518,-0.9367,-1.0316,-1.1543,-1.2529,-1.3583,-1.472,-1.5755,-1.6769,-1.7873,-1.8482,-1.8724,-1.8824,-1.8814,-1.8476,-1.7784,-1.7042,-1.6337,-1.5672,-1.5244,-1.439,-1.3439,1.0838,1.135,1.1825,1.28,1.2034,1.0473,0.81,0.7292,0.6499,0.5105,0.3822,0.2443,0.0842,-0.1184,-0.3182,-0.5058,-0.635,-0.7489,-0.8521,-0.9775,-1.091,-1.1984,-1.2564,-1.3297,-1.4275,-1.4883,-1.5815,-1.7069,-1.7999,-1.9583,0.0,0.0,0.0,0.0,-1.8897,-1.7074,-1.5704,-1.4564,-1.3162,-1.1866,-1.2822,-1.4373,-1.6282,-1.8709,-2.0607,-2.2261,-2.4487,-2.5531,-2.5597,-2.4941,-2.3852,-2.2437,-2.0508,-1.9594,-1.9113,-1.8795,-1.9101,-1.9642,-2.0074,-2.0607,-2.0756,-1.9684,-1.9705,-1.975,-1.8794,-1.8669,-1.8681,-1.8218,-1.8243,-1.8002,-1.6963,-1.7574,-1.8229,-1.8379,-1.9351,-2.0698,0.0,-2.3841,-2.552,-2.757,-2.7686,-2.8076,-2.9297,-2.9146,-2.7476,-2.3835,-2.214,-1.919,-1.4305,-1.2485,-1.0796,-0.9299,-0.8617,-0.8512,-0.8928,-0.9486,-1.0343,-1.1536,-1.2417,-1.3423,-1.4493,-1.5571,-1.6521,-1.7408,-1.8109,-1.8419,-1.8385,-1.8405,-1.8023,-1.7425,-1.6772,-1.6037,-1.5329,-1.4781,-1.3738,-1.2583,1.027,1.0002,1.0134,1.1721,1.0157,0.8122,0.6543,0.5175,0.403,0.3282,0.251,0.1299,-0.0641,-0.1751,-0.3134,-0.4961,-0.6718,-0.8143,-0.9275,-1.052,-1.1845,-1.3382,-1.4003,-1.4686,-1.5525,-1.6333,-1.7622,-1.939,-2.0106,-2.1747,0.0,0.0,0.0,0.0,-2.1474,-1.9821,-1.924,-1.6294,-1.4238,-1.308,-1.3724,-1.5246,-1.7588,-2.1939,-2.4115,-2.5059,-2.6943,-2.7574,-2.7533,-2.7373,-2.5492,-2.313,-2.1996,-2.0695,-1.9555,-1.9435,-2.0182,-2.103,-2.1035,-2.1905,-2.2492,-2.116,-2.0719,-2.0526,-2.0148,-1.9155,-1.8134,-1.7504,-1.7255,-1.6578,-1.4735,-1.6026,-1.7484,-1.77,-1.9193,-2.1356,-2.4253,-2.5418,-2.6748,-2.8983,-2.8972,-2.9498,-3.1213,-3.0197,-2.7911,-2.4381,-2.2659,-1.979,-1.525,-1.4216,-1.2911,-1.1096,-1.0299,-0.9741,-0.9669,-0.9879,-1.0721,-1.2152,-1.2674,-1.3574,-1.4682,-1.5409,-1.6258,-1.6935,-1.7529,-1.8021,-1.828,-1.7981,-1.7736,-1.7477,-1.6636,-1.5728,-1.4995,-1.459,-1.3171,-1.1472,0.7139,0.7214,0.7311,0.7396,0.7794,0.734,0.5124,0.4002,0.2898,0.1432,0.0169,-0.0862,-0.1391,-0.256,-0.3861,-0.5244,-0.6608,-0.8138,-0.9922,-1.1436,-1.2728,-1.3917,-1.5018,-1.5861,-1.6515,-1.8054,-1.9425,-2.0718,-2.2294,-2.3753,-2.5217,0.0,0.0,0.0,-2.3342,-2.1926,-2.0797,-1.8109,-1.6052,-1.4624,-1.5545,-1.7165,-1.9416,-2.334,-2.6299,-2.8553,-2.9884,-3.0162,-2.9778,-2.8762,-2.7059,-2.4969,-2.3131,-2.179,-2.083,-2.0767,-2.1053,-2.1464,-2.2322,-2.2873,-2.3092,-2.2745,-2.2502,-2.2268,-2.1873,-2.0687,-1.9418,-1.8502,-1.7492,-1.6492,-1.5747,-1.6035,-1.6826,-1.8298,-2.0574,-2.3012,-2.5463,-2.6297,-2.7428,-2.9623,-3.0175,-3.0233,-2.9766,-3.0516,-2.8749,-2.3317,-2.4064,-2.2415,-1.6985,-1.625,-1.5129,-1.3188,-1.2276,-1.1716,-1.1439,-1.1693,-1.2366,-1.3485,-1.4223,-1.4977,-1.5953,-1.669,-1.718,-1.7695,-1.811,-1.8131,-1.8091,-1.7798,-1.7403,-1.6836,-1.643,-1.5305,-1.3803,-1.2641,-1.1539,-1.0601,0.5152,0.5112,0.495,0.447,0.449,0.4088,0.2802,0.2146,0.1211,-0.0551,-0.1703,-0.2392,-0.2606,-0.3851,-0.5133,-0.6209,-0.7255,-0.8737,-1.0635,-1.2112,-1.3517,-1.484,-1.5973,-1.7033,-1.7906,-1.9435,-2.0902,-2.2444,-2.3867,-2.5281,-2.6619,0.0,0.0,0.0,-2.4884,-2.3845,-2.3112,-2.0229,-1.7933,-1.6308,-1.7505,-1.9109,0.0,-2.504,-2.809,-3.0672,-3.2421,-3.2514,-3.1573,-2.9953,-2.8292,-2.6426,-2.4218,-2.2827,-2.1905,-2.1975,-2.1933,-2.214,-2.3382,-2.3664,-2.3642,-2.3712,-2.3362,-2.2795,-2.2159,-2.1081,-1.9704,-1.8181,-1.71,-1.6145,-1.5065,-1.5715,-1.712,-1.941,-2.1444,-2.3615,-2.6136,-2.6942,-2.8183,-3.0535,-3.1192,-3.091,-2.9416,-3.009,-2.8688,-2.3997,-2.4241,-2.2834,-1.8816,-1.7576,-1.6392,-1.5069,-1.3728,-1.3116,-1.3099,-1.3207,-1.3886,-1.4847,-1.5488,-1.6242,-1.6907,-1.7563,-1.7946,-1.8132,-1.8344,-1.817,-1.7763,-1.7522,-1.706,-1.6499,-1.5737,-1.4446,-1.2864,-1.1522,-1.0651,-1.0107,0.3461,0.3209,0.2824,0.2445,0.0991,-0.0165,-0.0331,-0.0558,-0.135,-0.3088,-0.3941,-0.4439,-0.4639,-0.5782,-0.6794,-0.7487,-0.8327,-0.9628,-1.1356,-1.2803,-1.4247,-1.5865,-1.6943,-1.8125,-1.9461,-2.0601,-2.223,-2.4393,-2.5353,-2.6712,-2.8437,0.0,0.0,0.0,-2.6398,-2.5456,-2.4964,-2.2059,-1.9781,-1.8232,-1.9446,-2.101,-2.3024,-2.6784,-2.9748,-3.2226,-3.4587,-3.456,-3.3036,-3.1011,-2.9323,-2.7695,-2.5427,-2.3879,-2.3002,-2.305,-2.2972,-2.3064,-2.4306,-2.4419,-2.4191,-2.4326,-2.3594,-2.263,-2.1786,-2.0771,-1.9423,-1.7264,-1.6504,-1.5698,-1.3992,-1.5576,-1.8103,-2.0824,-2.2077,-2.3764,-2.6736,-2.7605,-2.8857,-3.1449,-3.2109,0.0,-2.9659,-2.9636,-2.8414,-2.5314,-2.4091,-2.2546,-2.0329,-1.8699,-1.7345,-1.6408,-1.4893,-1.4266,-1.4582,-1.4579,-1.5197,-1.6251,-1.6786,-1.7275,-1.7839,-1.8362,-1.8491,-1.8542,-1.8511,-1.8108,-1.7582,-1.7272,-1.673,-1.6113,-1.4739,-1.3489,-1.2279,-1.0874,-1.0132,-0.9735,0.041,0.0289,0.0286,0.056,-0.0772,-0.2587,-0.4392,-0.5247,-0.6263,-0.7951,-0.9204,-0.9746,-0.9285,-0.9014,-0.888,-0.905,-0.9451,-1.0365,-1.1981,-1.3478,-1.4976,-1.6381,-1.7667,-1.8992,-2.0332,-2.1992,-2.4092,-2.6582,-2.7867,-2.9253,-3.0643,0.0,0.0,-2.9419,-2.8076,-2.5889,-2.324,-2.1607,-2.071,-2.0569,-2.1137,-2.2811,-2.5266,-2.8411,-3.1705,-3.4821,-3.6236,-3.5745,-3.4146,-3.2342,-3.0584,-2.8767,-2.6748,-2.5283,-2.4399,-2.4711,-2.463,-2.4619,-2.5453,-2.5201,-2.4766,-2.4861,-2.3661,-2.2322,-2.172,-2.0495,-1.8951,-1.7266,-1.6255,-1.5559,-1.5215,-1.7413,-1.9879,-2.1735,-2.2688,-2.4648,-2.8542,-2.8825,-2.9516,-3.1836,-3.3006,-3.2577,-2.9689,-3.0629,-2.9609,-2.5276,-2.5842,-2.4653,-2.0627,-2.0134,-1.8871,-1.6416,-1.5789,-1.5636,-1.5925,-1.5988,-1.6615,-1.7914,-1.8023,-1.852,-1.9295,-1.9393,-1.9343,-1.9088,-1.8812,-1.8311,-1.7582,-1.7047,-1.6287,-1.5517,-1.4167,-1.3141,-1.2279,-1.0874,-0.9875,-0.9186,-0.2347,-0.2184,-0.2087,-0.2274,-0.3819,-0.5678,-0.7829,-0.9606,-1.0637,-1.0429,-1.1176,-1.1582,-1.1129,-1.1102,-1.1093,-1.0981,-1.1213,-1.1903,-1.3369,-1.4747,-1.6046,-1.7249,-1.8747,-2.0215,-2.1597,-2.342,-2.5473,-2.7592,-2.9053,-3.0339,-3.1495,-3.1627,-3.1326,-3.0571,-2.9495,-2.721,-2.4039,-2.3796,-2.3117,-2.2284,-2.2983,-2.4451,-2.6496,-2.9574,-3.2337,-3.48,-3.6818,-3.6774,-3.5455,-3.3535,-3.1744,-2.9884,-2.717,-2.5785,-2.521,-2.5306,-2.5199,-2.5254,-2.6318,-2.5612,-2.4595,-2.4433,-2.2923,-2.1336,-2.0926,-1.9833,-1.8614,-1.756,-1.6668,-1.6219,-1.6678,-1.8074,-2.0058,-2.2725,-2.3676,-2.5402,-2.9304,-3.0081,-3.0982,-3.2953,-3.3792,-3.3321,-3.0951,-3.1306,-3.003,-2.6164,-2.6081,-2.4785,-2.1411,-2.0381,-1.8866,-1.678,-1.6143,-1.6177,-1.6749,-1.7166,-1.8003,-1.9049,-1.9508,-2.0028,-2.0498,-2.0335,-2.0153,-1.9894,-1.8945,-1.8123,-1.7348,-1.6264,-1.5427,-1.4653,-1.4002,-1.2934,-1.1628,-1.0739,-0.9838,-0.8999,-0.4748,-0.4449,-0.4455,-0.5194,-0.6804,-0.865,-1.0405,-1.3061,-1.4273,-1.272,-1.2929,-1.3155,-1.291,-1.322,-1.3393,-1.3108,-1.3165,-1.3616,-1.4781,-1.603,-1.7222,-1.8257,-2.0017,-2.1554,-2.3004,-2.4737,-2.6624,-2.8752,-3.0055,-3.1259,-3.2434,-3.2616,-3.2254,-3.1369,-3.046,-2.8557,-2.619,-2.6464,-2.5774,-2.4533,-2.5266,-2.6455,-2.8117,-3.0863,-3.309,-3.5059,-3.7184,-3.7598,-3.6835,-3.4776,-3.2919,-3.0863,-2.747,-2.6184,-2.5921,-2.5814,-2.5698,-2.5843,-2.699,-2.5958,-2.4445,-2.4005,-2.2183,-2.0407,-1.9915,-1.9136,-1.8331,-1.7557,-1.7016,-1.6954,-1.7929,-1.8715,-2.0249,-2.3329,-2.4551,-2.6277,-2.9503,-3.0968,-3.2147,-3.3417,-3.3811,-3.3173,-3.117,-3.0929,-2.9711,-2.6817,-2.6099,-2.4638,-2.1952,-2.0548,-1.8908,-1.6891,-1.6381,-1.656,-1.7285,-1.8178,-1.9042,-2.0094,-2.0712,-2.1121,-2.142,-2.1121,-2.0814,-2.03,-1.9088,-1.795,-1.6932,-1.5632,-1.4695,-1.4004,-1.3754,-1.2724,-1.1203,-1.0654,-0.987,-0.8904,-0.6666,-0.6773,-0.6978,-0.7181,-0.8834,-1.0516,-1.1655,-1.4754,-1.6818,-1.6488,-1.6683,-1.6854,-1.6896,-1.6345,-1.5748,-1.5213,-1.5017,-1.5171,-1.5551,-1.7033,-1.8407,-1.9553,-2.1158,-2.2838,-2.4638,-2.5826,-2.7828,-3.0756,-3.15,-3.2745,-3.4441,-3.4441,-3.3407,-3.1502,-3.0221,-2.9451,-2.914,-2.8091,-2.7996,-2.8559,-2.8295,-2.9426,-3.1337,-3.2865,-3.5335,-3.7981,-3.8193,-3.8397,-3.8304,-3.6268,-3.4097,-3.171,-2.8465,-2.7272,-2.6991,-2.6847,-2.6847,-2.7031,-2.743,-2.6342,-2.4873,-2.4248,-2.2242,-2.0142,-1.9061,-1.8521,-1.7912,-1.6709,-1.6769,-1.7425,-1.8598,-2.0202,-2.1808,-2.3055,-2.5137,-2.7413,-2.9622,-3.1111,-3.1924,-3.1839,-3.2304,-3.1239,-2.7869,-2.846,-2.8243,-2.6311,-2.6843,-2.5512,-2.151,-2.1455,-1.9817,-1.6121,-1.67,-1.717,-1.7586,-1.8572,-1.9857,-2.1121,-2.1224,-2.1522,-2.203,-2.1522,-2.0806,-2.0071,-1.9162,-1.7841,-1.6338,-1.5444,-1.4912,-1.4469,-1.3361,-1.2386,-1.1511,-1.0916,-0.9778,-0.8611,-0.9325,-0.9423,-0.9753,-1.06,-1.1686,-1.2896,-1.4316,-1.6501,-1.8214,-1.8795,-1.8922,-1.8892,-1.8536,-1.8065,-1.7503,-1.7033,-1.7011,-1.7427,-1.8434,-1.9414,-2.0567,-2.1984,-2.3304,-2.4516,-2.5747,-2.7143,-2.9118,-3.1622,-3.2376,-3.3829,-3.5911,-3.5659,-3.5078,-3.4086,-3.3549,-3.3142,-3.2751,-3.2235,-3.1883,-3.1681,-3.1712,-3.2183,-3.3083,-3.4767,-3.6418,-3.7966,-3.8877,-3.8912,-3.8353,-3.6808,-3.4628,-3.2154,-2.9758,-2.8738,-2.8356,-2.7796,-2.7783,-2.7933,-2.7883,-2.644,-2.4738,-2.3576,-2.1372,-1.9158,-1.8019,-1.7445,-1.7085,-1.6904,-1.7755,-1.8982,-2.0127,-2.1748,-2.3628,-2.5708,-2.7572,-2.9289,-3.0937,-3.1907,-3.204,-3.1063,-3.1041,-3.0264,-2.7972,-2.8597,-2.8326,-2.6443,-2.6511,-2.5168,-2.1818,-2.1033,-1.9398,-1.6413,-1.6988,-1.7631,-1.8055,-1.9383,-2.0585,-2.1827,-2.1827,-2.2131,-2.2636,-2.1928,-2.0688,-1.9264,-1.8225,-1.712,-1.5742,-1.496,-1.4364,-1.3866,-1.3088,-1.2175,-1.132,-1.0624,-0.9646,-0.863,-1.1611,-1.1781,-1.2216,-1.3414,-1.4326,-1.535,-1.6656,-1.8317,-1.9773,-2.066,-2.0941,-2.0794,-2.002,-1.9596,-1.9201,-1.8767,-1.8813,-1.9467,-2.0762,-2.1463,-2.2542,-2.4159,-2.5149,-2.6153,-2.7103,-2.8479,-3.0312,-3.2445,-3.324,-3.4665,-3.677,-3.6658,-3.6544,-3.6497,-3.6497,-3.6219,-3.5928,-3.5762,-3.5341,-3.4851,-3.5029,-3.517,-3.5438,-3.6837,-3.7835,-3.8625,-3.9495,-3.9303,-3.8499,-3.7253,-3.5325,-3.3101,-3.1079,-3.012,-2.9504,-2.8634,-2.8408,-2.8358,-2.7898,-2.6508,-2.4809,-2.3322,-2.1049,-1.8812,-1.7512,-1.6849,-1.6739,-1.7471,-1.8712,-2.0092,-2.1471,-2.3154,-2.4998,-2.7096,-2.9,-3.051,-3.1296,-3.1873,-3.1616,-3.0166,-2.9369,-2.8437,-2.7249,-2.7618,-2.7354,-2.5779,-2.5622,-2.4526,-2.2056,-2.1068,-1.9422,-1.6967,-1.7587,-1.8157,-1.8658,-2.0005,-2.131,-2.2325,-2.2333,-2.2535,-2.3046,-2.203,-2.0561,-1.8736,-1.7796,-1.6684,-1.5544,-1.4771,-1.413,-1.3522,-1.2871,-1.192,-1.103,-1.0281,-0.9419,-0.8503,-1.3228,-1.3767,-1.4363,-1.5214,-1.6534,-1.7688,-1.8352,-2.031,-2.1829,-2.2297,-2.2976,-2.2836,-2.1514,-2.1164,-2.0899,-2.042,-2.0473,-2.0997,-2.1901,-2.2743,-2.3934,-2.5589,-2.6673,-2.7655,-2.8776,-2.9766,-3.1302,-3.3456,-3.4057,-3.5239,-3.6921,-3.7281,-3.7769,-3.8233,-3.8071,-3.8071,-3.8253,-3.7869,-3.7951,-3.8273,-3.8152,-3.8446,-3.8887,-3.9226,-4.001,-4.0879,-4.0051,-3.9627,-3.9185,-3.7786,-3.6352,-3.4747,-3.2493,-3.1241,-3.0377,-2.9362,-2.8751,-2.824,-2.7519,-2.6576,-2.5394,-2.3695,-2.1627,-1.9497,-1.7623,-1.7069,-1.7203,-1.8344,-1.928,-2.0492,-2.2408,-2.4359,-2.5786,-2.6068,-2.8699,-3.0529,-3.0102,-3.0544,-3.0388,-2.89,-2.6955,-2.5435,-2.468,-2.4734,-2.4641,-2.4072,-2.4271,-2.3678,-2.1979,-2.1785,-2.0446,-1.757,-1.8311,-1.8984,-1.9265,-2.0624,-2.1818,-2.2929,-2.2644,-2.2846,-2.3347,-2.1928,-2.0435,-1.8807,-1.82,-1.7155,-1.5717,-1.5045,-1.4333,-1.3782,-1.2479,-1.1485,-1.0753,-1.0026,-0.9007,-0.7998,-1.4876,-1.5531,-1.6242,-1.6862,-1.7901,-1.8911,-1.9625,-2.1188,-2.247,-2.2827,-2.4015,-2.4661,-2.4236,-2.3045,-2.2101,-2.1604,-2.1791,-2.2318,-2.324,-2.4356,-2.5597,-2.6953,-2.8116,-2.917,-3.0058,-3.1308,-3.2749,-3.4426,-3.5357,-3.6825,-3.8991,-4.0087,-4.0737,-4.1023,-4.0814,-4.0814,-4.0959,-4.1071,-4.1673,-4.2658,-4.2124,-4.1897,-4.1988,-4.2318,-4.2451,-4.2452,-4.1707,-4.1385,-4.1031,-3.9098,-3.8349,-3.7953,-3.6586,-3.4489,-3.2345,-3.1415,-3.041,-2.9339,-2.8373,-2.6705,-2.4867,-2.3393,-2.144,-1.9424,-1.7612,-1.7101,-1.7168,-1.7969,-1.949,-2.1153,-2.246,-2.4794,-2.6658,-2.7298,-2.907,-3.0207,-2.9549,-2.9421,-2.8618,-2.6522,-2.5548,-2.4765,-2.3917,-2.4406,-2.4598,-2.4122,-2.4617,-2.3998,-2.1911,-2.0988,-1.9947,-1.8656,-1.8992,-1.9567,-2.0069,-2.1196,-2.2295,-2.3247,-2.2946,-2.2745,-2.2535,-2.1827,-2.0829,-1.947,-1.8489,-1.7126,-1.5717,-1.4791,-1.3927,-1.3003,-1.1834,-1.1021,-1.0327,-0.9442,-0.8438,-0.7481,-1.656,-1.7342,-1.817,-1.8667,-1.9559,-2.0483,-2.1212,-2.2318,-2.3193,-2.3651,-2.4642,-2.5662,-2.6585,-2.5242,-2.4025,-2.3412,-2.3308,-2.3615,-2.4529,-2.5725,-2.6925,-2.8199,-2.9472,-3.0526,-3.1289,-3.2669,-3.4057,-3.5395,-3.7142,-3.8845,-4.055,-4.1824,-4.2463,-4.2694,-4.2599,-4.2599,-4.2569,-4.2818,-4.3502,-4.4384,-4.456,-4.4544,-4.45,-4.4422,-4.4302,-4.4096,-4.3395,-4.3003,-4.2495,-4.0656,-4.01,-4.0091,-3.9123,-3.7335,-3.5237,-3.3609,-3.1824,-3.0069,-2.8637,-2.6801,-2.4852,-2.2964,-2.1232,-1.9467,-1.7634,-1.7226,-1.7391,-1.8165,-1.9785,-2.1406,-2.2654,-2.501,-2.7032,-2.797,-2.9327,-3.004,-2.9431,-2.8823,-2.76,-2.5406,-2.4618,-2.415,-2.3784,-2.4148,-2.4388,-2.4106,-2.4335,-2.3574,-2.1727,-2.1033,-2.0404,-1.9641,-1.9884,-2.0365,-2.0978,-2.1786,-2.2611,-2.3447,-2.3347,-2.2946,-2.2224,-2.2123,-2.1303,-2.0059,-1.8943,-1.752,-1.5923,-1.4873,-1.3667,-1.252,-1.1497,-1.0622,-0.9807,-0.8797,-0.7874,-0.7105,-1.83,-1.9147,-1.9936,-2.0562,-2.1357,-2.2239,-2.2998,-2.3534,-2.4028,-2.4607,-2.4973,-2.6073,-2.8379,-2.7596,-2.6634,-2.5869,-2.5007,-2.4972,-2.5918,-2.69,-2.8088,-2.9362,-3.0675,-3.1739,-3.2453,-3.3934,-3.5342,-3.6527,-3.9355,-4.1126,-4.1822,-4.2797,-4.338,-4.3597,-4.3711,-4.3635,-4.3427,-4.3727,-4.3955,-4.4231,-4.5694,-4.6357,-4.6369,-4.5832,-4.5698,-4.5682,-4.5012,-4.4365,-4.3638,-4.2259,-4.1629,-4.1236,-4.0333,-3.9648,-3.8577,-3.5742,-3.3078,-3.0558,-2.8491,-2.6942,-2.5271,-2.2651,-2.1002,-1.9588,-1.7779,-1.7496,-1.7915,-1.8976,-2.0169,-2.143,-2.3007,-2.5135,-2.704,-2.818,-2.9414,-3.0011,-2.9574,-2.8526,-2.718,-2.5436,-2.4245,-2.3756,-2.4198,-2.4044,-2.4033,-2.4168,-2.3549,-2.2658,-2.1596,-2.1781,-2.1516,-2.0444,-2.0772,-2.1159,-2.1692,-2.2291,-2.2811,-2.3447,-2.3646,-2.3338,-2.2526,-2.2526,-2.182,-2.0468,-1.9626,-1.8119,-1.6271,-1.5152,-1.3812,-1.232,-1.1312,-1.0337,-0.9229,-0.8169,-0.7416,-0.6793,-1.9283,-1.9913,-2.0562,-2.1075,-2.1863,-2.2643,-2.3193,-2.3848,-2.439,-2.4677,-2.5908,-2.7081,-2.7939,-2.929,-2.9943,-2.9542,-2.804,-2.7342,-2.7826,-2.8742,-2.9636,-3.0406,-3.217,-3.3472,-3.4181,-3.6023,-3.788,-3.984,-4.1317,-4.2729,-4.405,-4.5073,-4.5879,-4.6499,-4.5886,-4.5994,-4.6595,-4.6448,-4.7455,-4.9011,-4.7367,-4.7204,-4.7918,-4.7522,-4.7127,-4.6653,-4.5842,-4.5515,-4.5154,-4.3357,-4.2652,-4.2381,-4.1898,-4.0541,-3.877,-3.6827,-3.4258,-3.1675,-2.9958,-2.7321,-2.4725,-2.3214,-2.0665,-1.8519,-1.8246,-1.8338,-1.8751,-1.9842,-2.101,-2.2246,-2.3733,-2.5714,-2.7314,-2.8211,-2.9241,-2.9571,-2.8763,-2.7952,-2.6904,-2.5228,-2.453,-2.4217,-2.4206,-2.4193,-2.4145,-2.4116,-2.3665,-2.294,-2.1774,-2.1624,-2.1328,-2.0565,-2.0858,-2.1237,-2.1926,-2.242,-2.3054,-2.3755,-2.3954,-2.3746,-2.3147,-2.3129,-2.262,-2.1542,-2.0101,-1.849,-1.6835,-1.5272,-1.3696,-1.1952,-1.1072,-1.0022,-0.8863,-0.7886,-0.7037,-0.6349,-2.0169,-2.0843,-2.1486,-2.2048,-2.2763,-2.3605,-2.4505,-2.494,-2.5387,-2.5791,-2.681,-2.7977,-2.9202,-3.0641,-3.1739,-3.2237,-3.006,-2.8817,-2.9174,-2.9937,-3.085,-3.1867,-3.2827,-3.3966,-3.5247,-3.7524,-3.9796,-4.2023,-4.3166,-4.4211,-4.5177,-4.651,-4.7482,-4.8124,-4.7427,-4.8026,-4.943,-4.8095,-4.8684,-5.0307,-4.8182,-4.732,-4.7349,-4.8015,-4.8076,-4.7715,-4.6727,-4.6433,-4.6234,-4.5255,-4.4818,-4.4399,-4.363,-4.2228,-4.0458,-3.8543,-3.5663,-3.2836,-3.1304,-2.8503,-2.5373,-2.2724,-2.0373,-1.8693,-1.8698,-1.8995,-1.9486,-2.0309,-2.1516,-2.2689,-2.3774,-2.5657,-2.7407,-2.8186,-2.8895,-2.9194,-2.851,-2.7809,-2.6729,-2.5201,-2.4762,-2.4503,-2.4241,-2.4196,-2.4094,-2.3839,-2.3441,-2.2784,-2.1793,-2.1572,-2.1313,-2.1013,-2.1126,-2.1593,-2.2273,-2.3046,-2.3726,-2.4341,-2.4341,-2.4143,-2.3746,-2.3637,-2.3015,-2.1994,-2.0744,-1.9197,-1.7373,-1.5823,-1.4199,-1.237,-1.1309,-1.018,-0.9023,-0.7886,-0.7105,-0.6391,-2.1045,-2.1753,-2.2543,-2.3125,-2.3929,-2.4877,-2.6077,-2.6399,-2.673,-2.734,-2.8151,-2.9303,-3.097,-3.1862,-3.2859,-3.4275,-3.1864,-3.0364,-3.0632,-3.1151,-3.2075,-3.3414,-3.3751,-3.4569,-3.6067,-3.8991,-4.1529,-4.3509,-4.4751,-4.5596,-4.6135,-4.763,-4.8678,-4.9414,-4.8802,-4.9644,-5.1388,-4.9114,-4.8711,-4.9428,-4.8163,-4.6823,-4.5813,-4.7831,-4.8702,-4.8794,-4.7949,-4.7355,-4.7085,-4.7249,-4.7075,-4.6598,-4.5382,-4.3945,-4.2385,-4.0415,-3.739,-3.441,-3.2699,-2.9809,-2.6275,-2.2198,-2.0433,-1.958,-1.9247,-1.9698,-2.0398,-2.0854,-2.2006,-2.3121,-2.386,-2.5651,-2.7357,-2.836,-2.8826,-2.8963,-2.8659,-2.7858,-2.6769,-2.5387,-2.5039,-2.47,-2.4206,-2.4268,-2.4008,-2.3503,-2.3125,-2.2596,-2.183,-2.1571,-2.1516,-2.1509,-2.1484,-2.1918,-2.285,-2.3672,-2.4375,-2.4932,-2.4735,-2.443,-2.4233,-2.3945,-2.3238,-2.2207,-2.1237,-1.9813,-1.796,-1.66,-1.4837,-1.31,-1.1859,-1.0625,-0.9474,-0.8216,-0.7282,-0.6753,-2.2116,-2.264,-2.3198,-2.3839,-2.5127,-2.6212,-2.6394,-2.7353,-2.8096,-2.8215,-3.0804,-3.2318,-3.1526,-3.3041,-3.457,-3.566,-3.4895,-3.4121,-3.3756,-3.3638,-3.3952,-3.4701,-3.6821,-3.7806,-3.7531,-4.1308,-4.3855,-4.5079,-4.5683,-4.6847,-4.8581,-4.8941,-4.9958,-5.1505,-5.0787,-5.0665,-5.0838,-4.9384,-4.8236,-4.7337,-4.649,-4.563,-4.5032,-4.7669,-4.9275,-5.023,-4.9679,-4.8969,-4.8196,-4.812,-4.7908,-4.7557,-4.6598,-4.4673,-4.2585,-4.1948,-3.9875,-3.7207,-3.4335,-3.0214,-2.6072,-2.3195,-2.1666,-2.0787,-2.0588,-2.1152,-2.1901,-2.2424,-2.318,-2.421,-2.5707,-2.659,-2.7599,-2.8855,-2.9328,-2.9359,-2.8827,-2.8004,-2.7058,-2.5953,-2.5094,-2.4454,-2.4196,-2.4368,-2.4165,-2.3533,-2.3575,-2.3258,-2.2372,-2.2097,-2.1983,-2.2014,-2.1704,-2.2129,-2.3335,-2.3998,-2.46,-2.5235,-2.4941,-2.4932,-2.5137,-2.4341,-2.3728,-2.3003,-2.1437,-1.9945,-1.8556,-1.6888,-1.5254,-1.3631,-1.2441,-1.1159,-0.9796,-0.8763,-0.7891,-0.7198,-2.2714,-2.2957,-2.4022,-2.7065,-2.7945,-2.827,-2.8524,-2.8686,-2.9007,-2.9514,-3.1343,-3.2596,-3.2587,-3.4572,-3.6213,-3.7017,-3.6565,-3.6184,-3.6055,-3.5203,-3.5455,-3.7129,-3.8459,-4.0291,-4.2788,-4.5044,-4.6413,-4.6951,-4.8015,-4.8872,-4.9555,-5.0434,-5.1369,-5.2378,-5.2095,-5.1529,-5.055,-4.9382,-4.8123,-4.6879,-4.7103,-4.7252,-4.7684,-4.9316,-5.0509,-5.1183,-5.1016,-5.0482,-4.9913,-4.993,-4.987,-4.9434,-4.7819,-4.6173,-4.446,-4.2589,-3.9913,-3.6907,-3.4164,-3.0899,-2.7674,-2.4908,-2.3325,-2.2229,-2.1572,-2.1751,-2.2252,-2.2819,-2.3732,-2.4792,-2.58,-2.6952,-2.8101,-2.8912,-2.9071,-2.9028,-2.8791,-2.773,-2.6682,-2.5979,-2.4956,-2.4186,-2.3851,-2.3978,-2.3979,-2.3516,-2.3896,-2.3962,-2.3577,-2.3175,-2.2961,-2.2881,-2.2509,-2.2695,-2.3439,-2.4278,-2.4985,-2.5381,-2.5412,-2.5323,-2.5235,-2.444,-2.3628,-2.2828,-2.1758,-2.064,-1.9398,-1.784,-1.6486,-1.5093,-1.3388,-1.1955,-1.0695,-0.9765,-0.8752,-0.804,-2.3017,-2.3905,-2.5881,-2.9906,-3.0083,-2.9789,-3.0172,-2.9961,-3.0053,-3.0875,-3.1904,-3.2783,-3.3317,-3.5554,-3.7314,-3.7992,-3.8012,-3.8033,-3.8175,-3.7081,-3.74,-3.9433,-4.0004,-4.2496,-4.7159,-4.777,-4.8259,-4.8766,-5.006,-5.0572,-5.0418,-5.1756,-5.2642,-5.3158,-5.2998,-5.2271,-5.1057,-4.9642,-4.8325,-4.7289,-4.805,-4.9029,-5.0006,-5.1038,-5.1508,-5.1778,-5.1924,-5.1672,-5.1417,-5.1639,-5.1508,-5.0961,-4.9056,-4.7675,-4.6233,-4.3483,-4.0112,-3.684,-3.4439,-3.2206,-2.9912,-2.7172,-2.529,-2.3838,-2.2655,-2.2402,-2.2601,-2.3087,-2.4132,-2.5206,-2.5901,-2.7174,-2.828,-2.8874,-2.8704,-2.859,-2.8724,-2.7603,-2.6496,-2.5906,-2.4859,-2.4105,-2.3513,-2.3712,-2.3806,-2.3628,-2.4287,-2.4726,-2.472,-2.4394,-2.4067,-2.3789,-2.3233,-2.3181,-2.3664,-2.459,-2.5253,-2.555,-2.569,-2.5703,-2.543,-2.443,-2.3429,-2.2451,-2.1906,-2.102,-1.9983,-1.8783,-1.7546,-1.646,-1.4425,-1.301,-1.193,-1.0803,-0.9873,-0.906,-2.3065,-2.6329,-2.9439,-3.0418,-3.019,-2.9946,-3.0111,-3.0892,-3.1573,-3.2038,-3.357,-3.422,-3.3125,-3.5416,-3.7345,-3.8278,-3.9772,-4.0525,-4.0203,-4.0183,-4.04,-4.0821,-4.2428,-4.4578,-4.7387,-4.7699,-4.8645,-5.023,-5.0677,-5.124,-5.1955,-5.2652,-5.3541,-5.4611,-5.3297,-5.2815,-5.2857,-5.0383,-4.8972,-4.8306,-4.8573,-4.9148,-4.9953,-5.1619,-5.2036,-5.1851,-5.2181,-5.2236,-5.2236,-5.2236,-5.1921,-5.1362,-5.0149,-4.8551,-4.6835,-4.5224,-4.2256,-3.8958,-3.6581,-3.4408,-3.2319,-3.0124,-2.7638,-2.5382,-2.407,-2.3616,-2.3638,-2.4013,-2.4499,-2.5367,-2.6961,-2.74,-2.7783,-2.8905,-2.8791,-2.851,-2.851,-2.7905,-2.6937,-2.5665,-2.4871,-2.4185,-2.3543,-2.3806,-2.4127,-2.4098,-2.4941,-2.5415,-2.5543,-2.5492,-2.5278,-2.4771,-2.3487,-2.3316,-2.4385,-2.473,-2.5142,-2.5738,-2.5988,-2.6091,-2.6004,-2.4421,-2.3329,-2.2451,-2.1499,-2.0605,-1.967,-1.9118,-1.834,-1.7284,-1.5603,-1.4303,-1.332,-1.1794,-1.0697,-0.9915,-2.5927,-2.8105,-3.0207,-3.1232,-3.1242,-3.1166,-3.1209,-3.166,-3.2273,-3.3125,-3.4008,-3.4378,-3.3667,-3.5554,-3.7855,-4.018,-4.0982,-4.1419,-4.1493,-4.1564,-4.1966,-4.2782,-4.4593,-4.6361,-4.7945,-4.8662,-4.9574,-5.0704,-5.1365,-5.2322,-5.3399,-5.3989,-5.4506,-5.5025,-5.4309,-5.3908,-5.3579,-5.1294,-4.9937,-4.9315,-4.9177,-4.9137,-4.946,-5.1164,-5.1785,-5.1851,-5.237,-5.2607,-5.2677,-5.2764,-5.2652,-5.2234,-5.1085,-4.9637,-4.7809,-4.4768,-4.2312,-4.0234,-3.8841,-3.6375,-3.3789,-3.2041,-3.0155,-2.7952,-2.5102,-2.4122,-2.4038,-2.463,-2.5367,-2.6147,-2.7077,-2.7813,-2.8415,-2.9015,-2.8736,-2.8431,-2.8339,-2.751,-2.6468,-2.52,-2.4553,-2.4068,-2.3466,-2.404,-2.4662,-2.498,-2.5809,-2.6469,-2.6838,-2.6568,-2.6511,-2.6594,-2.4972,-2.4097,-2.4088,-2.4267,-2.4575,-2.5018,-2.5451,-2.5599,-2.5217,-2.431,-2.3329,-2.2249,-2.1499,-2.0711,-1.967,-1.9118,-1.8353,-1.7426,-1.6062,-1.4893,-1.3725,-1.2738,-1.1735,-1.0917,-2.8399,-2.9407,-3.042,-3.1319,-3.1467,-3.1391,-3.1467,-3.1941,-3.279,-3.4174,-3.4928,-3.5349,-3.5431,-3.6538,-3.856,-4.1677,-4.2096,-4.2532,-4.3223,-4.3679,-4.4159,-4.4814,-4.6305,-4.763,-4.8644,-4.9644,-5.0593,-5.1468,-5.2496,-5.367,-5.49,-5.5202,-5.5471,-5.558,-5.5113,-5.4656,-5.4093,-5.198,-5.0746,-5.0164,-4.9782,-4.9523,-4.9509,-5.0961,-5.1799,-5.2336,-5.284,-5.3093,-5.3179,-5.3041,-5.2903,-5.2614,-5.1289,-4.9766,-4.7813,-4.4788,-4.2932,-4.1617,-4.0832,-3.8582,-3.6099,-3.4482,-3.2388,-2.9922,-2.6777,-2.526,-2.4737,-2.5329,-2.5984,-2.6667,-2.7372,-2.8076,-2.8724,-2.8961,-2.859,-2.8179,-2.7834,-2.6982,-2.5931,-2.468,-2.4125,-2.373,-2.3236,-2.3894,-2.4675,-2.5351,-2.6364,-2.7262,-2.7914,-2.7804,-2.7742,-2.7854,-2.6172,-2.5016,-2.4216,-2.4275,-2.4336,-2.4436,-2.504,-2.5068,-2.4593,-2.4039,-2.3229,-2.2148,-2.1603,-2.0817,-1.9876,-1.9336,-1.8574,-1.7759,-1.6618,-1.5389,-1.4287,-1.3541,-1.2655,-1.1712,-2.9818,-3.0187,-3.0369,-3.0582,-3.043,-3.0384,-3.0611,-3.17,-3.3249,-3.5275,-3.6532,-3.7557,-3.8415,-3.8511,-3.9613,-4.2361,-4.3251,-4.4221,-4.5606,-4.6828,-4.7348,-4.6924,-4.7553,-4.8412,-4.9502,-5.0559,-5.1635,-5.273,-5.4148,-5.5324,-5.642,-5.629,-5.6308,-5.6365,-5.5454,-5.4841,-5.449,-5.2455,-5.1332,-5.0858,-5.0441,-5.021,-5.0202,-5.104,-5.2244,-5.3416,-5.3683,-5.3832,-5.37,-5.2956,-5.2677,-5.23,-5.0756,-4.8684,-4.6621,-4.5849,-4.4743,-4.3446,-4.2446,-4.1058,-3.9428,-3.7507,-3.4341,-3.1149,-2.9316,-2.7305,-2.5882,-2.62,-2.6382,-2.6862,-2.8004,-2.8179,-2.8339,-2.8724,-2.8283,-2.7626,-2.6917,-2.6414,-2.5603,-2.4024,-2.3604,-2.3275,-2.2842,-2.3381,-2.4146,-2.5087,-2.6266,-2.7421,-2.8746,-2.9035,-2.8804,-2.8138,-2.6939,-2.5936,-2.5192,-2.4761,-2.4415,-2.4167,-2.4844,-2.4764,-2.4297,-2.3637,-2.302,-2.2443,-2.1394,-2.0809,-2.0507,-1.9758,-1.9009,-1.843,-1.727,-1.6163,-1.5077,-1.4167,-1.3203,-1.2113,-3.0015,-3.0294,-3.0603,-3.1565,-3.2273,-3.2874,-3.3231,-3.3994,-3.524,-3.7005,-3.8023,-3.8688,-3.9187,-3.9691,-4.1291,-4.4578,-4.4865,-4.5503,-4.7073,-4.8026,-4.8948,-4.9819,-4.9433,-4.9381,-4.9923,-5.137,-5.2714,-5.4045,-5.4758,-5.5597,-5.6616,-5.66,-5.66,-5.6528,-5.6133,-5.5768,-5.5301,-5.3857,-5.2736,-5.1924,-5.0582,-4.9975,-5.006,-5.0737,-5.1645,-5.2655,-5.3505,-5.37,-5.3433,-5.2661,-5.2004,-5.1197,-4.94,-4.8275,-4.728,-4.5808,-4.4822,-4.403,-4.3647,-4.2167,-4.0449,-3.9368,-3.6757,-3.3927,-3.1751,-2.9212,-2.7359,-2.7591,-2.7557,-2.7613,-2.8143,-2.8638,-2.897,-2.8889,-2.8597,-2.8145,-2.7364,-2.6249,-2.5042,-2.3673,-2.3332,-2.3009,-2.2796,-2.3452,-2.4341,-2.5178,-2.6618,-2.7936,-2.8921,-2.922,-2.9181,-2.8611,-2.7399,-2.6282,-2.5192,-2.4095,-2.3516,-2.3428,-2.3635,-2.3587,-2.3324,-2.3247,-2.2676,-2.1937,-2.1234,-2.0462,-1.9628,-1.8978,-1.84,-1.7803,-1.6769,-1.6009,-1.5183,-1.4045,-1.3222,-1.2644,-2.9657,-3.0491,-3.127,-3.2176,-3.3111,-3.4046,-3.4751,-3.5228,-3.5984,-3.7212,-3.8973,-4.0018,-3.9875,-4.0753,-4.2217,-4.4509,-4.5517,-4.6549,-4.774,-4.9028,-5.015,-5.1228,-5.1104,-5.1067,-5.1067,-5.2413,-5.3656,-5.483,-5.5526,-5.617,-5.6797,-5.6795,-5.6794,-5.6742,-5.6546,-5.6273,-5.5865,-5.4423,-5.3379,-5.2648,-5.095,-5.0194,-5.0189,-5.0541,-5.1156,-5.2027,-5.2631,-5.2872,-5.2893,-5.2279,-5.1327,-5.0119,-4.8664,-4.8002,-4.7513,-4.6406,-4.5673,-4.5156,-4.4792,-4.3516,-4.1919,-4.0904,-3.8358,-3.5632,-3.3424,-3.0793,-2.891,-2.8728,-2.8385,-2.8191,-2.8407,-2.885,-2.9046,-2.8716,-2.8367,-2.781,-2.684,-2.556,-2.4395,-2.3238,-2.2905,-2.2721,-2.2631,-2.3463,-2.4421,-2.5513,-2.704,-2.8258,-2.8932,-2.9476,-2.9455,-2.8802,-2.7666,-2.636,-2.4917,-2.3526,-2.2784,-2.2706,-2.2687,-2.264,-2.2677,-2.2786,-2.258,-2.192,-2.1224,-2.0514,-1.9687,-1.8736,-1.8112,-1.7515,-1.6599,-1.5831,-1.5065,-1.414,-1.3414,-1.2906,-2.914,-3.07,-3.2077,-3.2568,-3.3295,-3.4252,-3.5355,-3.5629,-3.5963,-3.666,-3.9577,-4.1272,-4.0531,-4.1693,-4.2729,-4.3338,-4.5765,-4.7535,-4.809,-4.9851,-5.1088,-5.1538,-5.2541,-5.3006,-5.2662,-5.3654,-5.4491,-5.5223,-5.6294,-5.6899,-5.7003,-5.6899,-5.6899,-5.7003,-5.676,-5.6564,-5.6257,-5.4435,-5.3488,-5.3124,-5.154,-5.0819,-5.0657,-5.0526,-5.0902,-5.1425,-5.1281,-5.1685,-5.2202,-5.174,-5.0618,-4.919,-4.8469,-4.7995,-4.7628,-4.7411,-4.6946,-4.6447,-4.5828,-4.4774,-4.3565,-4.204,-3.9376,-3.6598,-3.451,-3.2333,-3.0505,-2.9682,-2.9072,-2.8723,-2.887,-2.8982,-2.8846,-2.826,-2.7903,-2.7069,-2.5625,-2.4706,-2.3806,-2.2896,-2.2593,-2.241,-2.2489,-2.3309,-2.4486,-2.6041,-2.7431,-2.8355,-2.878,-2.9636,-2.9681,-2.8791,-2.7566,-2.6093,-2.4385,-2.2986,-2.2176,-2.2017,-2.1926,-2.1937,-2.2132,-2.225,-2.2339,-2.2282,-2.131,-2.0719,-2.0308,-1.8945,-1.8003,-1.7477,-1.6636,-1.5719,-1.4834,-1.4282,-1.3638,-1.2922,-2.9875,-3.0657,-3.1721,-3.3526,-3.3991,-3.4535,-3.5725,-3.658,-3.7475,-3.8657,-4.0426,-4.1641,-4.1709,-4.2425,-4.3678,-4.543,-4.8029,-4.9669,-5.0167,-5.0929,-5.1487,-5.1808,-5.2759,-5.3508,-5.4,-5.4822,-5.5325,-5.5486,-5.6606,-5.7156,-5.7138,-5.7239,-5.7257,-5.7156,-5.6989,-5.6725,-5.6288,-5.4752,-5.3823,-5.345,-5.2463,-5.1633,-5.0998,-5.1066,-5.1193,-5.117,-5.0163,-5.0676,-5.1745,-5.0859,-5.0168,-4.9563,-4.847,-4.8243,-4.8215,-4.7531,-4.7121,-4.6711,-4.6212,-4.5078,-4.3788,-4.241,-4.0412,-3.8324,-3.6166,-3.3972,-3.2217,-3.1506,-3.0765,-3.022,-2.9903,-2.9735,-2.93,-2.8399,-2.7909,-2.7108,-2.5793,-2.485,-2.4013,-2.3453,-2.2908,-2.2744,-2.3194,-2.3551,-2.4307,-2.5648,-2.6314,-2.7267,-2.8724,-2.9127,-2.8937,-2.8195,-2.7087,-2.5547,-2.3689,-2.2264,-2.1535,-2.1571,-2.1275,-2.1243,-2.1462,-2.1743,-2.1747,-2.1437,-2.1111,-2.0514,-1.9783,-1.8534,-1.7806,-1.7173,-1.6318,-1.5606,-1.4905,-1.4359,-1.3732,-1.3082,-3.0154,-3.1156,-3.2247,-3.372,-3.4337,-3.4951,-3.577,-3.6797,-3.7805,-3.8787,-4.0475,-4.1593,-4.1534,-4.2486,-4.3718,-4.531,-4.7609,-4.9211,-4.9732,-5.0923,-5.1758,-5.2036,-5.2528,-5.3351,-5.4621,-5.5382,-5.5908,-5.6269,-5.6939,-5.7239,-5.7188,-5.7356,-5.7289,-5.7105,-5.6953,-5.6779,-5.6433,-5.5165,-5.4608,-5.4532,-5.3419,-5.2411,-5.1652,-5.179,-5.1389,-5.0558,-4.9392,-4.9791,-5.0697,-4.9869,-4.9534,-4.9362,-4.8408,-4.8207,-4.8162,-4.7643,-4.7193,-4.6844,-4.6491,-4.55,-4.4376,-4.3118,-4.1515,-3.9591,-3.7321,-3.5201,-3.3424,-3.2773,-3.1726,-3.0741,-3.0145,-3.002,-2.9465,-2.8025,-2.7557,-2.6881,-2.5333,-2.4456,-2.3818,-2.3625,-2.3289,-2.3252,-2.385,-2.391,-2.4388,-2.553,-2.6016,-2.6734,-2.7656,-2.8176,-2.8022,-2.7216,-2.6239,-2.4917,-2.3341,-2.1925,-2.1198,-2.1133,-2.0741,-2.0672,-2.1069,-2.1337,-2.1337,-2.1131,-2.0875,-2.0205,-1.948,-1.8436,-1.749,-1.6749,-1.5998,-1.5351,-1.4713,-1.4175,-1.3665,-1.3136,-3.0255,-3.1668,-3.2879,-3.3506,-3.4404,-3.5195,-3.5688,-3.6858,-3.7824,-3.8275,-4.0305,-4.1514,-4.1215,-4.2593,-4.3883,-4.4817,-4.6936,-4.8485,-4.9074,-5.0838,-5.192,-5.2209,-5.239,-5.3213,-5.4773,-5.5645,-5.6371,-5.7036,-5.7289,-5.7338,-5.7257,-5.7338,-5.7257,-5.7054,-5.6847,-5.6689,-5.6579,-5.554,-5.5337,-5.5653,-5.4431,-5.3331,-5.248,-5.2421,-5.1468,-5.008,-4.9092,-4.9038,-4.9373,-4.8993,-4.8859,-4.8825,-4.8506,-4.8202,-4.7964,-4.7709,-4.7279,-4.6931,-4.6683,-4.5956,-4.4967,-4.3885,-4.2356,-4.0618,-3.8421,-3.63,-3.464,-3.3862,-3.2604,-3.1378,-3.0591,-3.0252,-2.9505,-2.7586,-2.7115,-2.6299,-2.4681,-2.3962,-2.3528,-2.3563,-2.3589,-2.3947,-2.4661,-2.4407,-2.4661,-2.5561,-2.5946,-2.6256,-2.6551,-2.7129,-2.6974,-2.6069,-2.525,-2.4322,-2.31,-2.1822,-2.1052,-2.0874,-2.0205,-2.0188,-2.0797,-2.0931,-2.1012,-2.104,-2.0538,-1.9887,-1.9063,-1.8122,-1.7173,-1.6217,-1.5678,-1.5137,-1.4713,-1.4072,-1.3586,-1.3301,-3.0359,-3.1475,-3.2508,-3.3296,-3.3942,-3.4658,-3.5597,-3.7116,-3.8381,-3.89,-4.0671,-4.198,-4.2346,-4.412,-4.5614,-4.6344,-4.8844,-5.0665,-5.1233,-5.1922,-5.2315,-5.2361,-5.3141,-5.3891,-5.4525,-5.5965,-5.6843,-5.7188,-5.7356,-5.7388,-5.7388,-5.7289,-5.7206,-5.7138,-5.6653,-5.6472,-5.6413,-5.5826,-5.561,-5.5543,-5.5331,-5.4603,-5.3594,-5.2604,-5.1605,-5.0575,-4.972,-4.8852,-4.8271,-4.8935,-4.8858,-4.8575,-4.86,-4.8453,-4.8202,-4.7709,-4.7467,-4.7121,-4.6683,-4.6239,-4.5465,-4.42,-4.295,-4.1682,-4.0182,-3.8108,-3.6247,-3.53,-3.4451,-3.3531,-3.2308,-3.1209,-2.985,-2.7921,-2.6797,-2.5732,-2.4227,-2.3992,-2.3955,-2.3817,-2.4435,-2.5041,-2.5561,-2.5083,-2.5061,-2.5785,-2.5732,-2.5821,-2.6282,-2.6195,-2.5962,-2.5558,-2.4497,-2.3561,-2.2885,-2.1604,-2.0967,-2.0874,-2.0205,-2.0053,-2.0394,-2.0529,-2.058,-2.0273,-1.9694,-1.9034,-1.8422,-1.706,-1.643,-1.6217,-1.569,-1.5476,-1.5261,-1.439,-1.4009,-1.3828,-3.1003,-3.178,-3.2644,-3.3796,-3.4244,-3.4792,-3.5721,-3.7258,-3.8473,-3.9009,-4.0637,-4.1931,-4.2429,-4.3701,-4.4817,-4.5495,-4.9081,-5.1571,-5.2084,-5.2066,-5.2066,-5.2209,-5.2485,-5.3207,-5.4421,-5.5089,-5.5931,-5.7003,-5.7087,-5.7206,-5.7206,-5.7105,-5.6951,-5.6742,-5.6492,-5.6271,-5.606,-5.5799,-5.5595,-5.5507,-5.5507,-5.4921,-5.4015,-5.3906,-5.2727,-5.0924,-4.9493,-4.8723,-4.8361,-4.8221,-4.8108,-4.8183,-4.832,-4.8213,-4.8045,-4.7843,-4.7704,-4.7372,-4.6726,-4.5903,-4.4995,-4.4044,-4.2739,-4.1404,-4.0241,-3.8946,-3.7648,-3.6212,-3.5152,-3.4019,-3.2387,-3.1362,-2.991,-2.781,-2.6527,-2.5388,-2.3776,-2.3589,-2.3747,-2.4181,-2.5008,-2.5576,-2.5769,-2.5521,-2.5363,-2.5487,-2.5126,-2.502,-2.5238,-2.4907,-2.4585,-2.4336,-2.3527,-2.2876,-2.2386,-2.1366,-2.0802,-2.0984,-2.0205,-1.9928,-2.0044,-2.0322,-2.0168,-1.9705,-1.9162,-1.8506,-1.7569,-1.6636,-1.5897,-1.5357,-1.5256,-1.5261,-1.5166,-1.4543,-1.4288,-1.4281]}]]